<?xml version='1.0' encoding='UTF-8'?><gpx version="1.1" creator="JPX - https://github.com/jenetics/jpx" xmlns="http://www.topografix.com/GPX/1/1"><trk><trkseg><trkpt lat="41.14753426362173" lon="16.77051474354013"><ele>28.999999999999996</ele><time>2026-04-11T12:28:49Z</time></trkpt><trkpt lat="41.14757174551584" lon="16.77060466545558"><ele>29.0</ele><time>2026-04-11T12:28:50Z</time></trkpt><trkpt lat="41.14759393995182" lon="16.77068428024028"><ele>29.0</ele><time>2026-04-11T12:29:53Z</time></trkpt><trkpt lat="41.14767191054318" lon="16.77069055241494"><ele>29.0</ele><time>2026-04-11T12:30:05Z</time></trkpt><trkpt lat="41.14760791070927" lon="16.770645161110448"><ele>28.999999999999996</ele><time>2026-04-11T12:31:32.999Z</time></trkpt><trkpt lat="41.14756240380492" lon="16.770577218696964"><ele>29.0</ele><time>2026-04-11T12:36:53Z</time></trkpt><trkpt lat="41.14766415732241" lon="16.770481112807506"><ele>28.999999999999996</ele><time>2026-04-11T12:38:20Z</time></trkpt><trkpt lat="41.147744378061134" lon="16.770499004171448"><ele>29.0</ele><time>2026-04-11T12:38:21Z</time></trkpt><trkpt lat="41.147825145387614" lon="16.770514299908168"><ele>29.0</ele><time>2026-04-11T12:38:22Z</time></trkpt><trkpt lat="41.14792053870349" lon="16.770520910224658"><ele>29.0</ele><time>2026-04-11T12:38:23Z</time></trkpt><trkpt lat="41.14800261705265" lon="16.770536059235532"><ele>28.999999999999996</ele><time>2026-04-11T12:38:24Z</time></trkpt><trkpt lat="41.148109793617195" lon="16.77052190106215"><ele>29.0</ele><time>2026-04-11T12:38:26Z</time></trkpt><trkpt lat="41.148187551296836" lon="16.77051484951955"><ele>29.0</ele><time>2026-04-11T12:38:28Z</time></trkpt><trkpt lat="41.148251836185544" lon="16.77051140268924"><ele>29.0</ele><time>2026-04-11T12:38:43Z</time></trkpt><trkpt lat="41.14833238692313" lon="16.77051937306347"><ele>29.0</ele><time>2026-04-11T12:39:21Z</time></trkpt><trkpt lat="41.14843253527741" lon="16.770398131040473"><ele>29.0</ele><time>2026-04-11T12:39:23Z</time></trkpt><trkpt lat="41.14849382503221" lon="16.7702968474831"><ele>29.0</ele><time>2026-04-11T12:39:24Z</time></trkpt><trkpt lat="41.148566473295126" lon="16.770173783790703"><ele>29.0</ele><time>2026-04-11T12:39:25Z</time></trkpt><trkpt lat="41.148608447716946" lon="16.770061244709048"><ele>29.0</ele><time>2026-04-11T12:39:26Z</time></trkpt><trkpt lat="41.1486630388759" lon="16.769961374083014"><ele>29.0</ele><time>2026-04-11T12:39:28Z</time></trkpt><trkpt lat="41.14869874008757" lon="16.769843373157688"><ele>29.0</ele><time>2026-04-11T12:40:10.999Z</time></trkpt><trkpt lat="41.148759006827156" lon="16.769739190062015"><ele>29.0</ele><time>2026-04-11T12:40:11.999Z</time></trkpt><trkpt lat="41.14883654994933" lon="16.769597764863207"><ele>29.0</ele><time>2026-04-11T12:40:12.999Z</time></trkpt><trkpt lat="41.14889992587033" lon="16.76945721917193"><ele>29.0</ele><time>2026-04-11T12:40:13.999Z</time></trkpt><trkpt lat="41.14896376562925" lon="16.769320488811385"><ele>29.0</ele><time>2026-04-11T12:40:14.999Z</time></trkpt><trkpt lat="41.14903383929911" lon="16.769155774347855"><ele>29.0</ele><time>2026-04-11T12:40:15.999Z</time></trkpt><trkpt lat="41.14912397533189" lon="16.76900838339193"><ele>28.799999999999997</ele><time>2026-04-11T12:40:16.999Z</time></trkpt><trkpt lat="41.149178346562394" lon="16.768881648867527"><ele>28.599999999999998</ele><time>2026-04-11T12:40:17.999Z</time></trkpt><trkpt lat="41.1492265456376" lon="16.768787024734916"><ele>28.4</ele><time>2026-04-11T12:40:18.999Z</time></trkpt><trkpt lat="41.14923366341949" lon="16.768695970115285"><ele>28.2</ele><time>2026-04-11T12:40:19.999Z</time></trkpt><trkpt lat="41.14919113510618" lon="16.76855266628912"><ele>28.0</ele><time>2026-04-11T12:40:22Z</time></trkpt><trkpt lat="41.14904263836141" lon="16.768536119313108"><ele>28.5</ele><time>2026-04-11T12:40:23Z</time></trkpt><trkpt lat="41.14892971698196" lon="16.76848855619571"><ele>29.0</ele><time>2026-04-11T12:40:24Z</time></trkpt><trkpt lat="41.14879312192778" lon="16.768420520376573"><ele>29.5</ele><time>2026-04-11T12:40:25Z</time></trkpt><trkpt lat="41.14862630276059" lon="16.768344006044988"><ele>30.0</ele><time>2026-04-11T12:40:26Z</time></trkpt><trkpt lat="41.14844259835347" lon="16.768253344812948"><ele>30.0</ele><time>2026-04-11T12:40:27Z</time></trkpt><trkpt lat="41.148237273955615" lon="16.768136799454012"><ele>30.0</ele><time>2026-04-11T12:40:28Z</time></trkpt><trkpt lat="41.14802030897718" lon="16.768046199513833"><ele>30.666666666666664</ele><time>2026-04-11T12:40:29Z</time></trkpt><trkpt lat="41.14784053286974" lon="16.767943797351005"><ele>31.333333333333332</ele><time>2026-04-11T12:40:30Z</time></trkpt><trkpt lat="41.14768306090489" lon="16.767842942449914"><ele>32.0</ele><time>2026-04-11T12:40:31Z</time></trkpt><trkpt lat="41.147568227865634" lon="16.767713204725254"><ele>32.0</ele><time>2026-04-11T12:40:32Z</time></trkpt><trkpt lat="41.147470986251264" lon="16.767559599681256"><ele>32.0</ele><time>2026-04-11T12:40:33Z</time></trkpt><trkpt lat="41.147405874279066" lon="16.76737401014234"><ele>32.0</ele><time>2026-04-11T12:40:34Z</time></trkpt><trkpt lat="41.147363319150216" lon="16.767170758495602"><ele>32.0</ele><time>2026-04-11T12:40:35Z</time></trkpt><trkpt lat="41.14728358360109" lon="16.766959472494154"><ele>32.0</ele><time>2026-04-11T12:40:36Z</time></trkpt><trkpt lat="41.147191523659615" lon="16.76675494858061"><ele>32.0</ele><time>2026-04-11T12:40:37Z</time></trkpt><trkpt lat="41.14706195729835" lon="16.766570516372138"><ele>32.0</ele><time>2026-04-11T12:40:38Z</time></trkpt><trkpt lat="41.14690627821595" lon="16.76638606563233"><ele>32.0</ele><time>2026-04-11T12:40:39Z</time></trkpt><trkpt lat="41.14673968541838" lon="16.766184192013572"><ele>32.0</ele><time>2026-04-11T12:40:40Z</time></trkpt><trkpt lat="41.146591099674" lon="16.76598856208573"><ele>33.0</ele><time>2026-04-11T12:40:41Z</time></trkpt><trkpt lat="41.14646564968059" lon="16.765820513798502"><ele>34.0</ele><time>2026-04-11T12:40:42Z</time></trkpt><trkpt lat="41.14634554080521" lon="16.765683573108976"><ele>35.0</ele><time>2026-04-11T12:40:43Z</time></trkpt><trkpt lat="41.14622368548641" lon="16.76560193798329"><ele>35.0</ele><time>2026-04-11T12:40:44Z</time></trkpt><trkpt lat="41.146092835388735" lon="16.76556617244093"><ele>35.0</ele><time>2026-04-11T12:40:45Z</time></trkpt><trkpt lat="41.14596510449752" lon="16.76559828210578"><ele>35.0</ele><time>2026-04-11T12:40:46Z</time></trkpt><trkpt lat="41.145847883681505" lon="16.765666990830887"><ele>35.0</ele><time>2026-04-11T12:40:47Z</time></trkpt><trkpt lat="41.145734814373434" lon="16.76577453002027"><ele>35.0</ele><time>2026-04-11T12:40:48Z</time></trkpt><trkpt lat="41.14562171155891" lon="16.765931507134223"><ele>35.0</ele><time>2026-04-11T12:40:49Z</time></trkpt><trkpt lat="41.145497092914724" lon="16.766103938104965"><ele>35.0</ele><time>2026-04-11T12:40:50Z</time></trkpt><trkpt lat="41.14534563134717" lon="16.76629310717164"><ele>35.33333333333333</ele><time>2026-04-11T12:40:51Z</time></trkpt><trkpt lat="41.14518762287491" lon="16.76648273525315"><ele>35.666666666666664</ele><time>2026-04-11T12:40:52Z</time></trkpt><trkpt lat="41.14506043026321" lon="16.766641436199645"><ele>36.0</ele><time>2026-04-11T12:40:53Z</time></trkpt><trkpt lat="41.144931768251915" lon="16.76679712768337"><ele>35.666666666666664</ele><time>2026-04-11T12:40:54Z</time></trkpt><trkpt lat="41.14478263164702" lon="16.76695759571162"><ele>35.33333333333333</ele><time>2026-04-11T12:40:55Z</time></trkpt><trkpt lat="41.144623864093646" lon="16.76712379231586"><ele>35.0</ele><time>2026-04-11T12:40:56Z</time></trkpt><trkpt lat="41.144473983042914" lon="16.76730063147971"><ele>35.0</ele><time>2026-04-11T12:40:57Z</time></trkpt><trkpt lat="41.14436021484425" lon="16.767460913105698"><ele>35.0</ele><time>2026-04-11T12:40:58Z</time></trkpt><trkpt lat="41.14426024629745" lon="16.76756626160585"><ele>35.0</ele><time>2026-04-11T12:40:59Z</time></trkpt><trkpt lat="41.144182417748844" lon="16.76769845792421"><ele>35.0</ele><time>2026-04-11T12:41:00Z</time></trkpt><trkpt lat="41.144094260162426" lon="16.767812006872976"><ele>34.0</ele><time>2026-04-11T12:41:01Z</time></trkpt><trkpt lat="41.1440161106503" lon="16.767920690566722"><ele>33.0</ele><time>2026-04-11T12:41:02Z</time></trkpt><trkpt lat="41.14394221630101" lon="16.768031806621163"><ele>32.0</ele><time>2026-04-11T12:41:03Z</time></trkpt><trkpt lat="41.14385851245306" lon="16.768163604540423"><ele>31.0</ele><time>2026-04-11T12:41:04Z</time></trkpt><trkpt lat="41.143772763476306" lon="16.768314211329105"><ele>31.0</ele><time>2026-04-11T12:41:05Z</time></trkpt><trkpt lat="41.143623052276034" lon="16.76837935521684"><ele>31.0</ele><time>2026-04-11T12:41:06Z</time></trkpt><trkpt lat="41.14350455555533" lon="16.768426567226058"><ele>31.0</ele><time>2026-04-11T12:41:07Z</time></trkpt><trkpt lat="41.143354457305534" lon="16.768418655564968"><ele>31.0</ele><time>2026-04-11T12:41:08Z</time></trkpt><trkpt lat="41.14321493637636" lon="16.768352298683592"><ele>31.333333333333336</ele><time>2026-04-11T12:41:09Z</time></trkpt><trkpt lat="41.14308710013064" lon="16.768242814395517"><ele>31.666666666666664</ele><time>2026-04-11T12:41:10Z</time></trkpt><trkpt lat="41.14296584463873" lon="16.768083254468788"><ele>32.0</ele><time>2026-04-11T12:41:11Z</time></trkpt><trkpt lat="41.14284704206861" lon="16.767901972445436"><ele>32.0</ele><time>2026-04-11T12:41:12Z</time></trkpt><trkpt lat="41.14271457936439" lon="16.767715643636684"><ele>32.0</ele><time>2026-04-11T12:41:13Z</time></trkpt><trkpt lat="41.14255079448" lon="16.767498679636475"><ele>32.0</ele><time>2026-04-11T12:41:14Z</time></trkpt><trkpt lat="41.142392609556964" lon="16.767256930457116"><ele>33.5</ele><time>2026-04-11T12:41:15Z</time></trkpt><trkpt lat="41.14224029205097" lon="16.767016909764926"><ele>35.0</ele><time>2026-04-11T12:41:16Z</time></trkpt><trkpt lat="41.14212224024953" lon="16.766708781146917"><ele>35.0</ele><time>2026-04-11T12:41:17Z</time></trkpt><trkpt lat="41.14201641574948" lon="16.766401878131077"><ele>35.0</ele><time>2026-04-11T12:41:18Z</time></trkpt><trkpt lat="41.1419115576269" lon="16.76608142575388"><ele>35.5</ele><time>2026-04-11T12:41:19Z</time></trkpt><trkpt lat="41.14182360531309" lon="16.765774523467112"><ele>36.0</ele><time>2026-04-11T12:41:20Z</time></trkpt><trkpt lat="41.14172131177426" lon="16.765471507397002"><ele>36.0</ele><time>2026-04-11T12:41:21Z</time></trkpt><trkpt lat="41.14162034312962" lon="16.765177968965393"><ele>36.0</ele><time>2026-04-11T12:41:22Z</time></trkpt><trkpt lat="41.1415370750037" lon="16.764886760581607"><ele>36.0</ele><time>2026-04-11T12:41:23Z</time></trkpt><trkpt lat="41.14145307220997" lon="16.764600173492948"><ele>36.0</ele><time>2026-04-11T12:41:24Z</time></trkpt><trkpt lat="41.14136865986709" lon="16.764314591129626"><ele>36.0</ele><time>2026-04-11T12:41:25Z</time></trkpt><trkpt lat="41.14128630679948" lon="16.764032075475498"><ele>36.0</ele><time>2026-04-11T12:41:26Z</time></trkpt><trkpt lat="41.14120501177175" lon="16.76375485900816"><ele>36.666666666666664</ele><time>2026-04-11T12:41:27Z</time></trkpt><trkpt lat="41.14112927246297" lon="16.76349748356349"><ele>37.33333333333333</ele><time>2026-04-11T12:41:28Z</time></trkpt><trkpt lat="41.141060985143284" lon="16.76326531834724"><ele>38.0</ele><time>2026-04-11T12:41:29Z</time></trkpt><trkpt lat="41.1410003519532" lon="16.763053283551077"><ele>38.0</ele><time>2026-04-11T12:41:30Z</time></trkpt><trkpt lat="41.14095684878305" lon="16.762839282807963"><ele>38.0</ele><time>2026-04-11T12:41:31Z</time></trkpt><trkpt lat="41.140893293096354" lon="16.762654932657163"><ele>38.0</ele><time>2026-04-11T12:41:32Z</time></trkpt><trkpt lat="41.14085461598973" lon="16.76251998031126"><ele>38.0</ele><time>2026-04-11T12:41:33Z</time></trkpt><trkpt lat="41.141096895596846" lon="16.762319675944763"><ele>38.0</ele><time>2026-04-11T12:41:34Z</time></trkpt><trkpt lat="41.141179163370985" lon="16.76217753634192"><ele>38.0</ele><time>2026-04-11T12:41:35Z</time></trkpt><trkpt lat="41.1413148414573" lon="16.7621301829152"><ele>38.0</ele><time>2026-04-11T12:41:36Z</time></trkpt><trkpt lat="41.141453755628795" lon="16.762057538502752"><ele>38.0</ele><time>2026-04-11T12:41:37Z</time></trkpt><trkpt lat="41.141606241554804" lon="16.761990487926543"><ele>38.33333333333333</ele><time>2026-04-11T12:41:38Z</time></trkpt><trkpt lat="41.14176749204937" lon="16.761896178436878"><ele>38.666666666666664</ele><time>2026-04-11T12:41:39Z</time></trkpt><trkpt lat="41.14194395735223" lon="16.761812153261534"><ele>39.0</ele><time>2026-04-11T12:41:40Z</time></trkpt><trkpt lat="41.14212264121291" lon="16.761721546342446"><ele>39.0</ele><time>2026-04-11T12:41:41Z</time></trkpt><trkpt lat="41.142310963916195" lon="16.761639555044347"><ele>39.0</ele><time>2026-04-11T12:41:42Z</time></trkpt><trkpt lat="41.14249931345801" lon="16.761572591954877"><ele>39.0</ele><time>2026-04-11T12:41:43Z</time></trkpt><trkpt lat="41.14269277000576" lon="16.761556311714067"><ele>39.0</ele><time>2026-04-11T12:41:44Z</time></trkpt><trkpt lat="41.142882446250304" lon="16.7615139210492"><ele>39.0</ele><time>2026-04-11T12:41:45Z</time></trkpt><trkpt lat="41.14307371467282" lon="16.761518960463476"><ele>39.0</ele><time>2026-04-11T12:41:46Z</time></trkpt><trkpt lat="41.14326265803882" lon="16.76153389596593"><ele>39.333333333333336</ele><time>2026-04-11T12:41:47Z</time></trkpt><trkpt lat="41.1434484583607" lon="16.761570546736376"><ele>39.66666666666667</ele><time>2026-04-11T12:41:48Z</time></trkpt><trkpt lat="41.14363500745663" lon="16.761629455784096"><ele>40.0</ele><time>2026-04-11T12:41:48.999Z</time></trkpt><trkpt lat="41.14382109482272" lon="16.761712503697623"><ele>40.0</ele><time>2026-04-11T12:41:49.999Z</time></trkpt><trkpt lat="41.14399277617969" lon="16.761818029200672"><ele>40.0</ele><time>2026-04-11T12:41:50.999Z</time></trkpt><trkpt lat="41.14415466982047" lon="16.761946436513476"><ele>40.0</ele><time>2026-04-11T12:41:51.999Z</time></trkpt><trkpt lat="41.14429497719364" lon="16.76207085070508"><ele>39.25</ele><time>2026-04-11T12:41:52.999Z</time></trkpt><trkpt lat="41.14442418663239" lon="16.762179621227144"><ele>38.5</ele><time>2026-04-11T12:41:53.999Z</time></trkpt><trkpt lat="41.14453982915699" lon="16.76226988976161"><ele>37.75</ele><time>2026-04-11T12:41:54.999Z</time></trkpt><trkpt lat="41.14463547743611" lon="16.762355677940203"><ele>37.0</ele><time>2026-04-11T12:41:55.999Z</time></trkpt><trkpt lat="41.14471975439146" lon="16.762433192944155"><ele>37.0</ele><time>2026-04-11T12:41:56.999Z</time></trkpt><trkpt lat="41.14479034440619" lon="16.762497360044687"><ele>37.0</ele><time>2026-04-11T12:41:57.999Z</time></trkpt><trkpt lat="41.14487538902875" lon="16.762577563226507"><ele>37.0</ele><time>2026-04-11T12:41:59.999Z</time></trkpt><trkpt lat="41.14497285362664" lon="16.76237516622071"><ele>37.0</ele><time>2026-04-11T12:42:02.999Z</time></trkpt><trkpt lat="41.144972011971014" lon="16.762240516392424"><ele>37.333333333333336</ele><time>2026-04-11T12:42:03.999Z</time></trkpt><trkpt lat="41.14496538983397" lon="16.76206469112563"><ele>37.666666666666664</ele><time>2026-04-11T12:42:04.999Z</time></trkpt><trkpt lat="41.144995754518284" lon="16.76185177469694"><ele>38.0</ele><time>2026-04-11T12:42:05.999Z</time></trkpt><trkpt lat="41.14503314402106" lon="16.76160857528894"><ele>38.0</ele><time>2026-04-11T12:42:06.999Z</time></trkpt><trkpt lat="41.145101319636" lon="16.76134506722057"><ele>38.0</ele><time>2026-04-11T12:42:07.999Z</time></trkpt><trkpt lat="41.14518822063417" lon="16.761061008846557"><ele>38.0</ele><time>2026-04-11T12:42:08.999Z</time></trkpt><trkpt lat="41.145286472693115" lon="16.76076520854275"><ele>38.0</ele><time>2026-04-11T12:42:09.999Z</time></trkpt><trkpt lat="41.145391950461956" lon="16.760446176635682"><ele>38.0</ele><time>2026-04-11T12:42:10.999Z</time></trkpt><trkpt lat="41.145497716879824" lon="16.76010625642738"><ele>38.0</ele><time>2026-04-11T12:42:11.999Z</time></trkpt><trkpt lat="41.14561643600615" lon="16.759775620785454"><ele>38.0</ele><time>2026-04-11T12:42:12.999Z</time></trkpt><trkpt lat="41.14572080671144" lon="16.75946437717144"><ele>37.0</ele><time>2026-04-11T12:42:13.999Z</time></trkpt><trkpt lat="41.14582438978806" lon="16.759162950899952"><ele>36.0</ele><time>2026-04-11T12:42:14.999Z</time></trkpt><trkpt lat="41.145925995815965" lon="16.758872815434287"><ele>36.0</ele><time>2026-04-11T12:42:15.999Z</time></trkpt><trkpt lat="41.14603947262509" lon="16.758585233959426"><ele>36.0</ele><time>2026-04-11T12:42:16.999Z</time></trkpt><trkpt lat="41.14615459054131" lon="16.758300636688478"><ele>36.0</ele><time>2026-04-11T12:42:17.999Z</time></trkpt><trkpt lat="41.14626595906596" lon="16.75801885229169"><ele>36.0</ele><time>2026-04-11T12:42:18.999Z</time></trkpt><trkpt lat="41.14636561595491" lon="16.757768036238282"><ele>35.666666666666664</ele><time>2026-04-11T12:42:19.999Z</time></trkpt><trkpt lat="41.14646330607865" lon="16.757525940538603"><ele>35.33333333333333</ele><time>2026-04-11T12:42:20.999Z</time></trkpt><trkpt lat="41.14653093337417" lon="16.757288179253855"><ele>35.0</ele><time>2026-04-11T12:42:21.999Z</time></trkpt><trkpt lat="41.14659123907662" lon="16.757089976766732"><ele>35.0</ele><time>2026-04-11T12:42:22.999Z</time></trkpt><trkpt lat="41.14665104204138" lon="16.756895406740036"><ele>35.0</ele><time>2026-04-11T12:42:23.999Z</time></trkpt><trkpt lat="41.146706859384494" lon="16.756707511587436"><ele>35.0</ele><time>2026-04-11T12:42:24.999Z</time></trkpt><trkpt lat="41.146778450943984" lon="16.756532531771505"><ele>35.2</ele><time>2026-04-11T12:42:25.999Z</time></trkpt><trkpt lat="41.146823052752154" lon="16.756371644284147"><ele>35.4</ele><time>2026-04-11T12:42:27Z</time></trkpt><trkpt lat="41.14686558885046" lon="16.756242594865263"><ele>35.6</ele><time>2026-04-11T12:42:28Z</time></trkpt><trkpt lat="41.14689032665291" lon="16.75613915658016"><ele>35.8</ele><time>2026-04-11T12:42:29Z</time></trkpt><trkpt lat="41.146910717586806" lon="16.75599781827448"><ele>36.0</ele><time>2026-04-11T12:42:31Z</time></trkpt><trkpt lat="41.1469309214885" lon="16.7559114000094"><ele>36.2</ele><time>2026-04-11T12:42:33Z</time></trkpt><trkpt lat="41.14696555850135" lon="16.755806827866387"><ele>36.400000000000006</ele><time>2026-04-11T12:42:37Z</time></trkpt><trkpt lat="41.14699848525236" lon="16.75568899924375"><ele>36.6</ele><time>2026-04-11T12:42:39Z</time></trkpt><trkpt lat="41.14701968744224" lon="16.755593436318815"><ele>36.800000000000004</ele><time>2026-04-11T12:42:41Z</time></trkpt><trkpt lat="41.147119083319296" lon="16.755601132879704"><ele>37.0</ele><time>2026-04-11T12:42:42Z</time></trkpt><trkpt lat="41.147005882107145" lon="16.75544816948814"><ele>37.66666666666667</ele><time>2026-04-11T12:42:45Z</time></trkpt><trkpt lat="41.147094636244226" lon="16.755185520094926"><ele>38.333333333333336</ele><time>2026-04-11T12:42:57Z</time></trkpt><trkpt lat="41.14715444247882" lon="16.755008368938935"><ele>39.0</ele><time>2026-04-11T12:42:58Z</time></trkpt><trkpt lat="41.14723155109688" lon="16.75477996665316"><ele>39.0</ele><time>2026-04-11T12:42:59Z</time></trkpt><trkpt lat="41.14731931597519" lon="16.754524144808542"><ele>39.0</ele><time>2026-04-11T12:43:00Z</time></trkpt><trkpt lat="41.14740581905164" lon="16.75426963584752"><ele>39.0</ele><time>2026-04-11T12:43:01Z</time></trkpt><trkpt lat="41.147488430842756" lon="16.754025814564002"><ele>38.333333333333336</ele><time>2026-04-11T12:43:02Z</time></trkpt><trkpt lat="41.14755906677856" lon="16.753819605513794"><ele>37.66666666666667</ele><time>2026-04-11T12:43:03Z</time></trkpt><trkpt lat="41.147624712981255" lon="16.753626687018908"><ele>37.0</ele><time>2026-04-11T12:43:04Z</time></trkpt><trkpt lat="41.147685694392365" lon="16.753446888883538"><ele>37.0</ele><time>2026-04-11T12:43:05Z</time></trkpt><trkpt lat="41.14774073031395" lon="16.75328462051312"><ele>37.0</ele><time>2026-04-11T12:43:06Z</time></trkpt><trkpt lat="41.14779051219378" lon="16.753137843226128"><ele>37.0</ele><time>2026-04-11T12:43:07Z</time></trkpt><trkpt lat="41.14782695990326" lon="16.753030380517973"><ele>37.0</ele><time>2026-04-11T12:43:08Z</time></trkpt><trkpt lat="41.14810597751059" lon="16.753145536341815"><ele>37.0</ele><time>2026-04-11T12:43:12Z</time></trkpt><trkpt lat="41.14819922388153" lon="16.753249867489483"><ele>37.0</ele><time>2026-04-11T12:43:14Z</time></trkpt><trkpt lat="41.14827975114974" lon="16.753361727076612"><ele>37.0</ele><time>2026-04-11T12:43:16Z</time></trkpt><trkpt lat="41.1483343951597" lon="16.753412192028943"><ele>37.0</ele><time>2026-04-11T12:43:17Z</time></trkpt><trkpt lat="41.148439422645716" lon="16.753480213673594"><ele>37.0</ele><time>2026-04-11T12:43:19Z</time></trkpt><trkpt lat="41.14853237103565" lon="16.753548471922457"><ele>36.16666666666667</ele><time>2026-04-11T12:43:21Z</time></trkpt><trkpt lat="41.14861110707132" lon="16.7535834345524"><ele>35.333333333333336</ele><time>2026-04-11T12:43:23Z</time></trkpt><trkpt lat="41.14870608651754" lon="16.753624620141675"><ele>34.5</ele><time>2026-04-11T12:43:25Z</time></trkpt><trkpt lat="41.148801634540604" lon="16.753693991308715"><ele>33.666666666666664</ele><time>2026-04-11T12:43:27Z</time></trkpt><trkpt lat="41.14885686558591" lon="16.753744432227464"><ele>32.83333333333333</ele><time>2026-04-11T12:43:28Z</time></trkpt><trkpt lat="41.14892288930158" lon="16.753804353376555"><ele>32.0</ele><time>2026-04-11T12:43:29Z</time></trkpt><trkpt lat="41.148980783829494" lon="16.753855306384143"><ele>32.4</ele><time>2026-04-11T12:43:30Z</time></trkpt><trkpt lat="41.149080214918826" lon="16.75389541812676"><ele>32.800000000000004</ele><time>2026-04-11T12:43:32Z</time></trkpt><trkpt lat="41.14917256637626" lon="16.753930575357938"><ele>33.2</ele><time>2026-04-11T12:43:34Z</time></trkpt><trkpt lat="41.149237218486924" lon="16.753988517077143"><ele>33.6</ele><time>2026-04-11T12:43:36Z</time></trkpt><trkpt lat="41.14929992151175" lon="16.75399786596284"><ele>34.0</ele><time>2026-04-11T12:43:38Z</time></trkpt><trkpt lat="41.14941925028872" lon="16.754046010159712"><ele>34.0</ele><time>2026-04-11T12:43:40Z</time></trkpt><trkpt lat="41.149482902209854" lon="16.75405753266319"><ele>34.0</ele><time>2026-04-11T12:43:40.999Z</time></trkpt><trkpt lat="41.149534984458604" lon="16.753979955597494"><ele>34.0</ele><time>2026-04-11T12:43:42.999Z</time></trkpt><trkpt lat="41.14951237817222" lon="16.75389380777573"><ele>34.0</ele><time>2026-04-11T12:43:43.999Z</time></trkpt><trkpt lat="41.149462758124145" lon="16.753774766863717"><ele>34.0</ele><time>2026-04-11T12:43:44.999Z</time></trkpt><trkpt lat="41.14940757828528" lon="16.75363178000786"><ele>34.0</ele><time>2026-04-11T12:43:45.999Z</time></trkpt><trkpt lat="41.149367846137196" lon="16.753514785154557"><ele>33.66666666666667</ele><time>2026-04-11T12:43:46.999Z</time></trkpt><trkpt lat="41.14937626454559" lon="16.753386754899374"><ele>33.333333333333336</ele><time>2026-04-11T12:43:48.999Z</time></trkpt><trkpt lat="41.14945447603152" lon="16.75335542120867"><ele>33.0</ele><time>2026-04-11T12:43:50.999Z</time></trkpt><trkpt lat="41.149533309571645" lon="16.75338930761033"><ele>32.666666666666664</ele><time>2026-04-11T12:43:52.999Z</time></trkpt><trkpt lat="41.149595493609866" lon="16.753416874313757"><ele>32.33333333333333</ele><time>2026-04-11T12:43:54.999Z</time></trkpt><trkpt lat="41.14968390127935" lon="16.75335811030101"><ele>32.0</ele><time>2026-04-11T12:43:56.999Z</time></trkpt><trkpt lat="41.14977431498836" lon="16.75324692958795"><ele>32.0</ele><time>2026-04-11T12:43:58.999Z</time></trkpt><trkpt lat="41.14984528365118" lon="16.753130211078776"><ele>32.0</ele><time>2026-04-11T12:44:00.999Z</time></trkpt><trkpt lat="41.14990493754124" lon="16.75302300689821"><ele>32.0</ele><time>2026-04-11T12:44:02.999Z</time></trkpt><trkpt lat="41.14996417817505" lon="16.752926990431064"><ele>32.0</ele><time>2026-04-11T12:44:04.999Z</time></trkpt><trkpt lat="41.150042591634715" lon="16.752820419100598"><ele>32.0</ele><time>2026-04-11T12:44:06.999Z</time></trkpt><trkpt lat="41.15008666228924" lon="16.75275930720928"><ele>31.666666666666664</ele><time>2026-04-11T12:44:07.999Z</time></trkpt><trkpt lat="41.15015739026275" lon="16.752637169946944"><ele>31.333333333333332</ele><time>2026-04-11T12:44:09.999Z</time></trkpt><trkpt lat="41.15020863889867" lon="16.752574120649683"><ele>31.0</ele><time>2026-04-11T12:44:10.999Z</time></trkpt><trkpt lat="41.15028632686909" lon="16.75250704341151"><ele>30.666666666666664</ele><time>2026-04-11T12:44:12.999Z</time></trkpt><trkpt lat="41.15034383232194" lon="16.75247177071347"><ele>30.333333333333332</ele><time>2026-04-11T12:44:14.999Z</time></trkpt><trkpt lat="41.150396195824115" lon="16.752404817065933"><ele>30.0</ele><time>2026-04-11T12:44:16.999Z</time></trkpt><trkpt lat="41.15046212079549" lon="16.752327673307267"><ele>30.0</ele><time>2026-04-11T12:44:18.999Z</time></trkpt><trkpt lat="41.15051677602677" lon="16.75228260751195"><ele>30.0</ele><time>2026-04-11T12:44:20.999Z</time></trkpt><trkpt lat="41.15056599621415" lon="16.752195264846844"><ele>30.0</ele><time>2026-04-11T12:44:22.999Z</time></trkpt><trkpt lat="41.15061923040162" lon="16.752023633926363"><ele>30.0</ele><time>2026-04-11T12:44:24.999Z</time></trkpt><trkpt lat="41.150623131482625" lon="16.75190011165665"><ele>30.0</ele><time>2026-04-11T12:44:25.999Z</time></trkpt><trkpt lat="41.150615399464286" lon="16.751757564061407"><ele>30.25</ele><time>2026-04-11T12:44:26.999Z</time></trkpt><trkpt lat="41.15061054168012" lon="16.751613584224206"><ele>30.5</ele><time>2026-04-11T12:44:27.999Z</time></trkpt><trkpt lat="41.150610631298626" lon="16.751457871479875"><ele>30.75</ele><time>2026-04-11T12:44:28.999Z</time></trkpt><trkpt lat="41.15061446918585" lon="16.75129900218344"><ele>31.0</ele><time>2026-04-11T12:44:29.999Z</time></trkpt><trkpt lat="41.1506169262447" lon="16.751155592104997"><ele>31.6</ele><time>2026-04-11T12:44:30.999Z</time></trkpt><trkpt lat="41.150618342352644" lon="16.751015037717394"><ele>32.2</ele><time>2026-04-11T12:44:31.999Z</time></trkpt><trkpt lat="41.15061808223968" lon="16.750875038834767"><ele>32.8</ele><time>2026-04-11T12:44:33Z</time></trkpt><trkpt lat="41.15061367240437" lon="16.75073721921593"><ele>33.4</ele><time>2026-04-11T12:44:34Z</time></trkpt><trkpt lat="41.150612045613954" lon="16.750599697267372"><ele>34.0</ele><time>2026-04-11T12:44:35Z</time></trkpt><trkpt lat="41.1506093721973" lon="16.750460689979942"><ele>34.0</ele><time>2026-04-11T12:44:36Z</time></trkpt><trkpt lat="41.150606266559805" lon="16.750326377004807"><ele>34.0</ele><time>2026-04-11T12:44:37Z</time></trkpt><trkpt lat="41.15060565122012" lon="16.750198576685957"><ele>34.0</ele><time>2026-04-11T12:44:38Z</time></trkpt><trkpt lat="41.15060817043385" lon="16.750078438590897"><ele>34.0</ele><time>2026-04-11T12:44:39Z</time></trkpt><trkpt lat="41.15061155364486" lon="16.749964977215498"><ele>34.0</ele><time>2026-04-11T12:44:40Z</time></trkpt><trkpt lat="41.150612610648366" lon="16.7498605907546"><ele>34.16666666666667</ele><time>2026-04-11T12:44:41Z</time></trkpt><trkpt lat="41.15061593148515" lon="16.74976332930339"><ele>34.333333333333336</ele><time>2026-04-11T12:44:42Z</time></trkpt><trkpt lat="41.1506233791097" lon="16.749676772017505"><ele>34.5</ele><time>2026-04-11T12:44:43Z</time></trkpt><trkpt lat="41.150630630098135" lon="16.749554389042725"><ele>34.666666666666664</ele><time>2026-04-11T12:44:45Z</time></trkpt><trkpt lat="41.15063113900995" lon="16.749461564105196"><ele>34.83333333333333</ele><time>2026-04-11T12:44:48Z</time></trkpt><trkpt lat="41.150632864143745" lon="16.74937266539772"><ele>35.0</ele><time>2026-04-11T12:44:52Z</time></trkpt><trkpt lat="41.15058803974069" lon="16.749476225227696"><ele>35.0</ele><time>2026-04-11T12:44:53Z</time></trkpt><trkpt lat="41.15049132279929" lon="16.749476225230392"><ele>35.0</ele><time>2026-04-11T12:44:55Z</time></trkpt><trkpt lat="41.15045666833756" lon="16.749112625938167"><ele>35.0</ele><time>2026-04-11T12:44:57Z</time></trkpt><trkpt lat="41.1504357938587" lon="16.749018819069114"><ele>35.0</ele><time>2026-04-11T12:44:58Z</time></trkpt><trkpt lat="41.15041282741226" lon="16.74893040020414"><ele>35.0</ele><time>2026-04-11T12:44:59Z</time></trkpt><trkpt lat="41.150397518128095" lon="16.748843544327105"><ele>35.0</ele><time>2026-04-11T12:44:59.999Z</time></trkpt><trkpt lat="41.15039499990965" lon="16.748751068424806"><ele>35.0</ele><time>2026-04-11T12:45:00.999Z</time></trkpt><trkpt lat="41.15037877438003" lon="16.748656124107026"><ele>35.0</ele><time>2026-04-11T12:45:01.999Z</time></trkpt><trkpt lat="41.15035044123704" lon="16.748575857541564"><ele>35.0</ele><time>2026-04-11T12:45:02.999Z</time></trkpt><trkpt lat="41.15031156803726" lon="16.748461075833916"><ele>35.0</ele><time>2026-04-11T12:45:04.999Z</time></trkpt><trkpt lat="41.15026940093464" lon="16.748371514586516"><ele>35.2</ele><time>2026-04-11T12:45:06.999Z</time></trkpt><trkpt lat="41.150141128384675" lon="16.74832154753234"><ele>35.4</ele><time>2026-04-11T12:45:08.999Z</time></trkpt><trkpt lat="41.150075939038565" lon="16.748294040423385"><ele>35.6</ele><time>2026-04-11T12:45:09.999Z</time></trkpt><trkpt lat="41.149949958338944" lon="16.748293856372676"><ele>35.8</ele><time>2026-04-11T12:45:11.999Z</time></trkpt><trkpt lat="41.14987613500899" lon="16.748316761747894"><ele>36.0</ele><time>2026-04-11T12:45:12.999Z</time></trkpt><trkpt lat="41.14980663594587" lon="16.748365967878104"><ele>36.6</ele><time>2026-04-11T12:45:13.999Z</time></trkpt><trkpt lat="41.14974443258093" lon="16.74842867861204"><ele>37.2</ele><time>2026-04-11T12:45:14.999Z</time></trkpt><trkpt lat="41.14968927792726" lon="16.748504114715033"><ele>37.8</ele><time>2026-04-11T12:45:15.999Z</time></trkpt><trkpt lat="41.14965218960978" lon="16.74857981002831"><ele>38.4</ele><time>2026-04-11T12:45:16.999Z</time></trkpt><trkpt lat="41.14959156404052" lon="16.748724070546068"><ele>39.0</ele><time>2026-04-11T12:45:18.999Z</time></trkpt><trkpt lat="41.149552755651605" lon="16.748862607080014"><ele>39.0</ele><time>2026-04-11T12:45:20.999Z</time></trkpt><trkpt lat="41.149518793063876" lon="16.748951430890973"><ele>39.0</ele><time>2026-04-11T12:45:22.999Z</time></trkpt><trkpt lat="41.14956261744117" lon="16.74905763652609"><ele>39.0</ele><time>2026-04-11T12:48:54Z</time></trkpt><trkpt lat="41.14962557058094" lon="16.749029285297688"><ele>39.0</ele><time>2026-04-11T12:48:55Z</time></trkpt><trkpt lat="41.149702298803085" lon="16.74894103771832"><ele>39.0</ele><time>2026-04-11T12:48:56Z</time></trkpt><trkpt lat="41.149801015830846" lon="16.748853846108656"><ele>38.2</ele><time>2026-04-11T12:48:57Z</time></trkpt><trkpt lat="41.14989176210861" lon="16.748773474503736"><ele>37.4</ele><time>2026-04-11T12:48:58Z</time></trkpt><trkpt lat="41.14996931498754" lon="16.74870755991718"><ele>36.6</ele><time>2026-04-11T12:48:59Z</time></trkpt><trkpt lat="41.15005655151395" lon="16.74868775849357"><ele>35.8</ele><time>2026-04-11T12:49:00Z</time></trkpt><trkpt lat="41.150133451713614" lon="16.748695641808382"><ele>35.0</ele><time>2026-04-11T12:49:01Z</time></trkpt><trkpt lat="41.15018763114102" lon="16.74878763900063"><ele>35.0</ele><time>2026-04-11T12:49:03Z</time></trkpt><trkpt lat="41.150147900523685" lon="16.748878870898018"><ele>35.0</ele><time>2026-04-11T12:49:04Z</time></trkpt><trkpt lat="41.15006846916312" lon="16.748948078985624"><ele>35.0</ele><time>2026-04-11T12:49:05Z</time></trkpt><trkpt lat="41.14997520713669" lon="16.74900280780661"><ele>35.0</ele><time>2026-04-11T12:49:06Z</time></trkpt><trkpt lat="41.14988271638913" lon="16.749040811706664"><ele>35.0</ele><time>2026-04-11T12:49:07Z</time></trkpt><trkpt lat="41.149773701186035" lon="16.74908401022563"><ele>35.0</ele><time>2026-04-11T12:49:08Z</time></trkpt><trkpt lat="41.1496819196993" lon="16.749113110656978"><ele>35.0</ele><time>2026-04-11T12:49:09Z</time></trkpt><trkpt lat="41.14960964169967" lon="16.749136771922718"><ele>35.0</ele><time>2026-04-11T12:49:10Z</time></trkpt><trkpt lat="41.149627202734784" lon="16.749218899102903"><ele>35.0</ele><time>2026-04-11T12:49:12Z</time></trkpt><trkpt lat="41.14971054988515" lon="16.749271340001908"><ele>35.0</ele><time>2026-04-11T12:49:13Z</time></trkpt><trkpt lat="41.14981305294373" lon="16.749287710021882"><ele>35.0</ele><time>2026-04-11T12:49:14Z</time></trkpt><trkpt lat="41.14991732183267" lon="16.74928866620669"><ele>35.0</ele><time>2026-04-11T12:49:15Z</time></trkpt><trkpt lat="41.150001995281336" lon="16.7492803342361"><ele>35.0</ele><time>2026-04-11T12:49:16Z</time></trkpt><trkpt lat="41.15009274226476" lon="16.749260940112936"><ele>35.0</ele><time>2026-04-11T12:49:17Z</time></trkpt><trkpt lat="41.1501846620997" lon="16.749225387943607"><ele>35.0</ele><time>2026-04-11T12:49:18Z</time></trkpt><trkpt lat="41.15025744984366" lon="16.749200432826996"><ele>35.0</ele><time>2026-04-11T12:49:19Z</time></trkpt><trkpt lat="41.15030215551831" lon="16.74908620539881"><ele>35.0</ele><time>2026-04-11T12:49:21Z</time></trkpt><trkpt lat="41.15030793008968" lon="16.748988096993422"><ele>35.0</ele><time>2026-04-11T12:49:22Z</time></trkpt><trkpt lat="41.1503127156837" lon="16.748848212289992"><ele>35.0</ele><time>2026-04-11T12:49:23Z</time></trkpt><trkpt lat="41.15031911080524" lon="16.748725531084375"><ele>35.0</ele><time>2026-04-11T12:49:24Z</time></trkpt><trkpt lat="41.15031049863786" lon="16.748612855108565"><ele>35.0</ele><time>2026-04-11T12:49:25Z</time></trkpt><trkpt lat="41.150293488650455" lon="16.748528905673073"><ele>35.0</ele><time>2026-04-11T12:49:26Z</time></trkpt><trkpt lat="41.15037460967786" lon="16.748609566743124"><ele>35.0</ele><time>2026-04-11T12:49:29Z</time></trkpt><trkpt lat="41.150394957395186" lon="16.748734240022007"><ele>35.0</ele><time>2026-04-11T12:49:30Z</time></trkpt><trkpt lat="41.1504060080844" lon="16.74886396842491"><ele>35.0</ele><time>2026-04-11T12:49:31Z</time></trkpt><trkpt lat="41.15043254312466" lon="16.74900476141449"><ele>35.0</ele><time>2026-04-11T12:49:32Z</time></trkpt><trkpt lat="41.15047083276744" lon="16.749157206760085"><ele>35.0</ele><time>2026-04-11T12:49:33Z</time></trkpt><trkpt lat="41.15051159641025" lon="16.74926895357353"><ele>35.0</ele><time>2026-04-11T12:49:34Z</time></trkpt><trkpt lat="41.150572804993935" lon="16.749378248450768"><ele>35.0</ele><time>2026-04-11T12:49:36Z</time></trkpt><trkpt lat="41.15064238906293" lon="16.749361013871027"><ele>35.0</ele><time>2026-04-11T12:49:37Z</time></trkpt><trkpt lat="41.15072244160565" lon="16.749328661927255"><ele>35.0</ele><time>2026-04-11T12:49:38Z</time></trkpt><trkpt lat="41.15079360495462" lon="16.749295079619323"><ele>35.0</ele><time>2026-04-11T12:49:39Z</time></trkpt><trkpt lat="41.15087477357765" lon="16.749263850222945"><ele>35.0</ele><time>2026-04-11T12:49:40Z</time></trkpt><trkpt lat="41.1509610929143" lon="16.749249713949478"><ele>34.666666666666664</ele><time>2026-04-11T12:49:41Z</time></trkpt><trkpt lat="41.15105180599718" lon="16.74924824273595"><ele>34.33333333333333</ele><time>2026-04-11T12:49:42Z</time></trkpt><trkpt lat="41.151140863232875" lon="16.74926377038856"><ele>34.0</ele><time>2026-04-11T12:49:43Z</time></trkpt><trkpt lat="41.15120880268913" lon="16.74929328576936"><ele>33.666666666666664</ele><time>2026-04-11T12:49:44Z</time></trkpt><trkpt lat="41.151272892992864" lon="16.74925221937719"><ele>33.333333333333336</ele><time>2026-04-11T12:49:46Z</time></trkpt><trkpt lat="41.151290979962965" lon="16.74915735486318"><ele>33.0</ele><time>2026-04-11T12:49:47Z</time></trkpt><trkpt lat="41.15123699970357" lon="16.749071340213952"><ele>33.0</ele><time>2026-04-11T12:49:49Z</time></trkpt><trkpt lat="41.15113214780622" lon="16.74908128402051"><ele>33.0</ele><time>2026-04-11T12:49:51Z</time></trkpt><trkpt lat="41.15105831504863" lon="16.749098097758107"><ele>33.0</ele><time>2026-04-11T12:49:52Z</time></trkpt><trkpt lat="41.150962837589596" lon="16.74911521170601"><ele>33.0</ele><time>2026-04-11T12:49:53Z</time></trkpt><trkpt lat="41.150849226217346" lon="16.74912394213905"><ele>33.0</ele><time>2026-04-11T12:49:54Z</time></trkpt><trkpt lat="41.150739248604715" lon="16.749134156118835"><ele>33.333333333333336</ele><time>2026-04-11T12:49:55Z</time></trkpt><trkpt lat="41.15065441597333" lon="16.74916035533864"><ele>33.666666666666664</ele><time>2026-04-11T12:49:56Z</time></trkpt><trkpt lat="41.15056432465102" lon="16.74915757996712"><ele>34.0</ele><time>2026-04-11T12:49:58Z</time></trkpt><trkpt lat="41.15054532860467" lon="16.749075360746705"><ele>34.33333333333333</ele><time>2026-04-11T12:49:59Z</time></trkpt><trkpt lat="41.15052638417644" lon="16.748981177854958"><ele>34.666666666666664</ele><time>2026-04-11T12:50:00Z</time></trkpt><trkpt lat="41.15052679041871" lon="16.748895609594975"><ele>35.0</ele><time>2026-04-11T12:50:02Z</time></trkpt><trkpt lat="41.15062093021505" lon="16.748802740248916"><ele>34.666666666666664</ele><time>2026-04-11T12:50:04Z</time></trkpt><trkpt lat="41.15071286474088" lon="16.74883890490465"><ele>34.33333333333333</ele><time>2026-04-11T12:50:06Z</time></trkpt><trkpt lat="41.15078083569223" lon="16.748868632324086"><ele>34.0</ele><time>2026-04-11T12:50:07Z</time></trkpt><trkpt lat="41.15085472424095" lon="16.74892610823782"><ele>33.666666666666664</ele><time>2026-04-11T12:50:08Z</time></trkpt><trkpt lat="41.150948698354775" lon="16.749009956121004"><ele>33.333333333333336</ele><time>2026-04-11T12:50:09Z</time></trkpt><trkpt lat="41.15101468042758" lon="16.749064071982527"><ele>33.0</ele><time>2026-04-11T12:50:10Z</time></trkpt><trkpt lat="41.15113138761007" lon="16.749011755242158"><ele>33.0</ele><time>2026-04-11T12:50:12Z</time></trkpt><trkpt lat="41.151214692365386" lon="16.748962700349374"><ele>33.0</ele><time>2026-04-11T12:50:12.999Z</time></trkpt><trkpt lat="41.151289558830605" lon="16.748937024585786"><ele>33.0</ele><time>2026-04-11T12:50:13.999Z</time></trkpt><trkpt lat="41.151356889440834" lon="16.74893640504467"><ele>33.0</ele><time>2026-04-11T12:50:14.999Z</time></trkpt><trkpt lat="41.15145271738226" lon="16.748904157695925"><ele>33.0</ele><time>2026-04-11T12:50:16.999Z</time></trkpt><trkpt lat="41.15141179955184" lon="16.748819816367593"><ele>33.0</ele><time>2026-04-11T12:50:18.999Z</time></trkpt><trkpt lat="41.15135237666205" lon="16.7487834550225"><ele>33.0</ele><time>2026-04-11T12:50:19.999Z</time></trkpt><trkpt lat="41.151274990121806" lon="16.748750987330062"><ele>33.0</ele><time>2026-04-11T12:50:20.999Z</time></trkpt><trkpt lat="41.15117097709725" lon="16.7487180358206"><ele>33.0</ele><time>2026-04-11T12:50:21.999Z</time></trkpt><trkpt lat="41.15105956698291" lon="16.748665017699654"><ele>33.0</ele><time>2026-04-11T12:50:22.999Z</time></trkpt><trkpt lat="41.150963558445206" lon="16.74861310174793"><ele>33.0</ele><time>2026-04-11T12:50:23.999Z</time></trkpt><trkpt lat="41.150885845997124" lon="16.748578457684832"><ele>33.0</ele><time>2026-04-11T12:50:24.999Z</time></trkpt><trkpt lat="41.15081671262525" lon="16.748543802130182"><ele>33.0</ele><time>2026-04-11T12:50:25.999Z</time></trkpt><trkpt lat="41.15070009141331" lon="16.748497260969742"><ele>33.0</ele><time>2026-04-11T12:50:27.999Z</time></trkpt><trkpt lat="41.150638515263374" lon="16.748468690392812"><ele>33.0</ele><time>2026-04-11T12:50:28.999Z</time></trkpt><trkpt lat="41.15052359428556" lon="16.748446817516896"><ele>33.0</ele><time>2026-04-11T12:50:30.999Z</time></trkpt><trkpt lat="41.150415407311165" lon="16.74843859986311"><ele>33.6</ele><time>2026-04-11T12:50:33.999Z</time></trkpt><trkpt lat="41.150308668091505" lon="16.748413773830855"><ele>34.199999999999996</ele><time>2026-04-11T12:50:35.999Z</time></trkpt><trkpt lat="41.15022618062647" lon="16.748381955986904"><ele>34.8</ele><time>2026-04-11T12:50:36.999Z</time></trkpt><trkpt lat="41.15013294393464" lon="16.748334371916048"><ele>35.4</ele><time>2026-04-11T12:50:37.999Z</time></trkpt><trkpt lat="41.150023287380435" lon="16.74830578710719"><ele>36.0</ele><time>2026-04-11T12:50:38.999Z</time></trkpt><trkpt lat="41.14993868105236" lon="16.748302652416992"><ele>36.6</ele><time>2026-04-11T12:50:39.999Z</time></trkpt><trkpt lat="41.14986944380383" lon="16.748319394090448"><ele>37.2</ele><time>2026-04-11T12:50:40.999Z</time></trkpt><trkpt lat="41.149814952180485" lon="16.74838154994124"><ele>37.8</ele><time>2026-04-11T12:50:41.999Z</time></trkpt><trkpt lat="41.14975298551138" lon="16.748449654379495"><ele>38.4</ele><time>2026-04-11T12:50:42.999Z</time></trkpt><trkpt lat="41.14967031810857" lon="16.74857340098236"><ele>39.0</ele><time>2026-04-11T12:50:43.999Z</time></trkpt><trkpt lat="41.14961423815529" lon="16.748701916149514"><ele>39.0</ele><time>2026-04-11T12:50:44.999Z</time></trkpt><trkpt lat="41.14956489764863" lon="16.748817084911945"><ele>39.0</ele><time>2026-04-11T12:50:45.999Z</time></trkpt><trkpt lat="41.14953749904798" lon="16.74893101452868"><ele>39.0</ele><time>2026-04-11T12:50:46.999Z</time></trkpt><trkpt lat="41.14954795403129" lon="16.74906224859765"><ele>39.0</ele><time>2026-04-11T12:50:48.999Z</time></trkpt><trkpt lat="41.149648478726036" lon="16.749007161121526"><ele>39.0</ele><time>2026-04-11T12:50:51Z</time></trkpt><trkpt lat="41.149765687720226" lon="16.748907291559945"><ele>38.2</ele><time>2026-04-11T12:50:52Z</time></trkpt><trkpt lat="41.14987684507175" lon="16.748797872068614"><ele>37.4</ele><time>2026-04-11T12:50:53Z</time></trkpt><trkpt lat="41.14998233625799" lon="16.74873146927585"><ele>36.6</ele><time>2026-04-11T12:50:54Z</time></trkpt><trkpt lat="41.15006991079579" lon="16.74869642781386"><ele>35.8</ele><time>2026-04-11T12:50:55Z</time></trkpt><trkpt lat="41.150146153429525" lon="16.748706342480368"><ele>35.0</ele><time>2026-04-11T12:50:56Z</time></trkpt><trkpt lat="41.15020835486528" lon="16.748733170596577"><ele>35.0</ele><time>2026-04-11T12:50:57Z</time></trkpt><trkpt lat="41.15018542965924" lon="16.748882848720466"><ele>35.0</ele><time>2026-04-11T12:50:59Z</time></trkpt><trkpt lat="41.15011309160329" lon="16.748957441915177"><ele>35.0</ele><time>2026-04-11T12:51:00Z</time></trkpt><trkpt lat="41.15000779257861" lon="16.749014590758094"><ele>35.0</ele><time>2026-04-11T12:51:01Z</time></trkpt><trkpt lat="41.14989927310492" lon="16.749042905877644"><ele>35.0</ele><time>2026-04-11T12:51:02Z</time></trkpt><trkpt lat="41.149786965383065" lon="16.74909051961654"><ele>35.0</ele><time>2026-04-11T12:51:03Z</time></trkpt><trkpt lat="41.14969167061618" lon="16.74912534843821"><ele>35.0</ele><time>2026-04-11T12:51:04Z</time></trkpt><trkpt lat="41.149630749292065" lon="16.749147971188442"><ele>35.0</ele><time>2026-04-11T12:51:05Z</time></trkpt><trkpt lat="41.14967055690706" lon="16.74924058635825"><ele>35.0</ele><time>2026-04-11T12:51:07Z</time></trkpt><trkpt lat="41.149738520226805" lon="16.749281839565768"><ele>35.0</ele><time>2026-04-11T12:51:08Z</time></trkpt><trkpt lat="41.14984855880693" lon="16.749287060544564"><ele>35.0</ele><time>2026-04-11T12:51:09Z</time></trkpt><trkpt lat="41.149961089024686" lon="16.749282556823836"><ele>35.0</ele><time>2026-04-11T12:51:10Z</time></trkpt><trkpt lat="41.15005010744019" lon="16.74928098409397"><ele>35.0</ele><time>2026-04-11T12:51:11Z</time></trkpt><trkpt lat="41.15014845747029" lon="16.749254478403152"><ele>35.0</ele><time>2026-04-11T12:51:12Z</time></trkpt><trkpt lat="41.150239064877" lon="16.74921583292806"><ele>35.0</ele><time>2026-04-11T12:51:13Z</time></trkpt><trkpt lat="41.150288613499434" lon="16.74911922397964"><ele>35.0</ele><time>2026-04-11T12:51:15Z</time></trkpt><trkpt lat="41.15029627352794" lon="16.749011131465636"><ele>35.0</ele><time>2026-04-11T12:51:16Z</time></trkpt><trkpt lat="41.150306967697574" lon="16.7488560854084"><ele>35.0</ele><time>2026-04-11T12:51:17Z</time></trkpt><trkpt lat="41.1503265621341" lon="16.748720382362386"><ele>35.0</ele><time>2026-04-11T12:51:18Z</time></trkpt><trkpt lat="41.15031236237924" lon="16.748627665675077"><ele>35.0</ele><time>2026-04-11T12:51:19Z</time></trkpt><trkpt lat="41.150299602021356" lon="16.748515336365607"><ele>35.0</ele><time>2026-04-11T12:51:21Z</time></trkpt><trkpt lat="41.15037390454335" lon="16.74862103057065"><ele>35.0</ele><time>2026-04-11T12:51:23Z</time></trkpt><trkpt lat="41.15039942891646" lon="16.7487385019777"><ele>35.0</ele><time>2026-04-11T12:51:24Z</time></trkpt><trkpt lat="41.150413379640824" lon="16.748899939274306"><ele>35.0</ele><time>2026-04-11T12:51:25Z</time></trkpt><trkpt lat="41.1504412918548" lon="16.74907931691204"><ele>35.0</ele><time>2026-04-11T12:51:26Z</time></trkpt><trkpt lat="41.150474530424944" lon="16.7492241468014"><ele>35.0</ele><time>2026-04-11T12:51:27Z</time></trkpt><trkpt lat="41.15050757370893" lon="16.749317924259238"><ele>35.0</ele><time>2026-04-11T12:51:28Z</time></trkpt><trkpt lat="41.150574341739805" lon="16.749387544220607"><ele>35.0</ele><time>2026-04-11T12:51:30Z</time></trkpt><trkpt lat="41.15064570016396" lon="16.749363176755548"><ele>35.0</ele><time>2026-04-11T12:51:31Z</time></trkpt><trkpt lat="41.150801432697556" lon="16.7492739575939"><ele>35.0</ele><time>2026-04-11T12:51:33Z</time></trkpt><trkpt lat="41.15092670452543" lon="16.7492313858001"><ele>34.5</ele><time>2026-04-11T12:51:34Z</time></trkpt><trkpt lat="41.151039471499594" lon="16.74921883924709"><ele>34.0</ele><time>2026-04-11T12:51:35Z</time></trkpt><trkpt lat="41.15115715095833" lon="16.749247716102616"><ele>33.5</ele><time>2026-04-11T12:51:36Z</time></trkpt><trkpt lat="41.151261797110884" lon="16.74929079991223"><ele>33.0</ele><time>2026-04-11T12:51:37Z</time></trkpt><trkpt lat="41.1513730617448" lon="16.74930968401856"><ele>33.0</ele><time>2026-04-11T12:51:39Z</time></trkpt><trkpt lat="41.15136449148335" lon="16.749226091859555"><ele>33.0</ele><time>2026-04-11T12:51:40Z</time></trkpt><trkpt lat="41.151324029836466" lon="16.749159894424427"><ele>33.0</ele><time>2026-04-11T12:51:41Z</time></trkpt><trkpt lat="41.15122740909647" lon="16.749089717638743"><ele>33.0</ele><time>2026-04-11T12:51:43Z</time></trkpt><trkpt lat="41.151158714644666" lon="16.749090940303663"><ele>33.0</ele><time>2026-04-11T12:51:44Z</time></trkpt><trkpt lat="41.151067252541196" lon="16.749110162626632"><ele>33.0</ele><time>2026-04-11T12:51:45Z</time></trkpt><trkpt lat="41.15094217970843" lon="16.749135497537416"><ele>33.0</ele><time>2026-04-11T12:51:46Z</time></trkpt><trkpt lat="41.15081682555112" lon="16.749134183964156"><ele>33.0</ele><time>2026-04-11T12:51:47Z</time></trkpt><trkpt lat="41.15069885681904" lon="16.749143597618875"><ele>33.0</ele><time>2026-04-11T12:51:48Z</time></trkpt><trkpt lat="41.15059641390668" lon="16.74917607186024"><ele>33.0</ele><time>2026-04-11T12:51:49Z</time></trkpt><trkpt lat="41.15052823841544" lon="16.749179791629043"><ele>33.0</ele><time>2026-04-11T12:51:50Z</time></trkpt><trkpt lat="41.150517767255224" lon="16.749087788216304"><ele>33.0</ele><time>2026-04-11T12:51:52Z</time></trkpt><trkpt lat="41.150507127065524" lon="16.749001767435786"><ele>33.0</ele><time>2026-04-11T12:51:53Z</time></trkpt><trkpt lat="41.15052071322428" lon="16.748918095112206"><ele>33.0</ele><time>2026-04-11T12:52:01Z</time></trkpt><trkpt lat="41.15059024325325" lon="16.748822677113605"><ele>33.0</ele><time>2026-04-11T12:52:03Z</time></trkpt><trkpt lat="41.15069204342014" lon="16.748825797291758"><ele>33.0</ele><time>2026-04-11T12:52:05Z</time></trkpt><trkpt lat="41.150766824529036" lon="16.748856906469943"><ele>33.0</ele><time>2026-04-11T12:52:06Z</time></trkpt><trkpt lat="41.150870114627686" lon="16.748915089284328"><ele>33.0</ele><time>2026-04-11T12:52:07Z</time></trkpt><trkpt lat="41.150969199869216" lon="16.749012407018228"><ele>33.0</ele><time>2026-04-11T12:52:08Z</time></trkpt><trkpt lat="41.15103196102154" lon="16.749081419121026"><ele>33.0</ele><time>2026-04-11T12:52:09Z</time></trkpt><trkpt lat="41.151138936126756" lon="16.749044808849806"><ele>33.0</ele><time>2026-04-11T12:52:11Z</time></trkpt><trkpt lat="41.15121846553867" lon="16.748975105867466"><ele>33.0</ele><time>2026-04-11T12:52:12Z</time></trkpt><trkpt lat="41.15129910248599" lon="16.748950248841965"><ele>33.0</ele><time>2026-04-11T12:52:13Z</time></trkpt><trkpt lat="41.15138436819511" lon="16.74894829732725"><ele>33.0</ele><time>2026-04-11T12:52:14Z</time></trkpt><trkpt lat="41.151466627736085" lon="16.748902379729568"><ele>33.0</ele><time>2026-04-11T12:52:16Z</time></trkpt><trkpt lat="41.15142203887" lon="16.748832107364535"><ele>33.0</ele><time>2026-04-11T12:52:18.999Z</time></trkpt><trkpt lat="41.15131273248168" lon="16.748776864009866"><ele>33.0</ele><time>2026-04-11T12:52:20.999Z</time></trkpt><trkpt lat="41.1512117494254" lon="16.74873864504242"><ele>33.0</ele><time>2026-04-11T12:52:21.999Z</time></trkpt><trkpt lat="41.15108150626823" lon="16.74868258492162"><ele>33.0</ele><time>2026-04-11T12:52:22.999Z</time></trkpt><trkpt lat="41.15094327100566" lon="16.748616621134115"><ele>33.0</ele><time>2026-04-11T12:52:23.999Z</time></trkpt><trkpt lat="41.15081853254457" lon="16.748558932873642"><ele>33.0</ele><time>2026-04-11T12:52:24.999Z</time></trkpt><trkpt lat="41.15072067625994" lon="16.748529086413786"><ele>33.6</ele><time>2026-04-11T12:52:25.999Z</time></trkpt><trkpt lat="41.15062895376844" lon="16.74849014156684"><ele>34.199999999999996</ele><time>2026-04-11T12:52:26.999Z</time></trkpt><trkpt lat="41.15055415296148" lon="16.748465559813262"><ele>34.8</ele><time>2026-04-11T12:52:27.999Z</time></trkpt><trkpt lat="41.15047122806233" lon="16.748458686537514"><ele>35.4</ele><time>2026-04-11T12:52:29.999Z</time></trkpt><trkpt lat="41.150355052188715" lon="16.74841810644911"><ele>36.0</ele><time>2026-04-11T12:52:31.999Z</time></trkpt><trkpt lat="41.150276370245074" lon="16.748399187749193"><ele>36.0</ele><time>2026-04-11T12:52:32.999Z</time></trkpt><trkpt lat="41.150205966186505" lon="16.74836531717691"><ele>36.0</ele><time>2026-04-11T12:52:33.999Z</time></trkpt><trkpt lat="41.150132682342495" lon="16.74831346135366"><ele>36.0</ele><time>2026-04-11T12:52:34.999Z</time></trkpt><trkpt lat="41.15003947522576" lon="16.74828302071174"><ele>36.0</ele><time>2026-04-11T12:52:35.999Z</time></trkpt><trkpt lat="41.14994703183793" lon="16.748296711508345"><ele>36.0</ele><time>2026-04-11T12:52:36.999Z</time></trkpt><trkpt lat="41.14985414312317" lon="16.748334357432636"><ele>36.0</ele><time>2026-04-11T12:52:37.999Z</time></trkpt><trkpt lat="41.14977276292528" lon="16.748394949026505"><ele>36.6</ele><time>2026-04-11T12:52:38.999Z</time></trkpt><trkpt lat="41.14969174950149" lon="16.748495383298327"><ele>37.2</ele><time>2026-04-11T12:52:39.999Z</time></trkpt><trkpt lat="41.1496367185487" lon="16.748633645979528"><ele>37.8</ele><time>2026-04-11T12:52:40.999Z</time></trkpt><trkpt lat="41.149579408392995" lon="16.748745962423424"><ele>38.4</ele><time>2026-04-11T12:52:41.999Z</time></trkpt><trkpt lat="41.14953969913525" lon="16.748862375039806"><ele>39.0</ele><time>2026-04-11T12:52:42.999Z</time></trkpt><trkpt lat="41.14950536286727" lon="16.74897885180862"><ele>39.0</ele><time>2026-04-11T12:52:43.999Z</time></trkpt><trkpt lat="41.14953317937566" lon="16.749084740342017"><ele>39.0</ele><time>2026-04-11T12:52:45.999Z</time></trkpt><trkpt lat="41.14964857343831" lon="16.749012112293613"><ele>39.0</ele><time>2026-04-11T12:52:47.999Z</time></trkpt><trkpt lat="41.149779238474494" lon="16.74887364067858"><ele>39.0</ele><time>2026-04-11T12:52:48.999Z</time></trkpt><trkpt lat="41.14991148653877" lon="16.748763082539735"><ele>38.333333333333336</ele><time>2026-04-11T12:52:49.999Z</time></trkpt><trkpt lat="41.14999192011048" lon="16.74871134121374"><ele>37.666666666666664</ele><time>2026-04-11T12:52:50.999Z</time></trkpt><trkpt lat="41.150074296803254" lon="16.748692704324142"><ele>37.0</ele><time>2026-04-11T12:52:51.999Z</time></trkpt><trkpt lat="41.150144249087994" lon="16.748711028667483"><ele>36.33333333333333</ele><time>2026-04-11T12:52:52.999Z</time></trkpt><trkpt lat="41.15019734958143" lon="16.748823457146454"><ele>35.666666666666664</ele><time>2026-04-11T12:52:54.999Z</time></trkpt><trkpt lat="41.150154376983316" lon="16.748902009111355"><ele>35.0</ele><time>2026-04-11T12:52:55.999Z</time></trkpt><trkpt lat="41.14988941687358" lon="16.749271802532064"><ele>35.0</ele><time>2026-04-11T12:52:57Z</time></trkpt><trkpt lat="41.14987682795962" lon="16.749133062328703"><ele>35.0</ele><time>2026-04-11T12:53:01Z</time></trkpt><trkpt lat="41.14979420467669" lon="16.749129422282863"><ele>35.0</ele><time>2026-04-11T12:53:02Z</time></trkpt><trkpt lat="41.1497255560898" lon="16.749166691569748"><ele>35.0</ele><time>2026-04-11T12:53:03Z</time></trkpt><trkpt lat="41.14966956550862" lon="16.74923617327295"><ele>35.0</ele><time>2026-04-11T12:53:05Z</time></trkpt><trkpt lat="41.149759689870606" lon="16.749294460669805"><ele>35.0</ele><time>2026-04-11T12:53:07Z</time></trkpt><trkpt lat="41.14987355768782" lon="16.749305433601826"><ele>35.0</ele><time>2026-04-11T12:53:09Z</time></trkpt><trkpt lat="41.1499529728621" lon="16.74928184833208"><ele>35.0</ele><time>2026-04-11T12:53:10Z</time></trkpt><trkpt lat="41.15005183139832" lon="16.74923603556749"><ele>35.0</ele><time>2026-04-11T12:53:11Z</time></trkpt><trkpt lat="41.150126248710556" lon="16.749203742468396"><ele>35.0</ele><time>2026-04-11T12:53:12Z</time></trkpt><trkpt lat="41.15023048873557" lon="16.749130170923223"><ele>35.0</ele><time>2026-04-11T12:53:14Z</time></trkpt><trkpt lat="41.15027653248303" lon="16.749070749599348"><ele>35.0</ele><time>2026-04-11T12:53:15Z</time></trkpt><trkpt lat="41.150313961622366" lon="16.7487708244734"><ele>35.0</ele><time>2026-04-11T12:53:16Z</time></trkpt><trkpt lat="41.15030490176592" lon="16.748668974076597"><ele>35.0</ele><time>2026-04-11T12:53:17Z</time></trkpt><trkpt lat="41.15027539466785" lon="16.748549507975913"><ele>35.0</ele><time>2026-04-11T12:53:18Z</time></trkpt><trkpt lat="41.15034759935442" lon="16.74855016426842"><ele>35.0</ele><time>2026-04-11T12:53:21Z</time></trkpt><trkpt lat="41.150372776279006" lon="16.748643783007825"><ele>35.0</ele><time>2026-04-11T12:53:22Z</time></trkpt><trkpt lat="41.150396273367015" lon="16.748780230106895"><ele>35.0</ele><time>2026-04-11T12:53:23Z</time></trkpt><trkpt lat="41.15041201862986" lon="16.748956596424733"><ele>35.0</ele><time>2026-04-11T12:53:24Z</time></trkpt><trkpt lat="41.15044704923373" lon="16.749106171773207"><ele>35.0</ele><time>2026-04-11T12:53:25Z</time></trkpt><trkpt lat="41.15049356855949" lon="16.74925254056439"><ele>35.0</ele><time>2026-04-11T12:53:26Z</time></trkpt><trkpt lat="41.1505190952935" lon="16.749339039867415"><ele>35.0</ele><time>2026-04-11T12:53:27Z</time></trkpt><trkpt lat="41.15059903619069" lon="16.74932942378781"><ele>35.0</ele><time>2026-04-11T12:53:29Z</time></trkpt><trkpt lat="41.150664953105355" lon="16.749289565989404"><ele>34.5</ele><time>2026-04-11T12:53:31Z</time></trkpt><trkpt lat="41.15075663563844" lon="16.749151289812428"><ele>34.0</ele><time>2026-04-11T12:53:32Z</time></trkpt><trkpt lat="41.15082906972717" lon="16.74917458538832"><ele>33.5</ele><time>2026-04-11T12:53:33Z</time></trkpt><trkpt lat="41.15091641578051" lon="16.749184777289365"><ele>33.0</ele><time>2026-04-11T12:53:34Z</time></trkpt><trkpt lat="41.15106889925328" lon="16.749266215531392"><ele>33.0</ele><time>2026-04-11T12:53:35Z</time></trkpt><trkpt lat="41.151157269939524" lon="16.749298990006622"><ele>33.0</ele><time>2026-04-11T12:53:36Z</time></trkpt><trkpt lat="41.151225772239684" lon="16.749312810288362"><ele>33.0</ele><time>2026-04-11T12:53:37Z</time></trkpt><trkpt lat="41.151340621103834" lon="16.74930329886179"><ele>33.0</ele><time>2026-04-11T12:53:39Z</time></trkpt><trkpt lat="41.151381071213706" lon="16.749209077090356"><ele>33.0</ele><time>2026-04-11T12:53:41Z</time></trkpt><trkpt lat="41.151258331570645" lon="16.74913408998757"><ele>33.0</ele><time>2026-04-11T12:53:43Z</time></trkpt><trkpt lat="41.15104887023958" lon="16.74914227511449"><ele>33.0</ele><time>2026-04-11T12:53:44Z</time></trkpt><trkpt lat="41.150937906699035" lon="16.74913975898331"><ele>33.0</ele><time>2026-04-11T12:53:45Z</time></trkpt><trkpt lat="41.150801601598346" lon="16.749130208380365"><ele>33.4</ele><time>2026-04-11T12:53:46Z</time></trkpt><trkpt lat="41.150670629717" lon="16.749150727656897"><ele>33.8</ele><time>2026-04-11T12:53:47Z</time></trkpt><trkpt lat="41.150553700658236" lon="16.74918417905315"><ele>34.2</ele><time>2026-04-11T12:53:48Z</time></trkpt><trkpt lat="41.15047765023793" lon="16.749174271433333"><ele>34.6</ele><time>2026-04-11T12:53:49Z</time></trkpt><trkpt lat="41.15051488094834" lon="16.749100667550856"><ele>35.0</ele><time>2026-04-11T12:53:50Z</time></trkpt><trkpt lat="41.15050042505597" lon="16.748967146356026"><ele>35.0</ele><time>2026-04-11T12:53:51Z</time></trkpt><trkpt lat="41.15053003864425" lon="16.748840638671588"><ele>35.0</ele><time>2026-04-11T12:53:53Z</time></trkpt><trkpt lat="41.15061942918426" lon="16.748794727614793"><ele>35.0</ele><time>2026-04-11T12:53:54Z</time></trkpt><trkpt lat="41.150749930295845" lon="16.748848996069682"><ele>35.0</ele><time>2026-04-11T12:53:56Z</time></trkpt><trkpt lat="41.150840390502644" lon="16.748902659657688"><ele>35.0</ele><time>2026-04-11T12:53:57Z</time></trkpt><trkpt lat="41.15093472829345" lon="16.748964245467455"><ele>34.6</ele><time>2026-04-11T12:53:58Z</time></trkpt><trkpt lat="41.151018756382136" lon="16.74904638526401"><ele>34.2</ele><time>2026-04-11T12:53:59Z</time></trkpt><trkpt lat="41.15110693577116" lon="16.749071444816483"><ele>33.8</ele><time>2026-04-11T12:54:01Z</time></trkpt><trkpt lat="41.15116485867934" lon="16.749012190350484"><ele>33.4</ele><time>2026-04-11T12:54:02Z</time></trkpt><trkpt lat="41.15126177008575" lon="16.748966463984072"><ele>33.0</ele><time>2026-04-11T12:54:03Z</time></trkpt><trkpt lat="41.151350842061525" lon="16.748930958486913"><ele>33.0</ele><time>2026-04-11T12:54:04Z</time></trkpt><trkpt lat="41.151444649601416" lon="16.748916018321196"><ele>33.0</ele><time>2026-04-11T12:54:06Z</time></trkpt><trkpt lat="41.151422563652694" lon="16.74881693322049"><ele>33.0</ele><time>2026-04-11T12:54:08Z</time></trkpt><trkpt lat="41.1513635325541" lon="16.748782466616362"><ele>33.0</ele><time>2026-04-11T12:54:09Z</time></trkpt><trkpt lat="41.151263161613834" lon="16.748750871565925"><ele>33.0</ele><time>2026-04-11T12:54:10Z</time></trkpt><trkpt lat="41.15113359891835" lon="16.7487107858993"><ele>33.0</ele><time>2026-04-11T12:54:11Z</time></trkpt><trkpt lat="41.15100056072154" lon="16.748640969512213"><ele>33.0</ele><time>2026-04-11T12:54:12Z</time></trkpt><trkpt lat="41.15087827252464" lon="16.74857653282483"><ele>33.0</ele><time>2026-04-11T12:54:13Z</time></trkpt><trkpt lat="41.15076534450448" lon="16.74852280896562"><ele>33.0</ele><time>2026-04-11T12:54:14Z</time></trkpt><trkpt lat="41.15066985921296" lon="16.74848692827292"><ele>33.6</ele><time>2026-04-11T12:54:15Z</time></trkpt><trkpt lat="41.15058975367445" lon="16.748454776657393"><ele>34.199999999999996</ele><time>2026-04-11T12:54:16Z</time></trkpt><trkpt lat="41.150523462730526" lon="16.748459399983577"><ele>34.8</ele><time>2026-04-11T12:54:18Z</time></trkpt><trkpt lat="41.15043728087713" lon="16.74844316890893"><ele>35.4</ele><time>2026-04-11T12:54:22Z</time></trkpt><trkpt lat="41.150302337435" lon="16.74841056866353"><ele>36.0</ele><time>2026-04-11T12:54:24Z</time></trkpt><trkpt lat="41.150190652442" lon="16.74834655561309"><ele>36.0</ele><time>2026-04-11T12:54:24.999Z</time></trkpt><trkpt lat="41.15008500036136" lon="16.74828430461559"><ele>36.0</ele><time>2026-04-11T12:54:25.999Z</time></trkpt><trkpt lat="41.149999124441564" lon="16.748279167555722"><ele>36.0</ele><time>2026-04-11T12:54:26.999Z</time></trkpt><trkpt lat="41.14989548586265" lon="16.74832739533267"><ele>36.0</ele><time>2026-04-11T12:54:28.999Z</time></trkpt><trkpt lat="41.14981935147063" lon="16.748365329044308"><ele>36.0</ele><time>2026-04-11T12:54:29.999Z</time></trkpt><trkpt lat="41.149724513860285" lon="16.748469475996206"><ele>36.6</ele><time>2026-04-11T12:54:30.999Z</time></trkpt><trkpt lat="41.14965370860648" lon="16.748596037345827"><ele>37.2</ele><time>2026-04-11T12:54:31.999Z</time></trkpt><trkpt lat="41.14960664156075" lon="16.74871707263552"><ele>37.8</ele><time>2026-04-11T12:54:32.999Z</time></trkpt><trkpt lat="41.1495629106571" lon="16.74884323869165"><ele>38.4</ele><time>2026-04-11T12:54:33.999Z</time></trkpt><trkpt lat="41.14954439710742" lon="16.74895800505534"><ele>39.0</ele><time>2026-04-11T12:54:34.999Z</time></trkpt><trkpt lat="41.14954104385376" lon="16.749073675476165"><ele>39.0</ele><time>2026-04-11T12:54:36.999Z</time></trkpt><trkpt lat="41.149667035613696" lon="16.748976174021653"><ele>39.0</ele><time>2026-04-11T12:54:38.999Z</time></trkpt><trkpt lat="41.149766981552396" lon="16.74887284396392"><ele>39.0</ele><time>2026-04-11T12:54:39.999Z</time></trkpt><trkpt lat="41.14990285148053" lon="16.748769741144702"><ele>39.0</ele><time>2026-04-11T12:54:40.999Z</time></trkpt><trkpt lat="41.15000038956547" lon="16.748700165576906"><ele>38.2</ele><time>2026-04-11T12:54:41.999Z</time></trkpt><trkpt lat="41.1500860130351" lon="16.748665085487634"><ele>37.4</ele><time>2026-04-11T12:54:42.999Z</time></trkpt><trkpt lat="41.150172605975925" lon="16.748674475806958"><ele>36.6</ele><time>2026-04-11T12:54:43.999Z</time></trkpt><trkpt lat="41.1502339522198" lon="16.748717059735416"><ele>35.8</ele><time>2026-04-11T12:54:44.999Z</time></trkpt><trkpt lat="41.15015890813884" lon="16.748873369836677"><ele>35.0</ele><time>2026-04-11T12:54:46.999Z</time></trkpt><trkpt lat="41.150068373601634" lon="16.748943811661036"><ele>35.0</ele><time>2026-04-11T12:54:47.999Z</time></trkpt><trkpt lat="41.149966831845845" lon="16.748997410832988"><ele>35.0</ele><time>2026-04-11T12:54:48.999Z</time></trkpt><trkpt lat="41.149847776991834" lon="16.749033939778837"><ele>35.0</ele><time>2026-04-11T12:54:49.999Z</time></trkpt><trkpt lat="41.14973835224805" lon="16.74907865856172"><ele>35.0</ele><time>2026-04-11T12:54:50.999Z</time></trkpt><trkpt lat="41.14966880486045" lon="16.749117932693764"><ele>35.0</ele><time>2026-04-11T12:54:51.999Z</time></trkpt><trkpt lat="41.1496230358478" lon="16.74920070365268"><ele>35.0</ele><time>2026-04-11T12:54:53.999Z</time></trkpt><trkpt lat="41.14975063096233" lon="16.749307705165492"><ele>35.0</ele><time>2026-04-11T12:54:55.999Z</time></trkpt><trkpt lat="41.14986682153317" lon="16.74930581242325"><ele>35.0</ele><time>2026-04-11T12:54:56.999Z</time></trkpt><trkpt lat="41.14997536955809" lon="16.749307554120794"><ele>35.0</ele><time>2026-04-11T12:54:57.999Z</time></trkpt><trkpt lat="41.15007396882627" lon="16.74927557726616"><ele>35.0</ele><time>2026-04-11T12:54:58.999Z</time></trkpt><trkpt lat="41.1501714306079" lon="16.74924707174276"><ele>35.0</ele><time>2026-04-11T12:54:59.999Z</time></trkpt><trkpt lat="41.15023784176872" lon="16.749222229217658"><ele>35.0</ele><time>2026-04-11T12:55:00.999Z</time></trkpt><trkpt lat="41.15027987756296" lon="16.749122865681638"><ele>35.0</ele><time>2026-04-11T12:55:03Z</time></trkpt><trkpt lat="41.15027987147799" lon="16.749032831019075"><ele>35.0</ele><time>2026-04-11T12:55:04Z</time></trkpt><trkpt lat="41.15029102616959" lon="16.748900056557655"><ele>35.0</ele><time>2026-04-11T12:55:05Z</time></trkpt><trkpt lat="41.150293934988284" lon="16.74873717831934"><ele>35.0</ele><time>2026-04-11T12:55:06Z</time></trkpt><trkpt lat="41.15029382094759" lon="16.748618979185462"><ele>35.0</ele><time>2026-04-11T12:55:07Z</time></trkpt><trkpt lat="41.15027895315976" lon="16.7485132280188"><ele>35.0</ele><time>2026-04-11T12:55:07.999Z</time></trkpt><trkpt lat="41.15033683478271" lon="16.748583112482752"><ele>35.0</ele><time>2026-04-11T12:55:10.999Z</time></trkpt><trkpt lat="41.150383456550465" lon="16.74880276964106"><ele>35.0</ele><time>2026-04-11T12:55:13Z</time></trkpt><trkpt lat="41.15040822099443" lon="16.74896907794951"><ele>35.0</ele><time>2026-04-11T12:55:14Z</time></trkpt><trkpt lat="41.150447426054555" lon="16.749135036653232"><ele>35.0</ele><time>2026-04-11T12:55:15Z</time></trkpt><trkpt lat="41.150487726907215" lon="16.74926252289271"><ele>35.0</ele><time>2026-04-11T12:55:16Z</time></trkpt><trkpt lat="41.150538516431425" lon="16.749360556894214"><ele>35.0</ele><time>2026-04-11T12:55:18Z</time></trkpt><trkpt lat="41.150687258406315" lon="16.74931733373653"><ele>34.75</ele><time>2026-04-11T12:55:20Z</time></trkpt><trkpt lat="41.15081123893712" lon="16.74927397004441"><ele>34.5</ele><time>2026-04-11T12:55:21Z</time></trkpt><trkpt lat="41.150927825291234" lon="16.74925090643791"><ele>34.25</ele><time>2026-04-11T12:55:22Z</time></trkpt><trkpt lat="41.15103505506854" lon="16.749241435409633"><ele>34.0</ele><time>2026-04-11T12:55:23Z</time></trkpt><trkpt lat="41.151122033621" lon="16.749542337393965"><ele>33.66666666666667</ele><time>2026-04-11T12:55:24Z</time></trkpt><trkpt lat="41.1512659405375" lon="16.749138945472673"><ele>33.333333333333336</ele><time>2026-04-11T12:55:29Z</time></trkpt><trkpt lat="41.151207959166825" lon="16.749095092800662"><ele>33.0</ele><time>2026-04-11T12:55:31Z</time></trkpt><trkpt lat="41.15104949474031" lon="16.74911435840963"><ele>33.0</ele><time>2026-04-11T12:55:33Z</time></trkpt><trkpt lat="41.1509559968089" lon="16.749138853671887"><ele>33.0</ele><time>2026-04-11T12:55:34Z</time></trkpt><trkpt lat="41.150822411318686" lon="16.74913249848038"><ele>33.0</ele><time>2026-04-11T12:55:35Z</time></trkpt><trkpt lat="41.15070268327353" lon="16.74914442869183"><ele>33.0</ele><time>2026-04-11T12:55:36Z</time></trkpt><trkpt lat="41.15060710466419" lon="16.749182835053674"><ele>33.0</ele><time>2026-04-11T12:55:37Z</time></trkpt><trkpt lat="41.15054269597777" lon="16.74914049209191"><ele>33.0</ele><time>2026-04-11T12:55:39Z</time></trkpt><trkpt lat="41.15053313150082" lon="16.748992468905175"><ele>33.0</ele><time>2026-04-11T12:55:41Z</time></trkpt><trkpt lat="41.15053579245231" lon="16.748855027093995"><ele>33.0</ele><time>2026-04-11T12:55:43Z</time></trkpt><trkpt lat="41.15060124509047" lon="16.748818836367487"><ele>33.0</ele><time>2026-04-11T12:55:45Z</time></trkpt><trkpt lat="41.150685358311556" lon="16.74883846416925"><ele>33.0</ele><time>2026-04-11T12:55:47Z</time></trkpt><trkpt lat="41.150804434044744" lon="16.748876248650824"><ele>33.0</ele><time>2026-04-11T12:55:48Z</time></trkpt><trkpt lat="41.15087795543803" lon="16.748938017497004"><ele>33.0</ele><time>2026-04-11T12:55:49Z</time></trkpt><trkpt lat="41.15099393890871" lon="16.74903672060381"><ele>33.0</ele><time>2026-04-11T12:55:50Z</time></trkpt><trkpt lat="41.151113197302784" lon="16.749053400611853"><ele>33.0</ele><time>2026-04-11T12:55:52Z</time></trkpt><trkpt lat="41.15122487436616" lon="16.748975204823868"><ele>33.0</ele><time>2026-04-11T12:55:54Z</time></trkpt><trkpt lat="41.15132933378153" lon="16.74894016268307"><ele>33.0</ele><time>2026-04-11T12:55:55Z</time></trkpt><trkpt lat="41.1514034194652" lon="16.748935380678464"><ele>33.0</ele><time>2026-04-11T12:55:56Z</time></trkpt><trkpt lat="41.15146731871361" lon="16.748916984932443"><ele>33.0</ele><time>2026-04-11T12:55:57Z</time></trkpt><trkpt lat="41.151424912023344" lon="16.74881222686686"><ele>33.0</ele><time>2026-04-11T12:56:00Z</time></trkpt><trkpt lat="41.15133773921475" lon="16.74876423034934"><ele>33.0</ele><time>2026-04-11T12:56:01Z</time></trkpt><trkpt lat="41.15119620250728" lon="16.748726516187908"><ele>33.0</ele><time>2026-04-11T12:56:02Z</time></trkpt><trkpt lat="41.15108112318249" lon="16.74867196537745"><ele>33.0</ele><time>2026-04-11T12:56:03Z</time></trkpt><trkpt lat="41.15093180855105" lon="16.748593439085948"><ele>33.0</ele><time>2026-04-11T12:56:04Z</time></trkpt><trkpt lat="41.15079211940771" lon="16.748534578888574"><ele>33.0</ele><time>2026-04-11T12:56:05Z</time></trkpt><trkpt lat="41.15067770627602" lon="16.748484045663712"><ele>33.5</ele><time>2026-04-11T12:56:06Z</time></trkpt><trkpt lat="41.15059526680752" lon="16.748446763373327"><ele>34.0</ele><time>2026-04-11T12:56:07Z</time></trkpt><trkpt lat="41.15052600094483" lon="16.74843502765012"><ele>34.5</ele><time>2026-04-11T12:56:08Z</time></trkpt><trkpt lat="41.150454504752325" lon="16.74843547529162"><ele>35.0</ele><time>2026-04-11T12:56:10Z</time></trkpt><trkpt lat="41.15038844254857" lon="16.74841971384447"><ele>35.5</ele><time>2026-04-11T12:56:11Z</time></trkpt><trkpt lat="41.15031408818158" lon="16.748411371294132"><ele>36.0</ele><time>2026-04-11T12:56:12Z</time></trkpt><trkpt lat="41.15023352683698" lon="16.7483758975241"><ele>36.0</ele><time>2026-04-11T12:56:13Z</time></trkpt><trkpt lat="41.15014864069344" lon="16.748315624144915"><ele>36.0</ele><time>2026-04-11T12:56:14Z</time></trkpt><trkpt lat="41.150044873699585" lon="16.74827004269749"><ele>36.0</ele><time>2026-04-11T12:56:15Z</time></trkpt><trkpt lat="41.14993737893736" lon="16.748258003086118"><ele>36.0</ele><time>2026-04-11T12:56:16Z</time></trkpt><trkpt lat="41.149846654719326" lon="16.748287630684096"><ele>36.0</ele><time>2026-04-11T12:56:17Z</time></trkpt><trkpt lat="41.14976757949616" lon="16.748350298202546"><ele>36.6</ele><time>2026-04-11T12:56:18Z</time></trkpt><trkpt lat="41.1496993419799" lon="16.74843563467887"><ele>37.2</ele><time>2026-04-11T12:56:19Z</time></trkpt><trkpt lat="41.149608906790206" lon="16.748576103827606"><ele>37.8</ele><time>2026-04-11T12:56:20Z</time></trkpt><trkpt lat="41.14955014694223" lon="16.74871021347217"><ele>38.4</ele><time>2026-04-11T12:56:21Z</time></trkpt><trkpt lat="41.14952362124871" lon="16.748826653350047"><ele>39.0</ele><time>2026-04-11T12:56:22Z</time></trkpt><trkpt lat="41.149514933445516" lon="16.74893781284998"><ele>39.0</ele><time>2026-04-11T12:56:24Z</time></trkpt><trkpt lat="41.14955036631642" lon="16.74902589734189"><ele>39.0</ele><time>2026-04-11T12:59:11.999Z</time></trkpt><trkpt lat="41.14963426185168" lon="16.74899272211155"><ele>39.0</ele><time>2026-04-11T12:59:20Z</time></trkpt><trkpt lat="41.149691477519816" lon="16.748941814437558"><ele>39.0</ele><time>2026-04-11T12:59:21Z</time></trkpt><trkpt lat="41.149768500877634" lon="16.74886544556465"><ele>39.0</ele><time>2026-04-11T12:59:22Z</time></trkpt><trkpt lat="41.149857706189266" lon="16.748798186006745"><ele>39.0</ele><time>2026-04-11T12:59:23Z</time></trkpt><trkpt lat="41.14993622164482" lon="16.748730094572096"><ele>38.333333333333336</ele><time>2026-04-11T12:59:24Z</time></trkpt><trkpt lat="41.15001894451367" lon="16.748700891826722"><ele>37.666666666666664</ele><time>2026-04-11T12:59:25Z</time></trkpt><trkpt lat="41.15009264847667" lon="16.748692102856705"><ele>37.0</ele><time>2026-04-11T12:59:26Z</time></trkpt><trkpt lat="41.15017433141493" lon="16.748768991498512"><ele>36.33333333333333</ele><time>2026-04-11T12:59:28Z</time></trkpt><trkpt lat="41.15013313946136" lon="16.748897131639414"><ele>35.666666666666664</ele><time>2026-04-11T12:59:30Z</time></trkpt><trkpt lat="41.150075489404415" lon="16.74895075460829"><ele>35.0</ele><time>2026-04-11T12:59:31Z</time></trkpt><trkpt lat="41.1499666891671" lon="16.74900578683663"><ele>35.8</ele><time>2026-04-11T12:59:32Z</time></trkpt><trkpt lat="41.14986007654203" lon="16.749057110785163"><ele>36.6</ele><time>2026-04-11T12:59:33Z</time></trkpt><trkpt lat="41.14975805180318" lon="16.749092219901385"><ele>37.4</ele><time>2026-04-11T12:59:34Z</time></trkpt><trkpt lat="41.14966673542736" lon="16.7491112633846"><ele>38.2</ele><time>2026-04-11T12:59:35Z</time></trkpt><trkpt lat="41.149606431824544" lon="16.749143383941988"><ele>39.0</ele><time>2026-04-11T12:59:37Z</time></trkpt><trkpt lat="41.149650996913216" lon="16.749232534737423"><ele>39.0</ele><time>2026-04-11T12:59:39Z</time></trkpt><trkpt lat="41.149735699192085" lon="16.74926492343903"><ele>39.0</ele><time>2026-04-11T12:59:40Z</time></trkpt><trkpt lat="41.14985048201647" lon="16.74927417768564"><ele>39.0</ele><time>2026-04-11T12:59:41Z</time></trkpt><trkpt lat="41.14994992458145" lon="16.74927292663523"><ele>39.0</ele><time>2026-04-11T12:59:42Z</time></trkpt><trkpt lat="41.150055196883244" lon="16.74926685772297"><ele>39.0</ele><time>2026-04-11T12:59:43Z</time></trkpt><trkpt lat="41.15013968193054" lon="16.749250234588185"><ele>38.2</ele><time>2026-04-11T12:59:44Z</time></trkpt><trkpt lat="41.15022366697773" lon="16.74921482661798"><ele>37.4</ele><time>2026-04-11T12:59:45Z</time></trkpt><trkpt lat="41.15029697109892" lon="16.749115162231398"><ele>36.6</ele><time>2026-04-11T12:59:47Z</time></trkpt><trkpt lat="41.15031883719702" lon="16.749007758965966"><ele>35.8</ele><time>2026-04-11T12:59:48Z</time></trkpt><trkpt lat="41.15031826361962" lon="16.74884599191367"><ele>35.0</ele><time>2026-04-11T12:59:49Z</time></trkpt><trkpt lat="41.15031737718578" lon="16.748703333445114"><ele>35.0</ele><time>2026-04-11T12:59:50Z</time></trkpt><trkpt lat="41.15030308386105" lon="16.748606841090087"><ele>35.0</ele><time>2026-04-11T12:59:51Z</time></trkpt><trkpt lat="41.150294758591734" lon="16.74852119191857"><ele>35.0</ele><time>2026-04-11T12:59:53Z</time></trkpt><trkpt lat="41.1503530892899" lon="16.74862539440481"><ele>35.0</ele><time>2026-04-11T12:59:55Z</time></trkpt><trkpt lat="41.150399665292134" lon="16.748822640776872"><ele>35.0</ele><time>2026-04-11T12:59:57Z</time></trkpt><trkpt lat="41.15042163228109" lon="16.748976196666796"><ele>35.0</ele><time>2026-04-11T12:59:58Z</time></trkpt><trkpt lat="41.1504474035227" lon="16.74913216545846"><ele>35.0</ele><time>2026-04-11T12:59:59Z</time></trkpt><trkpt lat="41.15048600525063" lon="16.74924112398601"><ele>35.0</ele><time>2026-04-11T13:00:00Z</time></trkpt><trkpt lat="41.15051488011311" lon="16.749324957978075"><ele>35.0</ele><time>2026-04-11T13:00:01Z</time></trkpt><trkpt lat="41.15061111610463" lon="16.749373352296402"><ele>35.0</ele><time>2026-04-11T13:00:03Z</time></trkpt><trkpt lat="41.150676491449374" lon="16.74934787852485"><ele>34.75</ele><time>2026-04-11T13:00:04Z</time></trkpt><trkpt lat="41.15074340956824" lon="16.749542337380884"><ele>34.5</ele><time>2026-04-11T13:00:05Z</time></trkpt><trkpt lat="41.150825873446294" lon="16.749542337382774"><ele>34.25</ele><time>2026-04-11T13:00:06Z</time></trkpt><trkpt lat="41.15094148444471" lon="16.749542337388537"><ele>34.0</ele><time>2026-04-11T13:00:07Z</time></trkpt><trkpt lat="41.15103306003714" lon="16.749542337395983"><ele>34.0</ele><time>2026-04-11T13:00:08Z</time></trkpt><trkpt lat="41.151120665401436" lon="16.749542337394743"><ele>34.0</ele><time>2026-04-11T13:00:09Z</time></trkpt><trkpt lat="41.15119172439739" lon="16.749542337389215"><ele>34.0</ele><time>2026-04-11T13:00:10Z</time></trkpt><trkpt lat="41.15128521899437" lon="16.749542337382024"><ele>34.0</ele><time>2026-04-11T13:00:12Z</time></trkpt><trkpt lat="41.15127770821367" lon="16.749109832843164"><ele>33.833333333333336</ele><time>2026-04-11T13:00:14Z</time></trkpt><trkpt lat="41.151196261286756" lon="16.74906324141147"><ele>33.66666666666667</ele><time>2026-04-11T13:00:16Z</time></trkpt><trkpt lat="41.15112683452812" lon="16.749092925110194"><ele>33.5</ele><time>2026-04-11T13:00:17Z</time></trkpt><trkpt lat="41.151061420339694" lon="16.749123705585195"><ele>33.333333333333336</ele><time>2026-04-11T13:00:18Z</time></trkpt><trkpt lat="41.150975768444795" lon="16.749143584651122"><ele>33.166666666666664</ele><time>2026-04-11T13:00:19Z</time></trkpt><trkpt lat="41.15085804290454" lon="16.74913349756518"><ele>33.0</ele><time>2026-04-11T13:00:20Z</time></trkpt><trkpt lat="41.15073655267579" lon="16.749133970887602"><ele>33.333333333333336</ele><time>2026-04-11T13:00:21Z</time></trkpt><trkpt lat="41.150649233686956" lon="16.749167079208263"><ele>33.666666666666664</ele><time>2026-04-11T13:00:22Z</time></trkpt><trkpt lat="41.15058589540104" lon="16.74918565804119"><ele>34.0</ele><time>2026-04-11T13:00:23Z</time></trkpt><trkpt lat="41.15053413786598" lon="16.749125665789165"><ele>34.33333333333333</ele><time>2026-04-11T13:00:25Z</time></trkpt><trkpt lat="41.15053881323803" lon="16.749035302099337"><ele>34.666666666666664</ele><time>2026-04-11T13:00:26Z</time></trkpt><trkpt lat="41.150518837197005" lon="16.748916699072662"><ele>35.0</ele><time>2026-04-11T13:00:28Z</time></trkpt><trkpt lat="41.15058759248618" lon="16.748837778768777"><ele>35.0</ele><time>2026-04-11T13:00:31Z</time></trkpt><trkpt lat="41.1506535745408" lon="16.748828363858493"><ele>35.0</ele><time>2026-04-11T13:00:33Z</time></trkpt><trkpt lat="41.15073822616317" lon="16.74885584099055"><ele>35.0</ele><time>2026-04-11T13:00:36Z</time></trkpt><trkpt lat="41.15082182311204" lon="16.748911348532378"><ele>35.0</ele><time>2026-04-11T13:00:38Z</time></trkpt><trkpt lat="41.150915108603336" lon="16.748997413920964"><ele>35.0</ele><time>2026-04-11T13:00:40Z</time></trkpt><trkpt lat="41.15098816837764" lon="16.749051207851704"><ele>35.0</ele><time>2026-04-11T13:00:42Z</time></trkpt><trkpt lat="41.151057140337144" lon="16.749048957763787"><ele>34.666666666666664</ele><time>2026-04-11T13:00:44Z</time></trkpt><trkpt lat="41.15115764939615" lon="16.748991892304876"><ele>34.33333333333333</ele><time>2026-04-11T13:00:45.999Z</time></trkpt><trkpt lat="41.15122715743207" lon="16.74896845486518"><ele>34.0</ele><time>2026-04-11T13:00:46.999Z</time></trkpt><trkpt lat="41.15131513539318" lon="16.748938935984476"><ele>33.666666666666664</ele><time>2026-04-11T13:00:47.999Z</time></trkpt><trkpt lat="41.15139414204046" lon="16.748923778275838"><ele>33.333333333333336</ele><time>2026-04-11T13:00:48.999Z</time></trkpt><trkpt lat="41.15145358011397" lon="16.748878996522983"><ele>33.0</ele><time>2026-04-11T13:00:50.999Z</time></trkpt><trkpt lat="41.15137630793356" lon="16.748806993860434"><ele>33.0</ele><time>2026-04-11T13:00:52.999Z</time></trkpt><trkpt lat="41.151269650566185" lon="16.748768806574684"><ele>33.0</ele><time>2026-04-11T13:00:53.999Z</time></trkpt><trkpt lat="41.15114544150385" lon="16.748720926332243"><ele>33.0</ele><time>2026-04-11T13:00:54.999Z</time></trkpt><trkpt lat="41.15100574675451" lon="16.74865106491738"><ele>33.0</ele><time>2026-04-11T13:00:55.999Z</time></trkpt><trkpt lat="41.15088398197472" lon="16.748582389318567"><ele>33.5</ele><time>2026-04-11T13:00:56.999Z</time></trkpt><trkpt lat="41.15077290249578" lon="16.74853377271264"><ele>34.0</ele><time>2026-04-11T13:00:57.999Z</time></trkpt><trkpt lat="41.15066908609563" lon="16.748493228210677"><ele>34.5</ele><time>2026-04-11T13:00:58.999Z</time></trkpt><trkpt lat="41.150596296647734" lon="16.7484589230212"><ele>35.0</ele><time>2026-04-11T13:00:59.999Z</time></trkpt><trkpt lat="41.15053225609109" lon="16.74845521244202"><ele>35.5</ele><time>2026-04-11T13:01:01.999Z</time></trkpt><trkpt lat="41.15045746500954" lon="16.748459553476923"><ele>36.0</ele><time>2026-04-11T13:01:06.999Z</time></trkpt><trkpt lat="41.1503667727961" lon="16.748441048586557"><ele>36.0</ele><time>2026-04-11T13:01:09.999Z</time></trkpt><trkpt lat="41.15030825665074" lon="16.74840619926251"><ele>36.0</ele><time>2026-04-11T13:01:10.999Z</time></trkpt><trkpt lat="41.15024101892756" lon="16.748372107808596"><ele>36.0</ele><time>2026-04-11T13:01:11.999Z</time></trkpt><trkpt lat="41.15015513650639" lon="16.748318570857222"><ele>36.0</ele><time>2026-04-11T13:01:12.999Z</time></trkpt><trkpt lat="41.150056343879434" lon="16.74829004021245"><ele>36.0</ele><time>2026-04-11T13:01:13.999Z</time></trkpt><trkpt lat="41.149971234771705" lon="16.74828644521849"><ele>36.0</ele><time>2026-04-11T13:01:14.999Z</time></trkpt><trkpt lat="41.1498858696629" lon="16.74831264695005"><ele>36.6</ele><time>2026-04-11T13:01:15.999Z</time></trkpt><trkpt lat="41.14979924170242" lon="16.748367270774047"><ele>37.2</ele><time>2026-04-11T13:01:16.999Z</time></trkpt><trkpt lat="41.149717717094966" lon="16.748463728544117"><ele>37.8</ele><time>2026-04-11T13:01:17.999Z</time></trkpt><trkpt lat="41.14963832881998" lon="16.748603015217366"><ele>38.4</ele><time>2026-04-11T13:01:18.999Z</time></trkpt><trkpt lat="41.14958680537964" lon="16.74873235423957"><ele>39.0</ele><time>2026-04-11T13:01:19.999Z</time></trkpt><trkpt lat="41.14955379808503" lon="16.748833553408968"><ele>39.0</ele><time>2026-04-11T13:01:21Z</time></trkpt><trkpt lat="41.14953203756851" lon="16.748929072846437"><ele>39.0</ele><time>2026-04-11T13:01:22Z</time></trkpt><trkpt lat="41.14953379882351" lon="16.749063000331176"><ele>39.0</ele><time>2026-04-11T13:01:24Z</time></trkpt><trkpt lat="41.14967014058744" lon="16.74899895475364"><ele>39.0</ele><time>2026-04-11T13:01:26Z</time></trkpt><trkpt lat="41.14977495361793" lon="16.7488892664526"><ele>38.2</ele><time>2026-04-11T13:01:27Z</time></trkpt><trkpt lat="41.149894434602906" lon="16.74878276538341"><ele>37.4</ele><time>2026-04-11T13:01:28Z</time></trkpt><trkpt lat="41.14998789789961" lon="16.74871603830128"><ele>36.6</ele><time>2026-04-11T13:01:29Z</time></trkpt><trkpt lat="41.15007129251667" lon="16.748676148818024"><ele>35.8</ele><time>2026-04-11T13:01:30Z</time></trkpt><trkpt lat="41.15014649820954" lon="16.74868956528419"><ele>35.0</ele><time>2026-04-11T13:01:31Z</time></trkpt><trkpt lat="41.15020095107367" lon="16.7487341664227"><ele>35.0</ele><time>2026-04-11T13:01:32Z</time></trkpt><trkpt lat="41.150163431259045" lon="16.74888316007849"><ele>35.0</ele><time>2026-04-11T13:01:34Z</time></trkpt><trkpt lat="41.150083351145575" lon="16.748948369829826"><ele>35.0</ele><time>2026-04-11T13:01:35Z</time></trkpt><trkpt lat="41.14999824084158" lon="16.748996188164877"><ele>35.0</ele><time>2026-04-11T13:01:36Z</time></trkpt><trkpt lat="41.149901525353854" lon="16.749033779987474"><ele>35.0</ele><time>2026-04-11T13:01:37Z</time></trkpt><trkpt lat="41.14979148036178" lon="16.749067783898496"><ele>35.0</ele><time>2026-04-11T13:01:38Z</time></trkpt><trkpt lat="41.149698077667225" lon="16.749093319069175"><ele>35.0</ele><time>2026-04-11T13:01:39Z</time></trkpt><trkpt lat="41.149618991979864" lon="16.749166591242286"><ele>35.0</ele><time>2026-04-11T13:01:41Z</time></trkpt><trkpt lat="41.14971255501399" lon="16.749262398904396"><ele>35.0</ele><time>2026-04-11T13:01:43Z</time></trkpt><trkpt lat="41.14981853807929" lon="16.749274264273932"><ele>35.0</ele><time>2026-04-11T13:01:44Z</time></trkpt><trkpt lat="41.14992191427212" lon="16.749287232116096"><ele>35.0</ele><time>2026-04-11T13:01:45Z</time></trkpt><trkpt lat="41.15001854774266" lon="16.749287852515323"><ele>35.0</ele><time>2026-04-11T13:01:46Z</time></trkpt><trkpt lat="41.150117563287196" lon="16.74925384716979"><ele>35.0</ele><time>2026-04-11T13:01:47Z</time></trkpt><trkpt lat="41.15019807472749" lon="16.749221598867756"><ele>35.0</ele><time>2026-04-11T13:01:48Z</time></trkpt><trkpt lat="41.15025968446602" lon="16.749188778873727"><ele>35.0</ele><time>2026-04-11T13:01:49Z</time></trkpt><trkpt lat="41.150305817411756" lon="16.74903728545083"><ele>35.0</ele><time>2026-04-11T13:01:51Z</time></trkpt><trkpt lat="41.15031264458312" lon="16.748923985265442"><ele>35.0</ele><time>2026-04-11T13:01:52Z</time></trkpt><trkpt lat="41.15031862977086" lon="16.748783993308443"><ele>35.0</ele><time>2026-04-11T13:01:53Z</time></trkpt><trkpt lat="41.150314274036845" lon="16.74866937579261"><ele>35.0</ele><time>2026-04-11T13:01:54Z</time></trkpt><trkpt lat="41.15029073391001" lon="16.748579484009486"><ele>35.0</ele><time>2026-04-11T13:01:55Z</time></trkpt><trkpt lat="41.15036543616651" lon="16.74857360316718"><ele>35.0</ele><time>2026-04-11T13:01:58Z</time></trkpt><trkpt lat="41.150404456932456" lon="16.748713442746016"><ele>35.0</ele><time>2026-04-11T13:02:00Z</time></trkpt><trkpt lat="41.150411981937005" lon="16.748840114356696"><ele>35.0</ele><time>2026-04-11T13:02:01Z</time></trkpt><trkpt lat="41.15043362950713" lon="16.748979604989007"><ele>35.0</ele><time>2026-04-11T13:02:02Z</time></trkpt><trkpt lat="41.150467785710944" lon="16.749132796074218"><ele>35.0</ele><time>2026-04-11T13:02:03Z</time></trkpt><trkpt lat="41.15050219607851" lon="16.749220525482674"><ele>35.0</ele><time>2026-04-11T13:02:04Z</time></trkpt><trkpt lat="41.15054667651475" lon="16.749353950381806"><ele>34.5</ele><time>2026-04-11T13:02:06Z</time></trkpt><trkpt lat="41.15071053085619" lon="16.74932915664028"><ele>34.0</ele><time>2026-04-11T13:02:08Z</time></trkpt><trkpt lat="41.15081599535072" lon="16.749281037616083"><ele>33.5</ele><time>2026-04-11T13:02:09Z</time></trkpt><trkpt lat="41.150908544636174" lon="16.749253103445735"><ele>33.0</ele><time>2026-04-11T13:02:10Z</time></trkpt><trkpt lat="41.15100761337956" lon="16.74924534736017"><ele>33.0</ele><time>2026-04-11T13:02:11Z</time></trkpt><trkpt lat="41.15109906497349" lon="16.749257502307003"><ele>33.0</ele><time>2026-04-11T13:02:12Z</time></trkpt><trkpt lat="41.15116316605705" lon="16.749321860681246"><ele>33.0</ele><time>2026-04-11T13:02:13Z</time></trkpt><trkpt lat="41.15122996882352" lon="16.749356422775396"><ele>33.0</ele><time>2026-04-11T13:02:14Z</time></trkpt><trkpt lat="41.15129450081419" lon="16.74923263997098"><ele>33.0</ele><time>2026-04-11T13:02:16Z</time></trkpt><trkpt lat="41.15127950764591" lon="16.749150518003106"><ele>33.0</ele><time>2026-04-11T13:02:17Z</time></trkpt><trkpt lat="41.15119589301596" lon="16.749075073741118"><ele>33.0</ele><time>2026-04-11T13:02:19Z</time></trkpt><trkpt lat="41.151134090967524" lon="16.74909586826535"><ele>33.0</ele><time>2026-04-11T13:02:20Z</time></trkpt><trkpt lat="41.151064730925754" lon="16.749130419790657"><ele>33.0</ele><time>2026-04-11T13:02:21Z</time></trkpt><trkpt lat="41.15097008882217" lon="16.74915019382736"><ele>33.0</ele><time>2026-04-11T13:02:22Z</time></trkpt><trkpt lat="41.15084425442431" lon="16.749139299843605"><ele>33.0</ele><time>2026-04-11T13:02:23Z</time></trkpt><trkpt lat="41.15072045307923" lon="16.749141128424263"><ele>33.333333333333336</ele><time>2026-04-11T13:02:24Z</time></trkpt><trkpt lat="41.150624835689015" lon="16.74916803251485"><ele>33.666666666666664</ele><time>2026-04-11T13:02:25Z</time></trkpt><trkpt lat="41.150561675481335" lon="16.74918166420042"><ele>34.0</ele><time>2026-04-11T13:02:26Z</time></trkpt><trkpt lat="41.15051923724836" lon="16.74908319880555"><ele>34.33333333333333</ele><time>2026-04-11T13:02:28Z</time></trkpt><trkpt lat="41.15050408209159" lon="16.748982255239177"><ele>34.666666666666664</ele><time>2026-04-11T13:02:29Z</time></trkpt><trkpt lat="41.15052398457693" lon="16.748873528256276"><ele>35.0</ele><time>2026-04-11T13:02:31Z</time></trkpt><trkpt lat="41.150577577289624" lon="16.748821875091817"><ele>35.0</ele><time>2026-04-11T13:02:32Z</time></trkpt><trkpt lat="41.15064367456257" lon="16.748814308810417"><ele>35.0</ele><time>2026-04-11T13:02:33Z</time></trkpt><trkpt lat="41.15076811747116" lon="16.748873812854523"><ele>35.0</ele><time>2026-04-11T13:02:35Z</time></trkpt><trkpt lat="41.15085176647467" lon="16.748937271658317"><ele>35.0</ele><time>2026-04-11T13:02:36Z</time></trkpt><trkpt lat="41.150945721760515" lon="16.749013356356308"><ele>35.0</ele><time>2026-04-11T13:02:37Z</time></trkpt><trkpt lat="41.15101475230518" lon="16.749072086825148"><ele>34.666666666666664</ele><time>2026-04-11T13:02:38Z</time></trkpt><trkpt lat="41.15109583307037" lon="16.749027454238565"><ele>34.33333333333333</ele><time>2026-04-11T13:02:41Z</time></trkpt><trkpt lat="41.15116279375884" lon="16.749005577638133"><ele>34.0</ele><time>2026-04-11T13:02:43Z</time></trkpt><trkpt lat="41.15125473077022" lon="16.74897151690515"><ele>33.666666666666664</ele><time>2026-04-11T13:02:45Z</time></trkpt><trkpt lat="41.15136411870845" lon="16.74896022703359"><ele>33.333333333333336</ele><time>2026-04-11T13:02:47Z</time></trkpt><trkpt lat="41.151444109875825" lon="16.748920052712435"><ele>33.0</ele><time>2026-04-11T13:02:49Z</time></trkpt><trkpt lat="41.15142778365943" lon="16.748831847625798"><ele>33.0</ele><time>2026-04-11T13:02:50.999Z</time></trkpt><trkpt lat="41.15131989865449" lon="16.74878628902602"><ele>33.0</ele><time>2026-04-11T13:02:52.999Z</time></trkpt><trkpt lat="41.15123906220102" lon="16.748755258870048"><ele>33.0</ele><time>2026-04-11T13:02:53.999Z</time></trkpt><trkpt lat="41.151142476896595" lon="16.748710980002997"><ele>33.0</ele><time>2026-04-11T13:02:54.999Z</time></trkpt><trkpt lat="41.151015298511005" lon="16.748652465429984"><ele>33.0</ele><time>2026-04-11T13:02:55.999Z</time></trkpt><trkpt lat="41.15089210763622" lon="16.748594002319553"><ele>33.6</ele><time>2026-04-11T13:02:56.999Z</time></trkpt><trkpt lat="41.150781471214444" lon="16.74853888100802"><ele>34.199999999999996</ele><time>2026-04-11T13:02:57.999Z</time></trkpt><trkpt lat="41.15068041358457" lon="16.748497676139735"><ele>34.8</ele><time>2026-04-11T13:02:58.999Z</time></trkpt><trkpt lat="41.150595806999036" lon="16.748462257877627"><ele>35.4</ele><time>2026-04-11T13:02:59.999Z</time></trkpt><trkpt lat="41.1505149508285" lon="16.74846177375149"><ele>36.0</ele><time>2026-04-11T13:03:01.999Z</time></trkpt><trkpt lat="41.150444363401846" lon="16.748444706632686"><ele>36.0</ele><time>2026-04-11T13:03:03.999Z</time></trkpt><trkpt lat="41.15037583292461" lon="16.748421724816154"><ele>36.0</ele><time>2026-04-11T13:03:04.999Z</time></trkpt><trkpt lat="41.150283167388594" lon="16.748390392380536"><ele>36.0</ele><time>2026-04-11T13:03:05.999Z</time></trkpt><trkpt lat="41.15018005918995" lon="16.748349362143873"><ele>36.0</ele><time>2026-04-11T13:03:06.999Z</time></trkpt><trkpt lat="41.15009140729946" lon="16.748291642783457"><ele>36.0</ele><time>2026-04-11T13:03:07.999Z</time></trkpt><trkpt lat="41.15001057649342" lon="16.748275219060446"><ele>36.0</ele><time>2026-04-11T13:03:08.999Z</time></trkpt><trkpt lat="41.14993300579539" lon="16.748294935181782"><ele>36.0</ele><time>2026-04-11T13:03:09.999Z</time></trkpt><trkpt lat="41.149854540340925" lon="16.748348813517094"><ele>36.0</ele><time>2026-04-11T13:03:10.999Z</time></trkpt><trkpt lat="41.14977942913961" lon="16.748425134810013"><ele>36.0</ele><time>2026-04-11T13:03:11.999Z</time></trkpt><trkpt lat="41.14970223259521" lon="16.74852142420255"><ele>36.0</ele><time>2026-04-11T13:03:12.999Z</time></trkpt><trkpt lat="41.149655807645125" lon="16.748638839933385"><ele>36.6</ele><time>2026-04-11T13:03:13.999Z</time></trkpt><trkpt lat="41.1496122714856" lon="16.748752556175813"><ele>37.2</ele><time>2026-04-11T13:03:14.999Z</time></trkpt><trkpt lat="41.149566528156015" lon="16.748843421887653"><ele>37.8</ele><time>2026-04-11T13:03:15.999Z</time></trkpt><trkpt lat="41.149530532575874" lon="16.748934213584892"><ele>38.4</ele><time>2026-04-11T13:03:16.999Z</time></trkpt><trkpt lat="41.149543555789144" lon="16.749073684572032"><ele>39.0</ele><time>2026-04-11T13:03:18.999Z</time></trkpt><trkpt lat="41.14965586744245" lon="16.74902560323804"><ele>39.0</ele><time>2026-04-11T13:03:20.999Z</time></trkpt><trkpt lat="41.14975903551794" lon="16.748907428052703"><ele>39.0</ele><time>2026-04-11T13:03:21.999Z</time></trkpt><trkpt lat="41.14989000017602" lon="16.748789636099914"><ele>39.0</ele><time>2026-04-11T13:03:22.999Z</time></trkpt><trkpt lat="41.14999451074311" lon="16.748722533086568"><ele>39.0</ele><time>2026-04-11T13:03:23.999Z</time></trkpt><trkpt lat="41.15008716431145" lon="16.748702090675703"><ele>38.2</ele><time>2026-04-11T13:03:24.999Z</time></trkpt><trkpt lat="41.15019160431969" lon="16.748752324078342"><ele>37.4</ele><time>2026-04-11T13:03:27Z</time></trkpt><trkpt lat="41.150184990896776" lon="16.748872061617615"><ele>36.6</ele><time>2026-04-11T13:03:29Z</time></trkpt><trkpt lat="41.15012681242874" lon="16.748949940973198"><ele>35.8</ele><time>2026-04-11T13:03:30Z</time></trkpt><trkpt lat="41.15002933888767" lon="16.74900853216243"><ele>35.0</ele><time>2026-04-11T13:03:31Z</time></trkpt><trkpt lat="41.149929504772494" lon="16.749048694293386"><ele>35.8</ele><time>2026-04-11T13:03:32Z</time></trkpt><trkpt lat="41.149821633268026" lon="16.74909088566483"><ele>36.6</ele><time>2026-04-11T13:03:33Z</time></trkpt><trkpt lat="41.149726782639554" lon="16.749124089803708"><ele>37.4</ele><time>2026-04-11T13:03:34Z</time></trkpt><trkpt lat="41.14962957779227" lon="16.74917446849871"><ele>38.2</ele><time>2026-04-11T13:03:36Z</time></trkpt><trkpt lat="41.149729368839" lon="16.74925141570586"><ele>39.0</ele><time>2026-04-11T13:03:39Z</time></trkpt><trkpt lat="41.14982940151926" lon="16.749298413483693"><ele>38.0</ele><time>2026-04-11T13:03:40Z</time></trkpt><trkpt lat="41.14996997567398" lon="16.749298732572356"><ele>37.0</ele><time>2026-04-11T13:03:41Z</time></trkpt><trkpt lat="41.150090272650345" lon="16.74926695483198"><ele>36.0</ele><time>2026-04-11T13:03:42Z</time></trkpt><trkpt lat="41.15019756789799" lon="16.749233885693457"><ele>35.0</ele><time>2026-04-11T13:03:43Z</time></trkpt><trkpt lat="41.150281123948275" lon="16.749199577491712"><ele>35.0</ele><time>2026-04-11T13:03:44Z</time></trkpt><trkpt lat="41.15032147243573" lon="16.7490644352713"><ele>35.0</ele><time>2026-04-11T13:03:46Z</time></trkpt><trkpt lat="41.15031233677745" lon="16.748854533681907"><ele>35.0</ele><time>2026-04-11T13:03:48Z</time></trkpt><trkpt lat="41.150314631139466" lon="16.748719159504"><ele>35.0</ele><time>2026-04-11T13:03:49Z</time></trkpt><trkpt lat="41.15030442494707" lon="16.748607959403305"><ele>35.0</ele><time>2026-04-11T13:03:50Z</time></trkpt><trkpt lat="41.150278335891834" lon="16.748528829784917"><ele>35.0</ele><time>2026-04-11T13:03:51Z</time></trkpt><trkpt lat="41.1503443602709" lon="16.748596508208113"><ele>35.0</ele><time>2026-04-11T13:03:54Z</time></trkpt><trkpt lat="41.15039205031531" lon="16.74874059805099"><ele>35.0</ele><time>2026-04-11T13:03:56Z</time></trkpt><trkpt lat="41.15040850699042" lon="16.748858148791456"><ele>35.0</ele><time>2026-04-11T13:03:57Z</time></trkpt><trkpt lat="41.15044099749375" lon="16.74905241164062"><ele>35.0</ele><time>2026-04-11T13:03:58Z</time></trkpt><trkpt lat="41.1504778738877" lon="16.749187303865252"><ele>35.0</ele><time>2026-04-11T13:03:59Z</time></trkpt><trkpt lat="41.15051436563255" lon="16.74927536847087"><ele>35.0</ele><time>2026-04-11T13:04:00Z</time></trkpt><trkpt lat="41.15057388832282" lon="16.749330330348624"><ele>35.0</ele><time>2026-04-11T13:04:16Z</time></trkpt><trkpt lat="41.150688772800805" lon="16.749542337383883"><ele>34.8</ele><time>2026-04-11T13:04:18Z</time></trkpt><trkpt lat="41.150766881304094" lon="16.749542337384977"><ele>34.6</ele><time>2026-04-11T13:04:19Z</time></trkpt><trkpt lat="41.150864540290954" lon="16.74954233738646"><ele>34.4</ele><time>2026-04-11T13:04:20Z</time></trkpt><trkpt lat="41.15097563635452" lon="16.749542337391123"><ele>34.2</ele><time>2026-04-11T13:04:21Z</time></trkpt><trkpt lat="41.15107627596863" lon="16.74954233739213"><ele>34.0</ele><time>2026-04-11T13:04:22Z</time></trkpt><trkpt lat="41.151163053151464" lon="16.749542337394768"><ele>34.0</ele><time>2026-04-11T13:04:23Z</time></trkpt><trkpt lat="41.15122739926262" lon="16.749542337394942"><ele>34.0</ele><time>2026-04-11T13:04:24Z</time></trkpt><trkpt lat="41.15130211122189" lon="16.749542337392548"><ele>34.0</ele><time>2026-04-11T13:04:26Z</time></trkpt><trkpt lat="41.15127381713442" lon="16.749100260005537"><ele>33.8</ele><time>2026-04-11T13:04:28Z</time></trkpt><trkpt lat="41.15120757223682" lon="16.749067181195052"><ele>33.599999999999994</ele><time>2026-04-11T13:04:30Z</time></trkpt><trkpt lat="41.151142520160754" lon="16.74909110157996"><ele>33.4</ele><time>2026-04-11T13:04:31Z</time></trkpt><trkpt lat="41.15106424723311" lon="16.749143785043465"><ele>33.199999999999996</ele><time>2026-04-11T13:04:32Z</time></trkpt><trkpt lat="41.150960698683946" lon="16.749167265478945"><ele>33.0</ele><time>2026-04-11T13:04:33Z</time></trkpt><trkpt lat="41.1508325644816" lon="16.749145570398802"><ele>33.0</ele><time>2026-04-11T13:04:34Z</time></trkpt><trkpt lat="41.15072021055835" lon="16.749146152506903"><ele>33.0</ele><time>2026-04-11T13:04:35Z</time></trkpt><trkpt lat="41.150641009212535" lon="16.749176710084985"><ele>33.0</ele><time>2026-04-11T13:04:36Z</time></trkpt><trkpt lat="41.15055412257468" lon="16.74916074955608"><ele>33.0</ele><time>2026-04-11T13:04:38Z</time></trkpt><trkpt lat="41.15052802578847" lon="16.748993800025925"><ele>33.0</ele><time>2026-04-11T13:04:40Z</time></trkpt><trkpt lat="41.150528084809146" lon="16.74887126538724"><ele>33.0</ele><time>2026-04-11T13:04:42Z</time></trkpt><trkpt lat="41.1506065634559" lon="16.748774602016464"><ele>33.0</ele><time>2026-04-11T13:04:44Z</time></trkpt><trkpt lat="41.15073779145775" lon="16.748839055532375"><ele>33.0</ele><time>2026-04-11T13:04:46.999Z</time></trkpt><trkpt lat="41.15084271161225" lon="16.748910324098894"><ele>33.0</ele><time>2026-04-11T13:04:47.999Z</time></trkpt><trkpt lat="41.150930510332735" lon="16.7489739510307"><ele>33.0</ele><time>2026-04-11T13:04:48.999Z</time></trkpt><trkpt lat="41.15104726210992" lon="16.749036607742852"><ele>33.0</ele><time>2026-04-11T13:04:49.999Z</time></trkpt><trkpt lat="41.15113941218963" lon="16.748981667320276"><ele>33.0</ele><time>2026-04-11T13:04:51.999Z</time></trkpt><trkpt lat="41.15123631973932" lon="16.748944450592177"><ele>33.0</ele><time>2026-04-11T13:04:52.999Z</time></trkpt><trkpt lat="41.151322041399816" lon="16.748925706868466"><ele>33.0</ele><time>2026-04-11T13:04:53.999Z</time></trkpt><trkpt lat="41.15139189406602" lon="16.74892732977852"><ele>33.0</ele><time>2026-04-11T13:04:54.999Z</time></trkpt><trkpt lat="41.15146686247128" lon="16.748887246852142"><ele>33.0</ele><time>2026-04-11T13:04:56.999Z</time></trkpt><trkpt lat="41.151396867385884" lon="16.748826027557097"><ele>33.0</ele><time>2026-04-11T13:04:58.999Z</time></trkpt><trkpt lat="41.151337140352425" lon="16.74878990195476"><ele>33.0</ele><time>2026-04-11T13:04:59.999Z</time></trkpt><trkpt lat="41.15122620766149" lon="16.74874379849047"><ele>33.0</ele><time>2026-04-11T13:05:00.999Z</time></trkpt><trkpt lat="41.15107806720085" lon="16.748681958601917"><ele>33.0</ele><time>2026-04-11T13:05:01.999Z</time></trkpt><trkpt lat="41.15092459584951" lon="16.748607925674868"><ele>33.0</ele><time>2026-04-11T13:05:02.999Z</time></trkpt><trkpt lat="41.150791604713596" lon="16.748539317876233"><ele>33.0</ele><time>2026-04-11T13:05:03.999Z</time></trkpt><trkpt lat="41.15067956179687" lon="16.74849453799274"><ele>33.0</ele><time>2026-04-11T13:05:04.999Z</time></trkpt><trkpt lat="41.15059588111101" lon="16.748466693195876"><ele>33.6</ele><time>2026-04-11T13:05:05.999Z</time></trkpt><trkpt lat="41.150494416893196" lon="16.748435311301836"><ele>34.199999999999996</ele><time>2026-04-11T13:05:06.999Z</time></trkpt><trkpt lat="41.15042747275258" lon="16.74842258714381"><ele>34.8</ele><time>2026-04-11T13:05:07.999Z</time></trkpt><trkpt lat="41.150302472550344" lon="16.74840286447058"><ele>35.4</ele><time>2026-04-11T13:05:09.999Z</time></trkpt><trkpt lat="41.150213493578136" lon="16.748359358434378"><ele>36.0</ele><time>2026-04-11T13:05:10.999Z</time></trkpt><trkpt lat="41.15011420873846" lon="16.748312021400313"><ele>36.0</ele><time>2026-04-11T13:05:11.999Z</time></trkpt><trkpt lat="41.15002310322936" lon="16.74828974080342"><ele>36.0</ele><time>2026-04-11T13:05:12.999Z</time></trkpt><trkpt lat="41.14992320124782" lon="16.74828493139667"><ele>36.0</ele><time>2026-04-11T13:05:13.999Z</time></trkpt><trkpt lat="41.149834914083534" lon="16.74831200430937"><ele>36.0</ele><time>2026-04-11T13:05:14.999Z</time></trkpt><trkpt lat="41.14976503751193" lon="16.748406439628692"><ele>36.0</ele><time>2026-04-11T13:05:15.999Z</time></trkpt><trkpt lat="41.14969210060649" lon="16.748525941900134"><ele>36.5</ele><time>2026-04-11T13:05:16.999Z</time></trkpt><trkpt lat="41.14964153349365" lon="16.748642422809674"><ele>37.0</ele><time>2026-04-11T13:05:17.999Z</time></trkpt><trkpt lat="41.14960243097219" lon="16.748726811359205"><ele>37.5</ele><time>2026-04-11T13:05:18.999Z</time></trkpt><trkpt lat="41.14956387151779" lon="16.748835671731054"><ele>38.0</ele><time>2026-04-11T13:05:19.999Z</time></trkpt><trkpt lat="41.14953438639096" lon="16.748949032991938"><ele>38.5</ele><time>2026-04-11T13:05:21.999Z</time></trkpt><trkpt lat="41.149576770716344" lon="16.749053059502227"><ele>39.0</ele><time>2026-04-11T13:05:24.999Z</time></trkpt><trkpt lat="41.14966365707782" lon="16.748996007295823"><ele>39.0</ele><time>2026-04-11T13:05:26.999Z</time></trkpt><trkpt lat="41.14972013033583" lon="16.748922176868945"><ele>39.0</ele><time>2026-04-11T13:05:29.999Z</time></trkpt><trkpt lat="41.149767102215385" lon="16.748850731223225"><ele>39.0</ele><time>2026-04-11T13:05:30.999Z</time></trkpt><trkpt lat="41.14986709732751" lon="16.74879229219662"><ele>39.0</ele><time>2026-04-11T13:05:33Z</time></trkpt><trkpt lat="41.149950659439284" lon="16.74873973502747"><ele>39.0</ele><time>2026-04-11T13:05:35Z</time></trkpt><trkpt lat="41.15002990207697" lon="16.748718370060423"><ele>39.0</ele><time>2026-04-11T13:05:37Z</time></trkpt><trkpt lat="41.15010855863798" lon="16.748711470014015"><ele>39.0</ele><time>2026-04-11T13:05:39Z</time></trkpt><trkpt lat="41.150180534421345" lon="16.74876466412437"><ele>39.0</ele><time>2026-04-11T13:05:41Z</time></trkpt><trkpt lat="41.15013997833281" lon="16.74887131602664"><ele>39.0</ele><time>2026-04-11T13:05:44Z</time></trkpt><trkpt lat="41.150073789393964" lon="16.748884981107864"><ele>39.0</ele><time>2026-04-11T13:05:46Z</time></trkpt><trkpt lat="41.149866857399836" lon="16.74904739734806"><ele>39.0</ele><time>2026-04-11T13:05:49Z</time></trkpt><trkpt lat="41.14976968073148" lon="16.749099290956554"><ele>39.0</ele><time>2026-04-11T13:05:50Z</time></trkpt><trkpt lat="41.14966121193847" lon="16.749142841511475"><ele>39.0</ele><time>2026-04-11T13:05:51Z</time></trkpt><trkpt lat="41.149597913569096" lon="16.749170147358168"><ele>39.0</ele><time>2026-04-11T13:05:52Z</time></trkpt><trkpt lat="41.149556239867685" lon="16.749233069264744"><ele>39.0</ele><time>2026-04-11T13:05:54Z</time></trkpt><trkpt lat="41.149654912090256" lon="16.749308886539815"><ele>39.0</ele><time>2026-04-11T13:05:56Z</time></trkpt><trkpt lat="41.149760136261" lon="16.749372646663172"><ele>39.0</ele><time>2026-04-11T13:05:58Z</time></trkpt><trkpt lat="41.14987572944062" lon="16.749341358288085"><ele>39.0</ele><time>2026-04-11T13:06:00Z</time></trkpt><trkpt lat="41.14999647240533" lon="16.749303270168905"><ele>39.0</ele><time>2026-04-11T13:06:01Z</time></trkpt><trkpt lat="41.15006983407686" lon="16.749250197092692"><ele>39.0</ele><time>2026-04-11T13:06:02Z</time></trkpt><trkpt lat="41.150129733646644" lon="16.74918673848914"><ele>38.2</ele><time>2026-04-11T13:06:03Z</time></trkpt><trkpt lat="41.150185767767134" lon="16.74911698416398"><ele>37.4</ele><time>2026-04-11T13:06:04Z</time></trkpt><trkpt lat="41.15022664246966" lon="16.74904544424259"><ele>36.6</ele><time>2026-04-11T13:06:05Z</time></trkpt><trkpt lat="41.15032446174985" lon="16.74878775240863"><ele>35.8</ele><time>2026-04-11T13:06:06Z</time></trkpt><trkpt lat="41.15032029507161" lon="16.748677451271526"><ele>35.0</ele><time>2026-04-11T13:06:07Z</time></trkpt><trkpt lat="41.15029318307945" lon="16.74858596393509"><ele>35.0</ele><time>2026-04-11T13:06:08Z</time></trkpt><trkpt lat="41.15036770833007" lon="16.748610360736603"><ele>35.0</ele><time>2026-04-11T13:06:11Z</time></trkpt><trkpt lat="41.150401840839805" lon="16.748782186091113"><ele>35.0</ele><time>2026-04-11T13:06:13Z</time></trkpt><trkpt lat="41.150423627750286" lon="16.74891406814199"><ele>35.0</ele><time>2026-04-11T13:06:14Z</time></trkpt><trkpt lat="41.1504486508083" lon="16.749056216786563"><ele>35.0</ele><time>2026-04-11T13:06:15Z</time></trkpt><trkpt lat="41.1504996262559" lon="16.749172036482975"><ele>35.0</ele><time>2026-04-11T13:06:16Z</time></trkpt><trkpt lat="41.15051745710677" lon="16.749277033097695"><ele>35.0</ele><time>2026-04-11T13:06:17Z</time></trkpt><trkpt lat="41.15056678937487" lon="16.749350041258825"><ele>35.0</ele><time>2026-04-11T13:06:19Z</time></trkpt><trkpt lat="41.150696709935254" lon="16.749317939498802"><ele>35.0</ele><time>2026-04-11T13:06:21Z</time></trkpt><trkpt lat="41.15079886585958" lon="16.749270998868827"><ele>35.0</ele><time>2026-04-11T13:06:22Z</time></trkpt><trkpt lat="41.15090858363007" lon="16.749236804557043"><ele>34.6</ele><time>2026-04-11T13:06:23Z</time></trkpt><trkpt lat="41.15102025079204" lon="16.749221847442115"><ele>34.2</ele><time>2026-04-11T13:06:24Z</time></trkpt><trkpt lat="41.151122842718294" lon="16.749239068531196"><ele>33.8</ele><time>2026-04-11T13:06:25Z</time></trkpt><trkpt lat="41.15119866832324" lon="16.749280531991978"><ele>33.4</ele><time>2026-04-11T13:06:26Z</time></trkpt><trkpt lat="41.1512578241447" lon="16.74932380164724"><ele>33.0</ele><time>2026-04-11T13:06:27Z</time></trkpt><trkpt lat="41.15128427590899" lon="16.74915472613734"><ele>33.0</ele><time>2026-04-11T13:06:30Z</time></trkpt><trkpt lat="41.151218404649114" lon="16.74907096952178"><ele>33.0</ele><time>2026-04-11T13:06:32Z</time></trkpt><trkpt lat="41.15108921267768" lon="16.74912522674167"><ele>33.0</ele><time>2026-04-11T13:06:34Z</time></trkpt><trkpt lat="41.15100119058301" lon="16.749141596305964"><ele>33.0</ele><time>2026-04-11T13:06:35Z</time></trkpt><trkpt lat="41.15088314031644" lon="16.749137984653327"><ele>33.0</ele><time>2026-04-11T13:06:36Z</time></trkpt><trkpt lat="41.15075374367998" lon="16.74913231478733"><ele>33.333333333333336</ele><time>2026-04-11T13:06:37Z</time></trkpt><trkpt lat="41.150645353320265" lon="16.749164188600613"><ele>33.666666666666664</ele><time>2026-04-11T13:06:38Z</time></trkpt><trkpt lat="41.1505836032068" lon="16.749180849025695"><ele>34.0</ele><time>2026-04-11T13:06:39Z</time></trkpt><trkpt lat="41.15053845463473" lon="16.749103357664413"><ele>34.33333333333333</ele><time>2026-04-11T13:06:41Z</time></trkpt><trkpt lat="41.15052620142041" lon="16.74901060858991"><ele>34.666666666666664</ele><time>2026-04-11T13:06:42Z</time></trkpt><trkpt lat="41.15051437747042" lon="16.74892259659093"><ele>35.0</ele><time>2026-04-11T13:06:43Z</time></trkpt><trkpt lat="41.150595343611606" lon="16.74881823325405"><ele>35.0</ele><time>2026-04-11T13:06:45Z</time></trkpt><trkpt lat="41.150707335621256" lon="16.748827688943877"><ele>35.0</ele><time>2026-04-11T13:06:47Z</time></trkpt><trkpt lat="41.15077355372382" lon="16.748871784138338"><ele>35.0</ele><time>2026-04-11T13:06:48Z</time></trkpt><trkpt lat="41.15085472444279" lon="16.74890916487864"><ele>35.0</ele><time>2026-04-11T13:06:49Z</time></trkpt><trkpt lat="41.15092087333161" lon="16.748968076976833"><ele>35.0</ele><time>2026-04-11T13:06:50Z</time></trkpt><trkpt lat="41.15098735097956" lon="16.749028966619615"><ele>35.0</ele><time>2026-04-11T13:06:51Z</time></trkpt><trkpt lat="41.15104768622174" lon="16.749087990487805"><ele>34.6</ele><time>2026-04-11T13:06:52Z</time></trkpt><trkpt lat="41.15116106597327" lon="16.749024485993793"><ele>34.2</ele><time>2026-04-11T13:06:54Z</time></trkpt><trkpt lat="41.151248723423805" lon="16.748962097510724"><ele>33.8</ele><time>2026-04-11T13:06:55Z</time></trkpt><trkpt lat="41.15135096269" lon="16.748939837564148"><ele>33.4</ele><time>2026-04-11T13:06:56Z</time></trkpt><trkpt lat="41.151417231583366" lon="16.74894739201986"><ele>33.0</ele><time>2026-04-11T13:06:57Z</time></trkpt><trkpt lat="41.15149012057301" lon="16.748906893564907"><ele>33.0</ele><time>2026-04-11T13:06:59Z</time></trkpt><trkpt lat="41.15143907629797" lon="16.74884305219329"><ele>33.0</ele><time>2026-04-11T13:07:00.999Z</time></trkpt><trkpt lat="41.151371697353916" lon="16.748793623710103"><ele>33.0</ele><time>2026-04-11T13:07:02.999Z</time></trkpt><trkpt lat="41.15128285780214" lon="16.748760452367293"><ele>33.0</ele><time>2026-04-11T13:07:03.999Z</time></trkpt><trkpt lat="41.15116810131753" lon="16.748716180324397"><ele>33.0</ele><time>2026-04-11T13:07:04.999Z</time></trkpt><trkpt lat="41.15104400928007" lon="16.748660358890724"><ele>33.0</ele><time>2026-04-11T13:07:05.999Z</time></trkpt><trkpt lat="41.15092835091358" lon="16.74859639990661"><ele>33.0</ele><time>2026-04-11T13:07:06.999Z</time></trkpt><trkpt lat="41.15081453866664" lon="16.748543695225788"><ele>33.0</ele><time>2026-04-11T13:07:07.999Z</time></trkpt><trkpt lat="41.15072219650048" lon="16.74851261356835"><ele>33.0</ele><time>2026-04-11T13:07:08.999Z</time></trkpt><trkpt lat="41.15062727756998" lon="16.748476124555847"><ele>33.0</ele><time>2026-04-11T13:07:09.999Z</time></trkpt><trkpt lat="41.15054714208121" lon="16.748455829831617"><ele>33.6</ele><time>2026-04-11T13:07:10.999Z</time></trkpt><trkpt lat="41.15042872655838" lon="16.74846375890106"><ele>34.199999999999996</ele><time>2026-04-11T13:07:12.999Z</time></trkpt><trkpt lat="41.150355458331234" lon="16.74844864730924"><ele>34.8</ele><time>2026-04-11T13:07:13.999Z</time></trkpt><trkpt lat="41.150269721358676" lon="16.74841211503359"><ele>35.4</ele><time>2026-04-11T13:07:14.999Z</time></trkpt><trkpt lat="41.150173336845235" lon="16.748357592183705"><ele>36.0</ele><time>2026-04-11T13:07:15.999Z</time></trkpt><trkpt lat="41.15007603962451" lon="16.74831370049065"><ele>36.0</ele><time>2026-04-11T13:07:16.999Z</time></trkpt><trkpt lat="41.14998795818888" lon="16.7482962437034"><ele>36.0</ele><time>2026-04-11T13:07:17.999Z</time></trkpt><trkpt lat="41.149902965612" lon="16.748305572040564"><ele>36.0</ele><time>2026-04-11T13:07:18.999Z</time></trkpt><trkpt lat="41.14981781690442" lon="16.748343290195997"><ele>36.0</ele><time>2026-04-11T13:07:19.999Z</time></trkpt><trkpt lat="41.14973583471712" lon="16.74841747351084"><ele>36.0</ele><time>2026-04-11T13:07:20.999Z</time></trkpt><trkpt lat="41.149678910120365" lon="16.748551881487362"><ele>36.5</ele><time>2026-04-11T13:07:21.999Z</time></trkpt><trkpt lat="41.14962804499934" lon="16.74866397359187"><ele>37.0</ele><time>2026-04-11T13:07:22.999Z</time></trkpt><trkpt lat="41.149583995742105" lon="16.748769678746633"><ele>37.5</ele><time>2026-04-11T13:07:23.999Z</time></trkpt><trkpt lat="41.14954716965817" lon="16.74887778725257"><ele>38.0</ele><time>2026-04-11T13:07:24.999Z</time></trkpt><trkpt lat="41.149519538421735" lon="16.74896166901336"><ele>38.5</ele><time>2026-04-11T13:07:25.999Z</time></trkpt><trkpt lat="41.14956349790367" lon="16.74903189830049"><ele>39.0</ele><time>2026-04-11T13:07:27.999Z</time></trkpt><trkpt lat="41.14970432472393" lon="16.748937709612722"><ele>39.0</ele><time>2026-04-11T13:07:29.999Z</time></trkpt><trkpt lat="41.14981338849462" lon="16.74882901742019"><ele>39.0</ele><time>2026-04-11T13:07:30.999Z</time></trkpt><trkpt lat="41.14992252092256" lon="16.748735849142857"><ele>39.0</ele><time>2026-04-11T13:07:31.999Z</time></trkpt><trkpt lat="41.150018428143014" lon="16.748683702303975"><ele>39.0</ele><time>2026-04-11T13:07:32.999Z</time></trkpt><trkpt lat="41.150091780637375" lon="16.748671350556624"><ele>39.0</ele><time>2026-04-11T13:07:33.999Z</time></trkpt><trkpt lat="41.15015177362689" lon="16.748709634632217"><ele>38.2</ele><time>2026-04-11T13:07:34.999Z</time></trkpt><trkpt lat="41.150198774570434" lon="16.748809523723484"><ele>37.4</ele><time>2026-04-11T13:07:36.999Z</time></trkpt><trkpt lat="41.1501514139662" lon="16.748878544351946"><ele>36.6</ele><time>2026-04-11T13:07:37.999Z</time></trkpt><trkpt lat="41.15008260026341" lon="16.748945380591636"><ele>35.8</ele><time>2026-04-11T13:07:39Z</time></trkpt><trkpt lat="41.149985384517755" lon="16.749005641327077"><ele>35.0</ele><time>2026-04-11T13:07:40Z</time></trkpt><trkpt lat="41.1498872591161" lon="16.749029613521188"><ele>35.0</ele><time>2026-04-11T13:07:41Z</time></trkpt><trkpt lat="41.14981522675296" lon="16.749055563535006"><ele>35.0</ele><time>2026-04-11T13:07:42Z</time></trkpt><trkpt lat="41.149722835450454" lon="16.74910745043643"><ele>35.0</ele><time>2026-04-11T13:07:44Z</time></trkpt><trkpt lat="41.14966354427024" lon="16.74916856510288"><ele>35.0</ele><time>2026-04-11T13:07:47Z</time></trkpt><trkpt lat="41.149742370367136" lon="16.749250522170165"><ele>35.0</ele><time>2026-04-11T13:07:49Z</time></trkpt><trkpt lat="41.14981105080913" lon="16.749264028919193"><ele>35.0</ele><time>2026-04-11T13:07:50Z</time></trkpt><trkpt lat="41.14989572340126" lon="16.74927657810115"><ele>35.0</ele><time>2026-04-11T13:07:51Z</time></trkpt><trkpt lat="41.14998743537749" lon="16.74927936995322"><ele>35.0</ele><time>2026-04-11T13:07:52Z</time></trkpt><trkpt lat="41.15006796794211" lon="16.74926769787023"><ele>35.0</ele><time>2026-04-11T13:07:53Z</time></trkpt><trkpt lat="41.150147589055834" lon="16.74924428026579"><ele>35.0</ele><time>2026-04-11T13:07:54Z</time></trkpt><trkpt lat="41.150219879381154" lon="16.749211868022226"><ele>35.0</ele><time>2026-04-11T13:07:55Z</time></trkpt><trkpt lat="41.15028866572115" lon="16.74915175319916"><ele>35.0</ele><time>2026-04-11T13:07:57Z</time></trkpt><trkpt lat="41.150300952443445" lon="16.74898174305615"><ele>35.0</ele><time>2026-04-11T13:07:59Z</time></trkpt><trkpt lat="41.15030125077544" lon="16.74887911927625"><ele>35.0</ele><time>2026-04-11T13:08:00Z</time></trkpt><trkpt lat="41.150311325091295" lon="16.7487643059185"><ele>35.0</ele><time>2026-04-11T13:08:01Z</time></trkpt><trkpt lat="41.150314676409856" lon="16.748655105192572"><ele>35.0</ele><time>2026-04-11T13:08:02Z</time></trkpt><trkpt lat="41.15029094508519" lon="16.74853128796781"><ele>35.0</ele><time>2026-04-11T13:08:04Z</time></trkpt><trkpt lat="41.15037742031897" lon="16.748579093763595"><ele>35.0</ele><time>2026-04-11T13:08:07Z</time></trkpt><trkpt lat="41.15039898701388" lon="16.748707312822113"><ele>35.0</ele><time>2026-04-11T13:08:09Z</time></trkpt><trkpt lat="41.15041562157647" lon="16.748813095545838"><ele>35.0</ele><time>2026-04-11T13:08:10Z</time></trkpt><trkpt lat="41.15042808383189" lon="16.748949917964968"><ele>35.0</ele><time>2026-04-11T13:08:11Z</time></trkpt><trkpt lat="41.150446555611154" lon="16.749053140046776"><ele>35.0</ele><time>2026-04-11T13:08:12Z</time></trkpt><trkpt lat="41.15048520585453" lon="16.749182953256923"><ele>35.0</ele><time>2026-04-11T13:08:14Z</time></trkpt><trkpt lat="41.1505160588039" lon="16.74928987847425"><ele>35.0</ele><time>2026-04-11T13:08:16Z</time></trkpt><trkpt lat="41.15056435836964" lon="16.749344642366744"><ele>35.0</ele><time>2026-04-11T13:08:18Z</time></trkpt><trkpt lat="41.15068152917527" lon="16.749329282315077"><ele>35.0</ele><time>2026-04-11T13:08:20Z</time></trkpt><trkpt lat="41.15076296704897" lon="16.74930402951131"><ele>35.0</ele><time>2026-04-11T13:08:21Z</time></trkpt><trkpt lat="41.15084572221592" lon="16.749542337384106"><ele>34.8</ele><time>2026-04-11T13:08:22Z</time></trkpt><trkpt lat="41.15093178053839" lon="16.749542337386487"><ele>34.6</ele><time>2026-04-11T13:08:23Z</time></trkpt><trkpt lat="41.15100926055404" lon="16.749542337389737"><ele>34.4</ele><time>2026-04-11T13:08:24Z</time></trkpt><trkpt lat="41.15108963899215" lon="16.749542337392928"><ele>34.2</ele><time>2026-04-11T13:08:25Z</time></trkpt><trkpt lat="41.151268634859235" lon="16.7495423373893"><ele>34.0</ele><time>2026-04-11T13:08:28Z</time></trkpt><trkpt lat="41.151280704864824" lon="16.7491479149358"><ele>33.8</ele><time>2026-04-11T13:08:31Z</time></trkpt><trkpt lat="41.15120249263872" lon="16.749068966616548"><ele>33.599999999999994</ele><time>2026-04-11T13:08:33Z</time></trkpt><trkpt lat="41.15114084581785" lon="16.74909696030635"><ele>33.4</ele><time>2026-04-11T13:08:34Z</time></trkpt><trkpt lat="41.15106614142226" lon="16.749129925580416"><ele>33.199999999999996</ele><time>2026-04-11T13:08:35Z</time></trkpt><trkpt lat="41.150975216132636" lon="16.74915246401857"><ele>33.0</ele><time>2026-04-11T13:08:36Z</time></trkpt><trkpt lat="41.15084259218997" lon="16.749146335858565"><ele>33.0</ele><time>2026-04-11T13:08:37Z</time></trkpt><trkpt lat="41.15072409363535" lon="16.749140562256862"><ele>33.0</ele><time>2026-04-11T13:08:38Z</time></trkpt><trkpt lat="41.15063405757873" lon="16.749157148184405"><ele>33.0</ele><time>2026-04-11T13:08:39Z</time></trkpt><trkpt lat="41.15054891333349" lon="16.749146287685946"><ele>33.0</ele><time>2026-04-11T13:08:41Z</time></trkpt><trkpt lat="41.1505157463842" lon="16.748984208664435"><ele>33.0</ele><time>2026-04-11T13:08:43Z</time></trkpt><trkpt lat="41.15053675924336" lon="16.74884995087145"><ele>33.0</ele><time>2026-04-11T13:08:45Z</time></trkpt><trkpt lat="41.15060443840029" lon="16.748796003114318"><ele>33.0</ele><time>2026-04-11T13:08:46Z</time></trkpt><trkpt lat="41.15071532512761" lon="16.748846664309287"><ele>33.0</ele><time>2026-04-11T13:08:48Z</time></trkpt><trkpt lat="41.1507930333763" lon="16.748875727518563"><ele>33.0</ele><time>2026-04-11T13:08:49Z</time></trkpt><trkpt lat="41.1508758543141" lon="16.748926116972548"><ele>33.0</ele><time>2026-04-11T13:08:50Z</time></trkpt><trkpt lat="41.150945896277854" lon="16.74897023108007"><ele>33.0</ele><time>2026-04-11T13:08:51Z</time></trkpt><trkpt lat="41.15100387082075" lon="16.749037478075785"><ele>33.0</ele><time>2026-04-11T13:08:52Z</time></trkpt><trkpt lat="41.15111533329693" lon="16.749006010616018"><ele>33.0</ele><time>2026-04-11T13:08:54Z</time></trkpt><trkpt lat="41.151217964842786" lon="16.74894888583239"><ele>33.0</ele><time>2026-04-11T13:08:55Z</time></trkpt><trkpt lat="41.15131003794083" lon="16.748922748999263"><ele>33.0</ele><time>2026-04-11T13:08:56Z</time></trkpt><trkpt lat="41.15138645676224" lon="16.748929777499193"><ele>33.0</ele><time>2026-04-11T13:08:57Z</time></trkpt><trkpt lat="41.15146350971829" lon="16.74889751205513"><ele>33.0</ele><time>2026-04-11T13:08:59Z</time></trkpt><trkpt lat="41.151418932993856" lon="16.748815436754764"><ele>33.0</ele><time>2026-04-11T13:09:01Z</time></trkpt><trkpt lat="41.151323265455396" lon="16.748775447525723"><ele>33.0</ele><time>2026-04-11T13:09:01.999Z</time></trkpt><trkpt lat="41.151173487130926" lon="16.748727182368366"><ele>33.0</ele><time>2026-04-11T13:09:02.999Z</time></trkpt><trkpt lat="41.1510328669512" lon="16.74866520561222"><ele>33.0</ele><time>2026-04-11T13:09:03.999Z</time></trkpt><trkpt lat="41.15090116506275" lon="16.748586430814164"><ele>33.0</ele><time>2026-04-11T13:09:04.999Z</time></trkpt><trkpt lat="41.15077048210404" lon="16.74852596312703"><ele>33.0</ele><time>2026-04-11T13:09:05.999Z</time></trkpt><trkpt lat="41.15066719674765" lon="16.74848939383337"><ele>33.0</ele><time>2026-04-11T13:09:06.999Z</time></trkpt><trkpt lat="41.15057444210066" lon="16.74845659415617"><ele>33.6</ele><time>2026-04-11T13:09:07.999Z</time></trkpt><trkpt lat="41.15049914022239" lon="16.748448693845962"><ele>34.199999999999996</ele><time>2026-04-11T13:09:08.999Z</time></trkpt><trkpt lat="41.1503927668216" lon="16.748435439526396"><ele>34.8</ele><time>2026-04-11T13:09:10.999Z</time></trkpt><trkpt lat="41.150314571409034" lon="16.74841528389253"><ele>35.4</ele><time>2026-04-11T13:09:11.999Z</time></trkpt><trkpt lat="41.150223115874844" lon="16.748375370786576"><ele>36.0</ele><time>2026-04-11T13:09:12.999Z</time></trkpt><trkpt lat="41.150121456952384" lon="16.74830793689475"><ele>36.0</ele><time>2026-04-11T13:09:13.999Z</time></trkpt><trkpt lat="41.15002947447595" lon="16.7482828490276"><ele>36.0</ele><time>2026-04-11T13:09:14.999Z</time></trkpt><trkpt lat="41.14994669214137" lon="16.748290392377626"><ele>36.0</ele><time>2026-04-11T13:09:15.999Z</time></trkpt><trkpt lat="41.14987073498069" lon="16.74831935352897"><ele>36.0</ele><time>2026-04-11T13:09:16.999Z</time></trkpt><trkpt lat="41.14980623252483" lon="16.74838323262518"><ele>36.0</ele><time>2026-04-11T13:09:17.999Z</time></trkpt><trkpt lat="41.14973704098191" lon="16.748490928574487"><ele>36.0</ele><time>2026-04-11T13:09:18.999Z</time></trkpt><trkpt lat="41.14966551566246" lon="16.748622134071443"><ele>36.6</ele><time>2026-04-11T13:09:19.999Z</time></trkpt><trkpt lat="41.149608664480965" lon="16.748736769434004"><ele>37.2</ele><time>2026-04-11T13:09:20.999Z</time></trkpt><trkpt lat="41.149577734039774" lon="16.74884044821191"><ele>37.8</ele><time>2026-04-11T13:09:21.999Z</time></trkpt><trkpt lat="41.149534403028014" lon="16.74894138089725"><ele>38.4</ele><time>2026-04-11T13:09:22.999Z</time></trkpt><trkpt lat="41.149550933603074" lon="16.749065574971524"><ele>39.0</ele><time>2026-04-11T13:09:24.999Z</time></trkpt><trkpt lat="41.14966581745085" lon="16.749023234434713"><ele>39.0</ele><time>2026-04-11T13:09:26.999Z</time></trkpt><trkpt lat="41.1497825106217" lon="16.748904836045693"><ele>39.0</ele><time>2026-04-11T13:09:27.999Z</time></trkpt><trkpt lat="41.1499248633022" lon="16.74878088229508"><ele>39.0</ele><time>2026-04-11T13:09:28.999Z</time></trkpt><trkpt lat="41.150039122595395" lon="16.74870959104556"><ele>39.0</ele><time>2026-04-11T13:09:29.999Z</time></trkpt><trkpt lat="41.15011016155228" lon="16.7486947402332"><ele>38.2</ele><time>2026-04-11T13:09:30.999Z</time></trkpt><trkpt lat="41.150205443045415" lon="16.74874186980385"><ele>37.4</ele><time>2026-04-11T13:09:32.999Z</time></trkpt><trkpt lat="41.15019931851325" lon="16.7489008646019"><ele>36.6</ele><time>2026-04-11T13:09:34.999Z</time></trkpt><trkpt lat="41.15013646263974" lon="16.748984057914235"><ele>35.8</ele><time>2026-04-11T13:09:35.999Z</time></trkpt><trkpt lat="41.150049464840734" lon="16.749033640404992"><ele>35.0</ele><time>2026-04-11T13:09:36.999Z</time></trkpt><trkpt lat="41.14992509128254" lon="16.74905987052996"><ele>35.8</ele><time>2026-04-11T13:09:37.999Z</time></trkpt><trkpt lat="41.14982629019184" lon="16.749071350265798"><ele>36.6</ele><time>2026-04-11T13:09:38.999Z</time></trkpt><trkpt lat="41.14974243099467" lon="16.749119817714753"><ele>37.4</ele><time>2026-04-11T13:09:39.999Z</time></trkpt><trkpt lat="41.14968204479891" lon="16.749181158249698"><ele>38.2</ele><time>2026-04-11T13:09:41.999Z</time></trkpt><trkpt lat="41.14972589172798" lon="16.74926173268518"><ele>39.0</ele><time>2026-04-11T13:09:46Z</time></trkpt><trkpt lat="41.14984492867142" lon="16.749287766743553"><ele>38.2</ele><time>2026-04-11T13:09:48Z</time></trkpt><trkpt lat="41.149951436251214" lon="16.74929679537712"><ele>37.4</ele><time>2026-04-11T13:09:49Z</time></trkpt><trkpt lat="41.15004672285932" lon="16.749289763454083"><ele>36.6</ele><time>2026-04-11T13:09:50Z</time></trkpt><trkpt lat="41.150137830190275" lon="16.749256946191664"><ele>35.8</ele><time>2026-04-11T13:09:51Z</time></trkpt><trkpt lat="41.15021721815843" lon="16.749233776688374"><ele>35.0</ele><time>2026-04-11T13:09:52Z</time></trkpt><trkpt lat="41.150282893301906" lon="16.749165431957536"><ele>35.0</ele><time>2026-04-11T13:09:54Z</time></trkpt><trkpt lat="41.1502784936319" lon="16.74906883908624"><ele>35.0</ele><time>2026-04-11T13:09:57Z</time></trkpt><trkpt lat="41.15024917303058" lon="16.748902916112517"><ele>35.0</ele><time>2026-04-11T13:10:00Z</time></trkpt><trkpt lat="41.1502881680752" lon="16.74873669018126"><ele>35.0</ele><time>2026-04-11T13:10:02Z</time></trkpt><trkpt lat="41.15028897448412" lon="16.748635077994102"><ele>35.0</ele><time>2026-04-11T13:10:03Z</time></trkpt><trkpt lat="41.150282920912865" lon="16.74854529814732"><ele>35.0</ele><time>2026-04-11T13:10:04Z</time></trkpt><trkpt lat="41.15027856316345" lon="16.74842964994466"><ele>35.0</ele><time>2026-04-11T13:10:06Z</time></trkpt><trkpt lat="41.150345844403915" lon="16.7485665458465"><ele>35.0</ele><time>2026-04-11T13:10:09Z</time></trkpt><trkpt lat="41.150363523932796" lon="16.748701302165045"><ele>35.0</ele><time>2026-04-11T13:10:11Z</time></trkpt><trkpt lat="41.15038008447935" lon="16.748815698484194"><ele>35.0</ele><time>2026-04-11T13:10:12Z</time></trkpt><trkpt lat="41.150399745591436" lon="16.748917826461795"><ele>35.0</ele><time>2026-04-11T13:10:13Z</time></trkpt><trkpt lat="41.1504139091888" lon="16.748999834066804"><ele>35.0</ele><time>2026-04-11T13:10:14Z</time></trkpt><trkpt lat="41.15044700620824" lon="16.74910916063655"><ele>35.0</ele><time>2026-04-11T13:10:16Z</time></trkpt><trkpt lat="41.15047467723124" lon="16.749206410137205"><ele>35.0</ele><time>2026-04-11T13:10:18Z</time></trkpt><trkpt lat="41.15051533873647" lon="16.749305266917318"><ele>35.0</ele><time>2026-04-11T13:10:21Z</time></trkpt><trkpt lat="41.15058174682799" lon="16.749345204162633"><ele>35.0</ele><time>2026-04-11T13:10:24Z</time></trkpt><trkpt lat="41.150692438341686" lon="16.749317778093765"><ele>34.75</ele><time>2026-04-11T13:10:41Z</time></trkpt><trkpt lat="41.150761720666196" lon="16.749301155961657"><ele>34.5</ele><time>2026-04-11T13:10:42Z</time></trkpt><trkpt lat="41.15083269872312" lon="16.749281028851534"><ele>34.25</ele><time>2026-04-11T13:10:43Z</time></trkpt><trkpt lat="41.15096965512899" lon="16.74954233738414"><ele>34.0</ele><time>2026-04-11T13:10:45Z</time></trkpt><trkpt lat="41.151072427885666" lon="16.749542337384785"><ele>34.0</ele><time>2026-04-11T13:10:47Z</time></trkpt><trkpt lat="41.15113886606078" lon="16.749542337388107"><ele>34.0</ele><time>2026-04-11T13:10:49Z</time></trkpt><trkpt lat="41.15132066283308" lon="16.74911634944634"><ele>34.0</ele><time>2026-04-11T13:10:56Z</time></trkpt><trkpt lat="41.1513499727774" lon="16.749033057173566"><ele>33.833333333333336</ele><time>2026-04-11T13:10:57Z</time></trkpt><trkpt lat="41.15139803336328" lon="16.748953010249792"><ele>33.66666666666667</ele><time>2026-04-11T13:10:58Z</time></trkpt><trkpt lat="41.151460695774794" lon="16.74886983363201"><ele>33.5</ele><time>2026-04-11T13:11:00Z</time></trkpt><trkpt lat="41.15141492032641" lon="16.748807591881228"><ele>33.333333333333336</ele><time>2026-04-11T13:11:03Z</time></trkpt><trkpt lat="41.15135143619146" lon="16.748783736921744"><ele>33.166666666666664</ele><time>2026-04-11T13:11:04Z</time></trkpt><trkpt lat="41.151259307872074" lon="16.748752736366715"><ele>33.0</ele><time>2026-04-11T13:11:05Z</time></trkpt><trkpt lat="41.151130655777514" lon="16.748703166778448"><ele>33.0</ele><time>2026-04-11T13:11:06Z</time></trkpt><trkpt lat="41.15100744766083" lon="16.748636466825957"><ele>33.0</ele><time>2026-04-11T13:11:07Z</time></trkpt><trkpt lat="41.150885540839894" lon="16.748563003257352"><ele>33.0</ele><time>2026-04-11T13:11:07.999Z</time></trkpt><trkpt lat="41.15076491562678" lon="16.74851192868605"><ele>33.0</ele><time>2026-04-11T13:11:08.999Z</time></trkpt><trkpt lat="41.15065263624905" lon="16.748482007759144"><ele>33.6</ele><time>2026-04-11T13:11:09.999Z</time></trkpt><trkpt lat="41.1505485263634" lon="16.748447906872816"><ele>34.199999999999996</ele><time>2026-04-11T13:11:10.999Z</time></trkpt><trkpt lat="41.15048215265327" lon="16.748422059243463"><ele>34.8</ele><time>2026-04-11T13:11:11.999Z</time></trkpt><trkpt lat="41.150346444441105" lon="16.748390642889778"><ele>35.4</ele><time>2026-04-11T13:11:13.999Z</time></trkpt><trkpt lat="41.15025331127649" lon="16.748355204835466"><ele>36.0</ele><time>2026-04-11T13:11:14.999Z</time></trkpt><trkpt lat="41.15017594693585" lon="16.748307761785004"><ele>36.0</ele><time>2026-04-11T13:11:15.999Z</time></trkpt><trkpt lat="41.15011024202205" lon="16.748275712471724"><ele>36.0</ele><time>2026-04-11T13:11:16.999Z</time></trkpt><trkpt lat="41.15004198108681" lon="16.74827641146182"><ele>36.0</ele><time>2026-04-11T13:11:17.999Z</time></trkpt><trkpt lat="41.14997341069878" lon="16.7482828510642"><ele>36.0</ele><time>2026-04-11T13:11:18.999Z</time></trkpt><trkpt lat="41.149900113955404" lon="16.748302516443033"><ele>36.0</ele><time>2026-04-11T13:11:19.999Z</time></trkpt><trkpt lat="41.149820661968825" lon="16.74836036962077"><ele>36.0</ele><time>2026-04-11T13:11:20.999Z</time></trkpt><trkpt lat="41.14974915503438" lon="16.74844414321625"><ele>36.5</ele><time>2026-04-11T13:11:21.999Z</time></trkpt><trkpt lat="41.149696615515595" lon="16.74854773721352"><ele>37.0</ele><time>2026-04-11T13:11:22.999Z</time></trkpt><trkpt lat="41.14964344349949" lon="16.7486583020384"><ele>37.5</ele><time>2026-04-11T13:11:23.999Z</time></trkpt><trkpt lat="41.14960183289908" lon="16.748767198492995"><ele>38.0</ele><time>2026-04-11T13:11:24.999Z</time></trkpt><trkpt lat="41.14958077441278" lon="16.748847577080237"><ele>38.5</ele><time>2026-04-11T13:11:25.999Z</time></trkpt><trkpt lat="41.14954719904142" lon="16.748931318798572"><ele>39.0</ele><time>2026-04-11T13:11:27.999Z</time></trkpt><trkpt lat="41.14956468425742" lon="16.749051625005798"><ele>39.0</ele><time>2026-04-11T13:22:18.999Z</time></trkpt><trkpt lat="41.14965198514322" lon="16.749023897886996"><ele>39.0</ele><time>2026-04-11T13:22:21Z</time></trkpt><trkpt lat="41.149704240528024" lon="16.748964716007315"><ele>39.0</ele><time>2026-04-11T13:22:22Z</time></trkpt><trkpt lat="41.14978648313693" lon="16.748891017257566"><ele>39.0</ele><time>2026-04-11T13:22:23Z</time></trkpt><trkpt lat="41.14985703034046" lon="16.748831166567452"><ele>39.0</ele><time>2026-04-11T13:22:24Z</time></trkpt><trkpt lat="41.149933084477" lon="16.748770151042713"><ele>39.0</ele><time>2026-04-11T13:22:25Z</time></trkpt><trkpt lat="41.15000188390029" lon="16.74872315618645"><ele>38.2</ele><time>2026-04-11T13:22:26Z</time></trkpt><trkpt lat="41.15011250292623" lon="16.74870785063668"><ele>37.4</ele><time>2026-04-11T13:22:28Z</time></trkpt><trkpt lat="41.150199306611405" lon="16.74873073872396"><ele>36.6</ele><time>2026-04-11T13:22:30Z</time></trkpt><trkpt lat="41.15019743153172" lon="16.74884968724525"><ele>35.8</ele><time>2026-04-11T13:22:32Z</time></trkpt><trkpt lat="41.150137749748716" lon="16.748919855751957"><ele>35.0</ele><time>2026-04-11T13:22:33Z</time></trkpt><trkpt lat="41.15005588433426" lon="16.74897911723363"><ele>35.0</ele><time>2026-04-11T13:22:34Z</time></trkpt><trkpt lat="41.14996837908774" lon="16.7490199017829"><ele>35.0</ele><time>2026-04-11T13:22:35Z</time></trkpt><trkpt lat="41.14987131028448" lon="16.74905248340554"><ele>35.0</ele><time>2026-04-11T13:22:36Z</time></trkpt><trkpt lat="41.14977965144463" lon="16.749078451444188"><ele>35.0</ele><time>2026-04-11T13:22:37Z</time></trkpt><trkpt lat="41.14970431477636" lon="16.749105022564677"><ele>35.0</ele><time>2026-04-11T13:22:38Z</time></trkpt><trkpt lat="41.149619084466465" lon="16.74916028292615"><ele>35.0</ele><time>2026-04-11T13:22:40Z</time></trkpt><trkpt lat="41.14966178394076" lon="16.749238001537062"><ele>35.0</ele><time>2026-04-11T13:22:42Z</time></trkpt><trkpt lat="41.149781071770114" lon="16.749274726635154"><ele>35.0</ele><time>2026-04-11T13:22:44Z</time></trkpt><trkpt lat="41.14985044410412" lon="16.74927777729317"><ele>35.0</ele><time>2026-04-11T13:22:45Z</time></trkpt><trkpt lat="41.1499332026241" lon="16.749290026996807"><ele>35.0</ele><time>2026-04-11T13:22:46Z</time></trkpt><trkpt lat="41.1500200710277" lon="16.74928324031034"><ele>35.0</ele><time>2026-04-11T13:22:47Z</time></trkpt><trkpt lat="41.15009378800023" lon="16.74925944801187"><ele>35.0</ele><time>2026-04-11T13:22:48Z</time></trkpt><trkpt lat="41.15020713773494" lon="16.749219120237896"><ele>35.0</ele><time>2026-04-11T13:22:50Z</time></trkpt><trkpt lat="41.15029208911755" lon="16.749142325771437"><ele>35.0</ele><time>2026-04-11T13:22:52Z</time></trkpt><trkpt lat="41.150294342280105" lon="16.749032181527937"><ele>35.0</ele><time>2026-04-11T13:22:54Z</time></trkpt><trkpt lat="41.150306674199314" lon="16.74888775265695"><ele>35.0</ele><time>2026-04-11T13:22:56Z</time></trkpt><trkpt lat="41.15032253798933" lon="16.74871566865049"><ele>35.0</ele><time>2026-04-11T13:22:58Z</time></trkpt><trkpt lat="41.150310848178165" lon="16.74862541385381"><ele>35.0</ele><time>2026-04-11T13:22:59Z</time></trkpt><trkpt lat="41.15030444833617" lon="16.748523218322905"><ele>35.0</ele><time>2026-04-11T13:23:01Z</time></trkpt><trkpt lat="41.15038248631536" lon="16.74861669344381"><ele>35.0</ele><time>2026-04-11T13:23:03Z</time></trkpt><trkpt lat="41.150403858916015" lon="16.748773087083027"><ele>35.0</ele><time>2026-04-11T13:23:05Z</time></trkpt><trkpt lat="41.150413574499645" lon="16.748878097951945"><ele>35.0</ele><time>2026-04-11T13:23:06Z</time></trkpt><trkpt lat="41.1504395149094" lon="16.74900200919817"><ele>35.0</ele><time>2026-04-11T13:23:07Z</time></trkpt><trkpt lat="41.15046913528714" lon="16.749126003463637"><ele>35.0</ele><time>2026-04-11T13:23:08Z</time></trkpt><trkpt lat="41.15050347646166" lon="16.74923602105192"><ele>35.0</ele><time>2026-04-11T13:23:09Z</time></trkpt><trkpt lat="41.15052896138821" lon="16.749315115254202"><ele>35.0</ele><time>2026-04-11T13:23:10Z</time></trkpt><trkpt lat="41.15059809168094" lon="16.749378377479797"><ele>35.0</ele><time>2026-04-11T13:23:12Z</time></trkpt><trkpt lat="41.15066493644035" lon="16.749358958616554"><ele>34.75</ele><time>2026-04-11T13:23:13Z</time></trkpt><trkpt lat="41.15075598832941" lon="16.749542337376955"><ele>34.5</ele><time>2026-04-11T13:23:14Z</time></trkpt><trkpt lat="41.15085956287734" lon="16.749542337378674"><ele>34.25</ele><time>2026-04-11T13:23:15Z</time></trkpt><trkpt lat="41.150967275909714" lon="16.749542337381264"><ele>34.0</ele><time>2026-04-11T13:23:16Z</time></trkpt><trkpt lat="41.15106206539874" lon="16.749542337384593"><ele>34.0</ele><time>2026-04-11T13:23:17Z</time></trkpt><trkpt lat="41.15116090266896" lon="16.749542337387968"><ele>34.0</ele><time>2026-04-11T13:23:18Z</time></trkpt><trkpt lat="41.1512316154959" lon="16.749542337385357"><ele>34.0</ele><time>2026-04-11T13:23:19Z</time></trkpt><trkpt lat="41.151281480240364" lon="16.749195566647693"><ele>34.0</ele><time>2026-04-11T13:23:22Z</time></trkpt><trkpt lat="41.1512751563514" lon="16.749104804409097"><ele>33.8</ele><time>2026-04-11T13:23:23Z</time></trkpt><trkpt lat="41.15117387165344" lon="16.749095180377612"><ele>33.599999999999994</ele><time>2026-04-11T13:23:25Z</time></trkpt><trkpt lat="41.15111433986541" lon="16.74912551727382"><ele>33.4</ele><time>2026-04-11T13:23:26Z</time></trkpt><trkpt lat="41.15104171466091" lon="16.749148793002167"><ele>33.199999999999996</ele><time>2026-04-11T13:23:27Z</time></trkpt><trkpt lat="41.150934302062275" lon="16.749158385219168"><ele>33.0</ele><time>2026-04-11T13:23:27.999Z</time></trkpt><trkpt lat="41.15079683217938" lon="16.749153198308925"><ele>33.333333333333336</ele><time>2026-04-11T13:23:28.999Z</time></trkpt><trkpt lat="41.15069552132874" lon="16.749167015204904"><ele>33.666666666666664</ele><time>2026-04-11T13:23:29.999Z</time></trkpt><trkpt lat="41.15061947291922" lon="16.74919685525018"><ele>34.0</ele><time>2026-04-11T13:23:30.999Z</time></trkpt><trkpt lat="41.15054883542627" lon="16.749127539104688"><ele>34.33333333333333</ele><time>2026-04-11T13:23:32.999Z</time></trkpt><trkpt lat="41.15052897204904" lon="16.7490130874996"><ele>34.666666666666664</ele><time>2026-04-11T13:23:33.999Z</time></trkpt><trkpt lat="41.15052086123368" lon="16.748929273394232"><ele>35.0</ele><time>2026-04-11T13:23:34.999Z</time></trkpt><trkpt lat="41.150599062430715" lon="16.74881636395566"><ele>35.0</ele><time>2026-04-11T13:23:36.999Z</time></trkpt><trkpt lat="41.15066553580215" lon="16.748809545584145"><ele>35.0</ele><time>2026-04-11T13:23:37.999Z</time></trkpt><trkpt lat="41.15074335119037" lon="16.748829362987795"><ele>35.0</ele><time>2026-04-11T13:23:38.999Z</time></trkpt><trkpt lat="41.15081156333158" lon="16.74887844485168"><ele>35.0</ele><time>2026-04-11T13:23:39.999Z</time></trkpt><trkpt lat="41.150885496405614" lon="16.748925030700907"><ele>35.0</ele><time>2026-04-11T13:23:40.999Z</time></trkpt><trkpt lat="41.15096029924023" lon="16.748988362612884"><ele>35.0</ele><time>2026-04-11T13:23:41.999Z</time></trkpt><trkpt lat="41.151015745109284" lon="16.7490563948298"><ele>34.6</ele><time>2026-04-11T13:23:42.999Z</time></trkpt><trkpt lat="41.15112353134187" lon="16.74904825587178"><ele>34.2</ele><time>2026-04-11T13:23:44.999Z</time></trkpt><trkpt lat="41.15119980587181" lon="16.748990884396804"><ele>33.8</ele><time>2026-04-11T13:23:45.999Z</time></trkpt><trkpt lat="41.15130415374587" lon="16.748945865339646"><ele>33.4</ele><time>2026-04-11T13:23:46.999Z</time></trkpt><trkpt lat="41.15139257425819" lon="16.748950736847803"><ele>33.0</ele><time>2026-04-11T13:23:47.999Z</time></trkpt><trkpt lat="41.15147268812526" lon="16.74891562557764"><ele>33.0</ele><time>2026-04-11T13:23:49.999Z</time></trkpt><trkpt lat="41.15142170848581" lon="16.74882852321091"><ele>33.0</ele><time>2026-04-11T13:23:51.999Z</time></trkpt><trkpt lat="41.15135353172704" lon="16.74879207402775"><ele>33.0</ele><time>2026-04-11T13:23:52.999Z</time></trkpt><trkpt lat="41.1512522778927" lon="16.748750467209444"><ele>33.0</ele><time>2026-04-11T13:23:53.999Z</time></trkpt><trkpt lat="41.15112739799045" lon="16.748698445924077"><ele>33.0</ele><time>2026-04-11T13:23:54.999Z</time></trkpt><trkpt lat="41.15097857402359" lon="16.74863601626814"><ele>33.0</ele><time>2026-04-11T13:23:55.999Z</time></trkpt><trkpt lat="41.15083448589684" lon="16.748562021685586"><ele>33.0</ele><time>2026-04-11T13:23:56.999Z</time></trkpt><trkpt lat="41.150731236272584" lon="16.748517745806133"><ele>33.0</ele><time>2026-04-11T13:23:57.999Z</time></trkpt><trkpt lat="41.150624714638205" lon="16.748474572049755"><ele>33.0</ele><time>2026-04-11T13:23:58.999Z</time></trkpt><trkpt lat="41.15054262164097" lon="16.748456924554414"><ele>33.6</ele><time>2026-04-11T13:23:59.999Z</time></trkpt><trkpt lat="41.15047376360439" lon="16.74845681201268"><ele>34.199999999999996</ele><time>2026-04-11T13:24:00.999Z</time></trkpt><trkpt lat="41.150339598231305" lon="16.748425248058325"><ele>34.8</ele><time>2026-04-11T13:24:02.999Z</time></trkpt><trkpt lat="41.15025816295053" lon="16.748391923084302"><ele>35.4</ele><time>2026-04-11T13:24:03.999Z</time></trkpt><trkpt lat="41.15016075054312" lon="16.7483248080448"><ele>36.0</ele><time>2026-04-11T13:24:04.999Z</time></trkpt><trkpt lat="41.15007437354887" lon="16.748277266760066"><ele>36.0</ele><time>2026-04-11T13:24:05.999Z</time></trkpt><trkpt lat="41.14999152561946" lon="16.748260400495912"><ele>36.0</ele><time>2026-04-11T13:24:06.999Z</time></trkpt><trkpt lat="41.14991527956004" lon="16.748275097083898"><ele>36.0</ele><time>2026-04-11T13:24:07.999Z</time></trkpt><trkpt lat="41.1498464484355" lon="16.7483227814962"><ele>36.0</ele><time>2026-04-11T13:24:08.999Z</time></trkpt><trkpt lat="41.149762248566425" lon="16.748433378332862"><ele>36.0</ele><time>2026-04-11T13:24:09.999Z</time></trkpt><trkpt lat="41.149680391407024" lon="16.748580814916483"><ele>36.5</ele><time>2026-04-11T13:24:10.999Z</time></trkpt><trkpt lat="41.149626428797035" lon="16.748711254197325"><ele>37.0</ele><time>2026-04-11T13:24:11.999Z</time></trkpt><trkpt lat="41.149584421009735" lon="16.74881127697365"><ele>37.5</ele><time>2026-04-11T13:24:12.999Z</time></trkpt><trkpt lat="41.14955334338171" lon="16.74890076379545"><ele>38.0</ele><time>2026-04-11T13:24:13.999Z</time></trkpt><trkpt lat="41.14953214709812" lon="16.748994164744442"><ele>38.5</ele><time>2026-04-11T13:24:14.999Z</time></trkpt><trkpt lat="41.149591531533474" lon="16.749082578825846"><ele>39.0</ele><time>2026-04-11T13:24:16.999Z</time></trkpt><trkpt lat="41.149667123250275" lon="16.749029358444385"><ele>39.0</ele><time>2026-04-11T13:24:17.999Z</time></trkpt><trkpt lat="41.14975204897481" lon="16.74893490516936"><ele>39.0</ele><time>2026-04-11T13:24:18.999Z</time></trkpt><trkpt lat="41.149864736322385" lon="16.74882150182508"><ele>39.0</ele><time>2026-04-11T13:24:19.999Z</time></trkpt><trkpt lat="41.14996789599124" lon="16.74874511166108"><ele>39.0</ele><time>2026-04-11T13:24:20.999Z</time></trkpt><trkpt lat="41.15005912624683" lon="16.748695004705155"><ele>38.333333333333336</ele><time>2026-04-11T13:24:21.999Z</time></trkpt><trkpt lat="41.150131164087384" lon="16.748687739674242"><ele>37.666666666666664</ele><time>2026-04-11T13:24:22.999Z</time></trkpt><trkpt lat="41.15018858005463" lon="16.74872220786703"><ele>37.0</ele><time>2026-04-11T13:24:23.999Z</time></trkpt><trkpt lat="41.15020856311696" lon="16.748844851904245"><ele>36.33333333333333</ele><time>2026-04-11T13:24:26Z</time></trkpt><trkpt lat="41.15015456873107" lon="16.748919606889295"><ele>35.666666666666664</ele><time>2026-04-11T13:24:27Z</time></trkpt><trkpt lat="41.15006989156218" lon="16.74897902177136"><ele>35.0</ele><time>2026-04-11T13:24:28Z</time></trkpt><trkpt lat="41.14996986286816" lon="16.74902802234731"><ele>35.8</ele><time>2026-04-11T13:24:29Z</time></trkpt><trkpt lat="41.149857212078416" lon="16.74906298968633"><ele>36.6</ele><time>2026-04-11T13:24:30Z</time></trkpt><trkpt lat="41.149757821480534" lon="16.74910662986841"><ele>37.4</ele><time>2026-04-11T13:24:31Z</time></trkpt><trkpt lat="41.14968520794649" lon="16.74912628479184"><ele>38.2</ele><time>2026-04-11T13:24:32Z</time></trkpt><trkpt lat="41.14965111228002" lon="16.74920705193413"><ele>39.0</ele><time>2026-04-11T13:24:34Z</time></trkpt><trkpt lat="41.14975461334956" lon="16.749297287102994"><ele>39.0</ele><time>2026-04-11T13:24:36Z</time></trkpt><trkpt lat="41.149864397266974" lon="16.749309388124136"><ele>39.0</ele><time>2026-04-11T13:24:37Z</time></trkpt><trkpt lat="41.149970977244145" lon="16.74931054555002"><ele>39.0</ele><time>2026-04-11T13:24:38Z</time></trkpt><trkpt lat="41.1500691863859" lon="16.749290515678386"><ele>39.0</ele><time>2026-04-11T13:24:39Z</time></trkpt><trkpt lat="41.150170593717526" lon="16.74925370224234"><ele>39.0</ele><time>2026-04-11T13:24:40Z</time></trkpt><trkpt lat="41.15024946372607" lon="16.74922193908607"><ele>38.2</ele><time>2026-04-11T13:24:41Z</time></trkpt><trkpt lat="41.150305427854434" lon="16.749109486605715"><ele>37.4</ele><time>2026-04-11T13:24:43Z</time></trkpt><trkpt lat="41.15031703396961" lon="16.748929123523823"><ele>36.6</ele><time>2026-04-11T13:24:45Z</time></trkpt><trkpt lat="41.150323176843216" lon="16.748810165044908"><ele>35.8</ele><time>2026-04-11T13:24:46Z</time></trkpt><trkpt lat="41.15033663553634" lon="16.748700948389487"><ele>35.0</ele><time>2026-04-11T13:24:47Z</time></trkpt><trkpt lat="41.150301804435955" lon="16.748600431264524"><ele>35.0</ele><time>2026-04-11T13:24:48Z</time></trkpt><trkpt lat="41.15034840766979" lon="16.74851331103396"><ele>35.0</ele><time>2026-04-11T13:24:50Z</time></trkpt><trkpt lat="41.15038543430702" lon="16.748654866876862"><ele>35.0</ele><time>2026-04-11T13:24:52Z</time></trkpt><trkpt lat="41.150404228756486" lon="16.74874463387409"><ele>35.0</ele><time>2026-04-11T13:24:53Z</time></trkpt><trkpt lat="41.15042284230858" lon="16.74888156177042"><ele>35.0</ele><time>2026-04-11T13:24:54Z</time></trkpt><trkpt lat="41.150449385478964" lon="16.749032700022557"><ele>35.0</ele><time>2026-04-11T13:24:55Z</time></trkpt><trkpt lat="41.15048483931976" lon="16.749152934932702"><ele>35.0</ele><time>2026-04-11T13:24:56Z</time></trkpt><trkpt lat="41.15051789221701" lon="16.74925649289903"><ele>35.0</ele><time>2026-04-11T13:24:57Z</time></trkpt><trkpt lat="41.15058342880745" lon="16.74934916516874"><ele>35.0</ele><time>2026-04-11T13:24:59Z</time></trkpt><trkpt lat="41.15066514253882" lon="16.749336099745584"><ele>35.0</ele><time>2026-04-11T13:25:00Z</time></trkpt><trkpt lat="41.150759985320775" lon="16.74929637850309"><ele>34.6</ele><time>2026-04-11T13:25:01Z</time></trkpt><trkpt lat="41.15085127438394" lon="16.749258384443653"><ele>34.2</ele><time>2026-04-11T13:25:02Z</time></trkpt><trkpt lat="41.150968590429464" lon="16.749252944458398"><ele>33.8</ele><time>2026-04-11T13:25:03Z</time></trkpt><trkpt lat="41.151065970220365" lon="16.74925775018378"><ele>33.4</ele><time>2026-04-11T13:25:04Z</time></trkpt><trkpt lat="41.15115219477004" lon="16.749269882290452"><ele>33.0</ele><time>2026-04-11T13:25:05Z</time></trkpt><trkpt lat="41.151219616670346" lon="16.749311303442315"><ele>33.0</ele><time>2026-04-11T13:25:06Z</time></trkpt><trkpt lat="41.15128020096861" lon="16.74926769027314"><ele>33.0</ele><time>2026-04-11T13:25:08Z</time></trkpt><trkpt lat="41.151281604362744" lon="16.749124138527108"><ele>33.0</ele><time>2026-04-11T13:25:10Z</time></trkpt><trkpt lat="41.15120172321189" lon="16.74907557998778"><ele>33.0</ele><time>2026-04-11T13:25:12Z</time></trkpt><trkpt lat="41.151140720175356" lon="16.749107164752186"><ele>33.0</ele><time>2026-04-11T13:25:13Z</time></trkpt><trkpt lat="41.151065318197496" lon="16.749145706161173"><ele>33.0</ele><time>2026-04-11T13:25:14Z</time></trkpt><trkpt lat="41.15094182454734" lon="16.749149124218622"><ele>33.0</ele><time>2026-04-11T13:25:15Z</time></trkpt><trkpt lat="41.15081042967348" lon="16.74914074732785"><ele>33.0</ele><time>2026-04-11T13:25:16Z</time></trkpt><trkpt lat="41.15068891501753" lon="16.74913808360842"><ele>33.0</ele><time>2026-04-11T13:25:17Z</time></trkpt><trkpt lat="41.15061912348479" lon="16.749178440324116"><ele>33.0</ele><time>2026-04-11T13:25:18Z</time></trkpt><trkpt lat="41.15054607767195" lon="16.7491488112426"><ele>33.0</ele><time>2026-04-11T13:25:20Z</time></trkpt><trkpt lat="41.150528997304434" lon="16.7490390101929"><ele>33.0</ele><time>2026-04-11T13:25:21Z</time></trkpt><trkpt lat="41.150513894164526" lon="16.748918947096197"><ele>33.0</ele><time>2026-04-11T13:25:22Z</time></trkpt><trkpt lat="41.1505809740137" lon="16.748752978714307"><ele>33.0</ele><time>2026-04-11T13:25:24Z</time></trkpt><trkpt lat="41.15064763472859" lon="16.748785920402675"><ele>33.0</ele><time>2026-04-11T13:25:25Z</time></trkpt><trkpt lat="41.15071477836655" lon="16.74882217827087"><ele>33.0</ele><time>2026-04-11T13:25:26Z</time></trkpt><trkpt lat="41.1508000871822" lon="16.74885567795569"><ele>33.0</ele><time>2026-04-11T13:25:27Z</time></trkpt><trkpt lat="41.15090360734254" lon="16.748901233606322"><ele>33.0</ele><time>2026-04-11T13:25:28Z</time></trkpt><trkpt lat="41.1509950379865" lon="16.748993414918445"><ele>33.0</ele><time>2026-04-11T13:25:29Z</time></trkpt><trkpt lat="41.15105577505828" lon="16.74905203385133"><ele>33.0</ele><time>2026-04-11T13:25:30Z</time></trkpt><trkpt lat="41.15114569049546" lon="16.74900583906519"><ele>33.0</ele><time>2026-04-11T13:25:32Z</time></trkpt><trkpt lat="41.15123117729033" lon="16.748970583986925"><ele>33.0</ele><time>2026-04-11T13:25:33Z</time></trkpt><trkpt lat="41.1513244355699" lon="16.74895382252188"><ele>33.0</ele><time>2026-04-11T13:25:34Z</time></trkpt><trkpt lat="41.151398649382784" lon="16.748953142952697"><ele>33.0</ele><time>2026-04-11T13:25:35Z</time></trkpt><trkpt lat="41.15146127839405" lon="16.7489397552241"><ele>33.0</ele><time>2026-04-11T13:25:35.999Z</time></trkpt><trkpt lat="41.15147138750241" lon="16.748844410393364"><ele>33.0</ele><time>2026-04-11T13:25:37.999Z</time></trkpt><trkpt lat="41.15132110801834" lon="16.748773672511636"><ele>33.0</ele><time>2026-04-11T13:25:39.999Z</time></trkpt><trkpt lat="41.15120516144963" lon="16.748722634492"><ele>33.0</ele><time>2026-04-11T13:25:40.999Z</time></trkpt><trkpt lat="41.1510641095401" lon="16.74866018181941"><ele>33.0</ele><time>2026-04-11T13:25:41.999Z</time></trkpt><trkpt lat="41.15091617781363" lon="16.748592780024996"><ele>33.0</ele><time>2026-04-11T13:25:42.999Z</time></trkpt><trkpt lat="41.1507776999014" lon="16.748528583088735"><ele>33.6</ele><time>2026-04-11T13:25:43.999Z</time></trkpt><trkpt lat="41.15066858184549" lon="16.748487604393834"><ele>34.199999999999996</ele><time>2026-04-11T13:25:44.999Z</time></trkpt><trkpt lat="41.15056879541063" lon="16.748448787821108"><ele>34.8</ele><time>2026-04-11T13:25:45.999Z</time></trkpt><trkpt lat="41.1504829501556" lon="16.748422640240925"><ele>35.4</ele><time>2026-04-11T13:25:46.999Z</time></trkpt><trkpt lat="41.150410441157604" lon="16.748410173955175"><ele>36.0</ele><time>2026-04-11T13:25:47.999Z</time></trkpt><trkpt lat="41.150323880007555" lon="16.748402979890145"><ele>36.0</ele><time>2026-04-11T13:25:48.999Z</time></trkpt><trkpt lat="41.150238422873905" lon="16.748379253483957"><ele>36.0</ele><time>2026-04-11T13:25:49.999Z</time></trkpt><trkpt lat="41.150145755271" lon="16.748326656078437"><ele>36.0</ele><time>2026-04-11T13:25:50.999Z</time></trkpt><trkpt lat="41.150044131465776" lon="16.74828531400515"><ele>36.0</ele><time>2026-04-11T13:25:51.999Z</time></trkpt><trkpt lat="41.14994682601962" lon="16.748282656790487"><ele>36.0</ele><time>2026-04-11T13:25:52.999Z</time></trkpt><trkpt lat="41.14985010863967" lon="16.748320076406607"><ele>36.6</ele><time>2026-04-11T13:25:53.999Z</time></trkpt><trkpt lat="41.14977277294987" lon="16.74842215329578"><ele>37.2</ele><time>2026-04-11T13:25:54.999Z</time></trkpt><trkpt lat="41.14969057614222" lon="16.748546307285217"><ele>37.8</ele><time>2026-04-11T13:25:55.999Z</time></trkpt><trkpt lat="41.149634011024176" lon="16.748661318442753"><ele>38.4</ele><time>2026-04-11T13:25:56.999Z</time></trkpt><trkpt lat="41.14959440855132" lon="16.748757342224888"><ele>39.0</ele><time>2026-04-11T13:25:57.999Z</time></trkpt><trkpt lat="41.149550652948975" lon="16.74887655471348"><ele>39.0</ele><time>2026-04-11T13:25:58.999Z</time></trkpt><trkpt lat="41.1495338596524" lon="16.748965394430787"><ele>39.0</ele><time>2026-04-11T13:25:59.999Z</time></trkpt><trkpt lat="41.14958628960088" lon="16.74905699983484"><ele>39.0</ele><time>2026-04-11T13:26:01.999Z</time></trkpt><trkpt lat="41.14964841658093" lon="16.74901793160627"><ele>39.0</ele><time>2026-04-11T13:26:02.999Z</time></trkpt><trkpt lat="41.149741327176095" lon="16.748920218985045"><ele>39.0</ele><time>2026-04-11T13:26:03.999Z</time></trkpt><trkpt lat="41.14984180669579" lon="16.7488080745729"><ele>38.2</ele><time>2026-04-11T13:26:04.999Z</time></trkpt><trkpt lat="41.14995691961827" lon="16.74873438824554"><ele>37.4</ele><time>2026-04-11T13:26:05.999Z</time></trkpt><trkpt lat="41.15005263947743" lon="16.748685139890064"><ele>36.6</ele><time>2026-04-11T13:26:06.999Z</time></trkpt><trkpt lat="41.15014403623959" lon="16.74867586166739"><ele>35.8</ele><time>2026-04-11T13:26:07.999Z</time></trkpt><trkpt lat="41.15021160794514" lon="16.748768290580106"><ele>35.0</ele><time>2026-04-11T13:26:09.999Z</time></trkpt><trkpt lat="41.15013227413396" lon="16.74890961976806"><ele>35.0</ele><time>2026-04-11T13:26:11.999Z</time></trkpt><trkpt lat="41.150034998342285" lon="16.748981328953267"><ele>35.0</ele><time>2026-04-11T13:26:12.999Z</time></trkpt><trkpt lat="41.149921979922695" lon="16.74903397691775"><ele>35.0</ele><time>2026-04-11T13:26:13.999Z</time></trkpt><trkpt lat="41.14978913709524" lon="16.749076395684824"><ele>35.0</ele><time>2026-04-11T13:26:14.999Z</time></trkpt><trkpt lat="41.14969723577634" lon="16.749116138869447"><ele>35.0</ele><time>2026-04-11T13:26:15.999Z</time></trkpt><trkpt lat="41.14962302974668" lon="16.749184260125208"><ele>35.0</ele><time>2026-04-11T13:26:17.999Z</time></trkpt><trkpt lat="41.14971079054049" lon="16.749253218760852"><ele>35.0</ele><time>2026-04-11T13:26:19.999Z</time></trkpt><trkpt lat="41.14982321249277" lon="16.74928897048497"><ele>35.0</ele><time>2026-04-11T13:26:20.999Z</time></trkpt><trkpt lat="41.14994485730704" lon="16.749308539274555"><ele>35.0</ele><time>2026-04-11T13:26:21.999Z</time></trkpt><trkpt lat="41.1500566456447" lon="16.749295196807232"><ele>35.0</ele><time>2026-04-11T13:26:22.999Z</time></trkpt><trkpt lat="41.15017169153145" lon="16.74925588220218"><ele>35.0</ele><time>2026-04-11T13:26:23.999Z</time></trkpt><trkpt lat="41.15025650623538" lon="16.749221785852328"><ele>35.0</ele><time>2026-04-11T13:26:24.999Z</time></trkpt><trkpt lat="41.15030611830011" lon="16.749167947611404"><ele>35.0</ele><time>2026-04-11T13:26:25.999Z</time></trkpt><trkpt lat="41.150335426185876" lon="16.748994959906835"><ele>35.0</ele><time>2026-04-11T13:26:27.999Z</time></trkpt><trkpt lat="41.150335890044545" lon="16.748843803689812"><ele>35.0</ele><time>2026-04-11T13:26:28.999Z</time></trkpt><trkpt lat="41.15033099472892" lon="16.748687932021834"><ele>35.0</ele><time>2026-04-11T13:26:29.999Z</time></trkpt><trkpt lat="41.150331455135515" lon="16.748591588897053"><ele>35.0</ele><time>2026-04-11T13:26:30.999Z</time></trkpt><trkpt lat="41.15040335730048" lon="16.748637678751383"><ele>35.0</ele><time>2026-04-11T13:26:37Z</time></trkpt><trkpt lat="41.15040980440695" lon="16.74877067929289"><ele>35.0</ele><time>2026-04-11T13:26:38Z</time></trkpt><trkpt lat="41.15042819846799" lon="16.74893588769291"><ele>35.0</ele><time>2026-04-11T13:26:39Z</time></trkpt><trkpt lat="41.15046230890794" lon="16.749105605656315"><ele>35.0</ele><time>2026-04-11T13:26:40Z</time></trkpt><trkpt lat="41.15050117043097" lon="16.74922285472669"><ele>35.0</ele><time>2026-04-11T13:26:41Z</time></trkpt><trkpt lat="41.15055027683154" lon="16.749365164831605"><ele>35.0</ele><time>2026-04-11T13:26:43Z</time></trkpt><trkpt lat="41.150627783103594" lon="16.749388882976508"><ele>35.0</ele><time>2026-04-11T13:26:44Z</time></trkpt><trkpt lat="41.15074030013502" lon="16.749408052421394"><ele>34.75</ele><time>2026-04-11T13:26:45Z</time></trkpt><trkpt lat="41.150870007786935" lon="16.7493967626947"><ele>34.5</ele><time>2026-04-11T13:26:46Z</time></trkpt><trkpt lat="41.15098438638754" lon="16.74933801804799"><ele>34.25</ele><time>2026-04-11T13:26:47Z</time></trkpt><trkpt lat="41.15108700161776" lon="16.749309384488374"><ele>34.0</ele><time>2026-04-11T13:26:48Z</time></trkpt><trkpt lat="41.15118494252274" lon="16.74932437895505"><ele>33.833333333333336</ele><time>2026-04-11T13:26:49Z</time></trkpt><trkpt lat="41.151249654232316" lon="16.749354317472896"><ele>33.66666666666667</ele><time>2026-04-11T13:26:50Z</time></trkpt><trkpt lat="41.15126827594642" lon="16.749225511920777"><ele>33.5</ele><time>2026-04-11T13:26:53Z</time></trkpt><trkpt lat="41.151276504012216" lon="16.749141097214743"><ele>33.333333333333336</ele><time>2026-04-11T13:26:54Z</time></trkpt><trkpt lat="41.15119771591794" lon="16.749106673225022"><ele>33.166666666666664</ele><time>2026-04-11T13:26:56Z</time></trkpt><trkpt lat="41.151130865866854" lon="16.749120317594887"><ele>33.0</ele><time>2026-04-11T13:26:57Z</time></trkpt><trkpt lat="41.15104241350824" lon="16.74915990288014"><ele>33.0</ele><time>2026-04-11T13:26:58Z</time></trkpt><trkpt lat="41.150928801046746" lon="16.749173864589242"><ele>33.0</ele><time>2026-04-11T13:26:59Z</time></trkpt><trkpt lat="41.15080387645598" lon="16.74915373485164"><ele>33.0</ele><time>2026-04-11T13:27:00Z</time></trkpt><trkpt lat="41.150704353147326" lon="16.749162702495422"><ele>33.0</ele><time>2026-04-11T13:27:01Z</time></trkpt><trkpt lat="41.15061593588851" lon="16.749194814154084"><ele>33.0</ele><time>2026-04-11T13:27:02Z</time></trkpt><trkpt lat="41.15055762611085" lon="16.749159523425142"><ele>33.0</ele><time>2026-04-11T13:27:04Z</time></trkpt><trkpt lat="41.15052588931832" lon="16.74902572136148"><ele>33.0</ele><time>2026-04-11T13:27:05Z</time></trkpt><trkpt lat="41.15050836983322" lon="16.748929595002128"><ele>33.0</ele><time>2026-04-11T13:27:06Z</time></trkpt><trkpt lat="41.15061145656186" lon="16.748809326475538"><ele>33.0</ele><time>2026-04-11T13:27:08Z</time></trkpt><trkpt lat="41.15073829784078" lon="16.748858712051955"><ele>33.0</ele><time>2026-04-11T13:27:10Z</time></trkpt><trkpt lat="41.15081999072225" lon="16.748898865842545"><ele>33.0</ele><time>2026-04-11T13:27:11Z</time></trkpt><trkpt lat="41.1509169672044" lon="16.748965703567237"><ele>33.0</ele><time>2026-04-11T13:27:12Z</time></trkpt><trkpt lat="41.15099331529527" lon="16.749047116361105"><ele>33.0</ele><time>2026-04-11T13:27:13Z</time></trkpt><trkpt lat="41.15105036093033" lon="16.749095798648085"><ele>33.0</ele><time>2026-04-11T13:27:14Z</time></trkpt><trkpt lat="41.1511828872481" lon="16.749005147075675"><ele>33.0</ele><time>2026-04-11T13:27:16Z</time></trkpt><trkpt lat="41.15128008153422" lon="16.74895567116389"><ele>33.0</ele><time>2026-04-11T13:27:17Z</time></trkpt><trkpt lat="41.15136885367618" lon="16.74894758104911"><ele>33.0</ele><time>2026-04-11T13:27:18Z</time></trkpt><trkpt lat="41.15146372685261" lon="16.748912892422705"><ele>33.0</ele><time>2026-04-11T13:27:20Z</time></trkpt><trkpt lat="41.15139742215371" lon="16.748811225216908"><ele>33.0</ele><time>2026-04-11T13:27:23Z</time></trkpt><trkpt lat="41.151316319733326" lon="16.748766635642856"><ele>33.0</ele><time>2026-04-11T13:27:24Z</time></trkpt><trkpt lat="41.15119944758364" lon="16.748728137861097"><ele>33.0</ele><time>2026-04-11T13:27:25Z</time></trkpt><trkpt lat="41.15106650969888" lon="16.748674200848995"><ele>33.0</ele><time>2026-04-11T13:27:26Z</time></trkpt><trkpt lat="41.150935623060015" lon="16.748606394377905"><ele>33.0</ele><time>2026-04-11T13:27:27Z</time></trkpt><trkpt lat="41.150820452970805" lon="16.748553101280592"><ele>33.0</ele><time>2026-04-11T13:27:28Z</time></trkpt><trkpt lat="41.1507012922274" lon="16.748512745421426"><ele>33.6</ele><time>2026-04-11T13:27:29Z</time></trkpt><trkpt lat="41.150600865100834" lon="16.74846581036826"><ele>34.199999999999996</ele><time>2026-04-11T13:27:30Z</time></trkpt><trkpt lat="41.15051307241201" lon="16.748447917886015"><ele>34.8</ele><time>2026-04-11T13:27:31Z</time></trkpt><trkpt lat="41.15044472100057" lon="16.748454000943365"><ele>35.4</ele><time>2026-04-11T13:27:32Z</time></trkpt><trkpt lat="41.15031375554791" lon="16.74841083308185"><ele>36.0</ele><time>2026-04-11T13:27:34Z</time></trkpt><trkpt lat="41.15022444260292" lon="16.74836685762289"><ele>36.0</ele><time>2026-04-11T13:27:35Z</time></trkpt><trkpt lat="41.1501225798817" lon="16.74832531993204"><ele>36.0</ele><time>2026-04-11T13:27:36Z</time></trkpt><trkpt lat="41.15002384871256" lon="16.74828823328785"><ele>36.0</ele><time>2026-04-11T13:27:37Z</time></trkpt><trkpt lat="41.1499459378145" lon="16.74829068745582"><ele>36.0</ele><time>2026-04-11T13:27:38Z</time></trkpt><trkpt lat="41.149861711749026" lon="16.74833047374809"><ele>36.0</ele><time>2026-04-11T13:27:39Z</time></trkpt><trkpt lat="41.149775295023076" lon="16.74841377048276"><ele>36.6</ele><time>2026-04-11T13:27:40Z</time></trkpt><trkpt lat="41.14969726859074" lon="16.748527261112923"><ele>37.2</ele><time>2026-04-11T13:27:40.999Z</time></trkpt><trkpt lat="41.14962971162392" lon="16.74866816966704"><ele>37.8</ele><time>2026-04-11T13:27:41.999Z</time></trkpt><trkpt lat="41.1495818707385" lon="16.74878222459092"><ele>38.4</ele><time>2026-04-11T13:27:42.999Z</time></trkpt><trkpt lat="41.14955065922273" lon="16.74890037633192"><ele>39.0</ele><time>2026-04-11T13:27:43.999Z</time></trkpt><trkpt lat="41.149531527764914" lon="16.748993404702716"><ele>39.0</ele><time>2026-04-11T13:27:44.999Z</time></trkpt><trkpt lat="41.149579238415626" lon="16.749077649423562"><ele>39.0</ele><time>2026-04-11T13:27:46.999Z</time></trkpt><trkpt lat="41.149649701957934" lon="16.749039595431565"><ele>39.0</ele><time>2026-04-11T13:27:47.999Z</time></trkpt><trkpt lat="41.14973817247389" lon="16.74895001779303"><ele>39.0</ele><time>2026-04-11T13:27:48.999Z</time></trkpt><trkpt lat="41.14984437035238" lon="16.74883283182587"><ele>39.0</ele><time>2026-04-11T13:27:49.999Z</time></trkpt><trkpt lat="41.14996952961169" lon="16.748720693040394"><ele>38.333333333333336</ele><time>2026-04-11T13:27:50.999Z</time></trkpt><trkpt lat="41.15007138876778" lon="16.74868638429177"><ele>37.666666666666664</ele><time>2026-04-11T13:27:51.999Z</time></trkpt><trkpt lat="41.15015362907694" lon="16.74870255372194"><ele>37.0</ele><time>2026-04-11T13:27:52.999Z</time></trkpt><trkpt lat="41.15021675479542" lon="16.748778989974053"><ele>36.33333333333333</ele><time>2026-04-11T13:27:54.999Z</time></trkpt><trkpt lat="41.15016063886409" lon="16.748861530376487"><ele>35.666666666666664</ele><time>2026-04-11T13:27:55.999Z</time></trkpt><trkpt lat="41.15009109824583" lon="16.74893557239066"><ele>35.0</ele><time>2026-04-11T13:27:56.999Z</time></trkpt><trkpt lat="41.14998937070886" lon="16.74899474647667"><ele>35.0</ele><time>2026-04-11T13:27:57.999Z</time></trkpt><trkpt lat="41.14988396518081" lon="16.749044991419222"><ele>35.0</ele><time>2026-04-11T13:27:58.999Z</time></trkpt><trkpt lat="41.149764913967665" lon="16.74908286187531"><ele>35.0</ele><time>2026-04-11T13:27:59.999Z</time></trkpt><trkpt lat="41.14965793807383" lon="16.74911672065895"><ele>35.0</ele><time>2026-04-11T13:28:00.999Z</time></trkpt><trkpt lat="41.14962019915373" lon="16.749194118861965"><ele>35.0</ele><time>2026-04-11T13:28:02.999Z</time></trkpt><trkpt lat="41.14972901529038" lon="16.74928650938566"><ele>35.0</ele><time>2026-04-11T13:28:04.999Z</time></trkpt><trkpt lat="41.14984163075598" lon="16.749288294576864"><ele>35.0</ele><time>2026-04-11T13:28:05.999Z</time></trkpt><trkpt lat="41.14995414845953" lon="16.749290241673542"><ele>35.0</ele><time>2026-04-11T13:28:06.999Z</time></trkpt><trkpt lat="41.15006552441306" lon="16.74926586567576"><ele>35.0</ele><time>2026-04-11T13:28:07.999Z</time></trkpt><trkpt lat="41.15015264563233" lon="16.74923495244334"><ele>35.0</ele><time>2026-04-11T13:28:08.999Z</time></trkpt><trkpt lat="41.150219377333684" lon="16.749200341134674"><ele>35.0</ele><time>2026-04-11T13:28:09.999Z</time></trkpt><trkpt lat="41.150273726706665" lon="16.74907301016216"><ele>35.0</ele><time>2026-04-11T13:28:11.999Z</time></trkpt><trkpt lat="41.150274665831994" lon="16.74896397843484"><ele>35.0</ele><time>2026-04-11T13:28:12.999Z</time></trkpt><trkpt lat="41.15027987443996" lon="16.74881700457266"><ele>35.0</ele><time>2026-04-11T13:28:13.999Z</time></trkpt><trkpt lat="41.15029942583283" lon="16.74868464050918"><ele>35.0</ele><time>2026-04-11T13:28:14.999Z</time></trkpt><trkpt lat="41.150275564444065" lon="16.748602927405127"><ele>35.0</ele><time>2026-04-11T13:28:15.999Z</time></trkpt><trkpt lat="41.15029228053114" lon="16.74850833563098"><ele>35.0</ele><time>2026-04-11T13:28:17.999Z</time></trkpt><trkpt lat="41.15034311646149" lon="16.748582087589913"><ele>35.0</ele><time>2026-04-11T13:28:18.999Z</time></trkpt><trkpt lat="41.15037844032559" lon="16.748736272962077"><ele>35.0</ele><time>2026-04-11T13:28:20.999Z</time></trkpt><trkpt lat="41.15039902225599" lon="16.74888600698526"><ele>35.0</ele><time>2026-04-11T13:28:21.999Z</time></trkpt><trkpt lat="41.150425493582325" lon="16.74902866590883"><ele>35.0</ele><time>2026-04-11T13:28:22.999Z</time></trkpt><trkpt lat="41.15045815241784" lon="16.749179642156818"><ele>35.0</ele><time>2026-04-11T13:28:23.999Z</time></trkpt><trkpt lat="41.15050364596739" lon="16.749300860489107"><ele>35.0</ele><time>2026-04-11T13:28:24.999Z</time></trkpt><trkpt lat="41.150580643457786" lon="16.74936460927312"><ele>35.0</ele><time>2026-04-11T13:28:26.999Z</time></trkpt><trkpt lat="41.150669071182655" lon="16.749342919914294"><ele>35.0</ele><time>2026-04-11T13:28:27.999Z</time></trkpt><trkpt lat="41.15077972351782" lon="16.74929564481299"><ele>34.6</ele><time>2026-04-11T13:28:28.999Z</time></trkpt><trkpt lat="41.15089405464501" lon="16.749243431177575"><ele>34.2</ele><time>2026-04-11T13:28:29.999Z</time></trkpt><trkpt lat="41.15101151109608" lon="16.749239375893687"><ele>33.8</ele><time>2026-04-11T13:28:30.999Z</time></trkpt><trkpt lat="41.151123049828676" lon="16.74926327922703"><ele>33.4</ele><time>2026-04-11T13:28:31.999Z</time></trkpt><trkpt lat="41.15119496229678" lon="16.74929575934839"><ele>33.0</ele><time>2026-04-11T13:28:32.999Z</time></trkpt><trkpt lat="41.151267680564345" lon="16.74923385193985"><ele>33.0</ele><time>2026-04-11T13:28:35.999Z</time></trkpt><trkpt lat="41.15124461045316" lon="16.749090789034497"><ele>33.0</ele><time>2026-04-11T13:28:38Z</time></trkpt><trkpt lat="41.1511461281216" lon="16.749100135308495"><ele>33.0</ele><time>2026-04-11T13:28:40Z</time></trkpt><trkpt lat="41.151025573952424" lon="16.749166342433586"><ele>33.0</ele><time>2026-04-11T13:28:42Z</time></trkpt><trkpt lat="41.15090706113759" lon="16.749163828287834"><ele>33.0</ele><time>2026-04-11T13:28:43Z</time></trkpt><trkpt lat="41.15075491212783" lon="16.749165977909623"><ele>33.0</ele><time>2026-04-11T13:28:44Z</time></trkpt><trkpt lat="41.15064309535163" lon="16.74919054224427"><ele>33.0</ele><time>2026-04-11T13:28:45Z</time></trkpt><trkpt lat="41.150544055783165" lon="16.749208929442958"><ele>33.0</ele><time>2026-04-11T13:28:46Z</time></trkpt><trkpt lat="41.15049301654904" lon="16.74914863158195"><ele>33.0</ele><time>2026-04-11T13:28:47Z</time></trkpt><trkpt lat="41.150520980264304" lon="16.7490611180357"><ele>33.0</ele><time>2026-04-11T13:28:48Z</time></trkpt><trkpt lat="41.150496041786525" lon="16.748962830206896"><ele>33.0</ele><time>2026-04-11T13:28:49Z</time></trkpt><trkpt lat="41.15049956844019" lon="16.74886404352663"><ele>33.0</ele><time>2026-04-11T13:28:50Z</time></trkpt><trkpt lat="41.15058956768419" lon="16.748768014206846"><ele>33.0</ele><time>2026-04-11T13:28:52Z</time></trkpt><trkpt lat="41.15070515873625" lon="16.7488074466023"><ele>33.0</ele><time>2026-04-11T13:28:54Z</time></trkpt><trkpt lat="41.15078363069277" lon="16.748837937708153"><ele>33.0</ele><time>2026-04-11T13:28:55Z</time></trkpt><trkpt lat="41.15090117089043" lon="16.748926999793454"><ele>33.0</ele><time>2026-04-11T13:28:56Z</time></trkpt><trkpt lat="41.1510053776327" lon="16.749020079950206"><ele>33.0</ele><time>2026-04-11T13:28:57Z</time></trkpt><trkpt lat="41.151064086602666" lon="16.749057804341764"><ele>33.0</ele><time>2026-04-11T13:28:58Z</time></trkpt><trkpt lat="41.15112744683121" lon="16.749048258236197"><ele>33.0</ele><time>2026-04-11T13:28:59Z</time></trkpt><trkpt lat="41.151183825783185" lon="16.749008976809627"><ele>33.0</ele><time>2026-04-11T13:29:00Z</time></trkpt><trkpt lat="41.151302647299495" lon="16.748968615076006"><ele>33.0</ele><time>2026-04-11T13:29:01Z</time></trkpt><trkpt lat="41.15139019019429" lon="16.74893651999226"><ele>33.0</ele><time>2026-04-11T13:29:02Z</time></trkpt><trkpt lat="41.15147113523391" lon="16.748896302756815"><ele>33.0</ele><time>2026-04-11T13:29:04Z</time></trkpt><trkpt lat="41.15142913579891" lon="16.748810567490864"><ele>33.0</ele><time>2026-04-11T13:29:06Z</time></trkpt><trkpt lat="41.15135639508737" lon="16.74877069150875"><ele>33.0</ele><time>2026-04-11T13:29:07Z</time></trkpt><trkpt lat="41.1512457061733" lon="16.748728603113246"><ele>33.0</ele><time>2026-04-11T13:29:08Z</time></trkpt><trkpt lat="41.15110238120079" lon="16.74867623941056"><ele>33.0</ele><time>2026-04-11T13:29:09Z</time></trkpt><trkpt lat="41.15095608776792" lon="16.74861183071175"><ele>33.0</ele><time>2026-04-11T13:29:10Z</time></trkpt><trkpt lat="41.15077697289916" lon="16.748535210047468"><ele>33.6</ele><time>2026-04-11T13:29:11Z</time></trkpt><trkpt lat="41.15066665582185" lon="16.74848323696377"><ele>34.199999999999996</ele><time>2026-04-11T13:29:12Z</time></trkpt><trkpt lat="41.15056717608301" lon="16.748444095070884"><ele>34.8</ele><time>2026-04-11T13:29:13Z</time></trkpt><trkpt lat="41.15048159327073" lon="16.748439588823288"><ele>35.4</ele><time>2026-04-11T13:29:14Z</time></trkpt><trkpt lat="41.15041502873735" lon="16.748435521487764"><ele>36.0</ele><time>2026-04-11T13:29:15Z</time></trkpt><trkpt lat="41.1503360596628" lon="16.748427916903527"><ele>36.0</ele><time>2026-04-11T13:29:16Z</time></trkpt><trkpt lat="41.15024502085855" lon="16.748391099106424"><ele>36.0</ele><time>2026-04-11T13:29:17Z</time></trkpt><trkpt lat="41.15014372337602" lon="16.74832182497841"><ele>36.0</ele><time>2026-04-11T13:29:18Z</time></trkpt><trkpt lat="41.150045719671894" lon="16.748284241360718"><ele>36.0</ele><time>2026-04-11T13:29:19Z</time></trkpt><trkpt lat="41.149949372341325" lon="16.74828788992818"><ele>36.0</ele><time>2026-04-11T13:29:20Z</time></trkpt><trkpt lat="41.149867274397984" lon="16.74832403798138"><ele>36.75</ele><time>2026-04-11T13:29:21Z</time></trkpt><trkpt lat="41.1497795030819" lon="16.748412895843725"><ele>37.5</ele><time>2026-04-11T13:29:22Z</time></trkpt><trkpt lat="41.149705211668426" lon="16.748523486056612"><ele>38.25</ele><time>2026-04-11T13:29:23Z</time></trkpt><trkpt lat="41.149640140968565" lon="16.748663135937242"><ele>39.0</ele><time>2026-04-11T13:29:24Z</time></trkpt><trkpt lat="41.14957560035126" lon="16.74879698869505"><ele>39.0</ele><time>2026-04-11T13:29:25Z</time></trkpt><trkpt lat="41.14953454973138" lon="16.748920699774608"><ele>39.0</ele><time>2026-04-11T13:29:26Z</time></trkpt><trkpt lat="41.1495132233462" lon="16.749011873153318"><ele>39.0</ele><time>2026-04-11T13:29:27Z</time></trkpt><trkpt lat="41.149589480258975" lon="16.749107855097517"><ele>39.0</ele><time>2026-04-11T13:29:29Z</time></trkpt><trkpt lat="41.14967288175425" lon="16.749024723473998"><ele>39.0</ele><time>2026-04-11T13:29:30Z</time></trkpt><trkpt lat="41.14978751851262" lon="16.748902462990767"><ele>38.2</ele><time>2026-04-11T13:29:31Z</time></trkpt><trkpt lat="41.14990153187629" lon="16.74879407083936"><ele>37.4</ele><time>2026-04-11T13:29:32Z</time></trkpt><trkpt lat="41.15001150699254" lon="16.748719654017826"><ele>36.6</ele><time>2026-04-11T13:29:33Z</time></trkpt><trkpt lat="41.15011298386255" lon="16.748699872029732"><ele>35.8</ele><time>2026-04-11T13:29:34Z</time></trkpt><trkpt lat="41.15018797954177" lon="16.74871240054673"><ele>35.0</ele><time>2026-04-11T13:29:35Z</time></trkpt><trkpt lat="41.15022898447335" lon="16.74881889714083"><ele>35.0</ele><time>2026-04-11T13:29:37Z</time></trkpt><trkpt lat="41.15017529630961" lon="16.74889621696076"><ele>35.0</ele><time>2026-04-11T13:29:38Z</time></trkpt><trkpt lat="41.150094180304066" lon="16.748978921078105"><ele>35.0</ele><time>2026-04-11T13:29:39Z</time></trkpt><trkpt lat="41.14997807576274" lon="16.749032160277793"><ele>35.0</ele><time>2026-04-11T13:29:40Z</time></trkpt><trkpt lat="41.149845399870586" lon="16.74907949952923"><ele>35.0</ele><time>2026-04-11T13:29:41Z</time></trkpt><trkpt lat="41.14974015413745" lon="16.749111614618705"><ele>35.0</ele><time>2026-04-11T13:29:42Z</time></trkpt><trkpt lat="41.14967392975719" lon="16.74915277992269"><ele>35.0</ele><time>2026-04-11T13:29:43Z</time></trkpt><trkpt lat="41.14970557447908" lon="16.7492263358766"><ele>35.0</ele><time>2026-04-11T13:29:46Z</time></trkpt><trkpt lat="41.14979841785346" lon="16.749256308667814"><ele>35.0</ele><time>2026-04-11T13:29:49Z</time></trkpt><trkpt lat="41.149896261202265" lon="16.74927484768503"><ele>35.0</ele><time>2026-04-11T13:29:50.999Z</time></trkpt><trkpt lat="41.15001439493923" lon="16.74922527152588"><ele>35.0</ele><time>2026-04-11T13:29:52.999Z</time></trkpt><trkpt lat="41.150108333957526" lon="16.74913108473056"><ele>35.0</ele><time>2026-04-11T13:29:54.999Z</time></trkpt><trkpt lat="41.150168794872194" lon="16.749069267456566"><ele>35.0</ele><time>2026-04-11T13:29:55.999Z</time></trkpt><trkpt lat="41.15020798765145" lon="16.748991184176123"><ele>35.0</ele><time>2026-04-11T13:29:56.999Z</time></trkpt><trkpt lat="41.15022835373918" lon="16.748908458856683"><ele>35.0</ele><time>2026-04-11T13:29:57.999Z</time></trkpt><trkpt lat="41.150237296871936" lon="16.748808462087393"><ele>35.0</ele><time>2026-04-11T13:29:58.999Z</time></trkpt><trkpt lat="41.15033497669336" lon="16.748648022230622"><ele>35.0</ele><time>2026-04-11T13:30:00.999Z</time></trkpt><trkpt lat="41.15040795544727" lon="16.74852155062283"><ele>35.0</ele><time>2026-04-11T13:30:02.999Z</time></trkpt><trkpt lat="41.150487523674" lon="16.748684520601802"><ele>35.0</ele><time>2026-04-11T13:30:05.999Z</time></trkpt><trkpt lat="41.15052456673938" lon="16.749321705876472"><ele>35.0</ele><time>2026-04-11T13:30:06.999Z</time></trkpt><trkpt lat="41.15061219732624" lon="16.749381878036456"><ele>35.0</ele><time>2026-04-11T13:30:08.999Z</time></trkpt><trkpt lat="41.15069267590282" lon="16.749351783446496"><ele>35.0</ele><time>2026-04-11T13:30:09.999Z</time></trkpt><trkpt lat="41.150812794057146" lon="16.749296639479326"><ele>35.0</ele><time>2026-04-11T13:30:10.999Z</time></trkpt><trkpt lat="41.1509576030676" lon="16.74924223023469"><ele>34.6</ele><time>2026-04-11T13:30:11.999Z</time></trkpt><trkpt lat="41.15106897579949" lon="16.749226797711078"><ele>34.2</ele><time>2026-04-11T13:30:12.999Z</time></trkpt><trkpt lat="41.15118263875564" lon="16.74923049212551"><ele>33.8</ele><time>2026-04-11T13:30:13.999Z</time></trkpt><trkpt lat="41.15123651338345" lon="16.749286444165595"><ele>33.4</ele><time>2026-04-11T13:30:14.999Z</time></trkpt><trkpt lat="41.15131901535809" lon="16.749296526907823"><ele>33.0</ele><time>2026-04-11T13:30:16.999Z</time></trkpt><trkpt lat="41.151315654711496" lon="16.749157525723245"><ele>33.0</ele><time>2026-04-11T13:30:18.999Z</time></trkpt><trkpt lat="41.15128003571529" lon="16.749088114235157"><ele>33.0</ele><time>2026-04-11T13:30:19.999Z</time></trkpt><trkpt lat="41.151170460547426" lon="16.749090225721517"><ele>33.0</ele><time>2026-04-11T13:30:21.999Z</time></trkpt><trkpt lat="41.15102354216377" lon="16.749132246112346"><ele>33.0</ele><time>2026-04-11T13:30:23.999Z</time></trkpt><trkpt lat="41.15089284463334" lon="16.749117160531924"><ele>33.0</ele><time>2026-04-11T13:30:24.999Z</time></trkpt><trkpt lat="41.150751668537346" lon="16.749114258308715"><ele>33.0</ele><time>2026-04-11T13:30:25.999Z</time></trkpt><trkpt lat="41.15065587470117" lon="16.749160237166596"><ele>33.0</ele><time>2026-04-11T13:30:26.999Z</time></trkpt><trkpt lat="41.15058406058894" lon="16.749179798628994"><ele>33.0</ele><time>2026-04-11T13:30:27.999Z</time></trkpt><trkpt lat="41.15053806392422" lon="16.74906565306455"><ele>33.0</ele><time>2026-04-11T13:30:29.999Z</time></trkpt><trkpt lat="41.15051549736177" lon="16.748945661274977"><ele>33.0</ele><time>2026-04-11T13:30:30.999Z</time></trkpt><trkpt lat="41.15059159395434" lon="16.748808531799494"><ele>33.0</ele><time>2026-04-11T13:30:32.999Z</time></trkpt><trkpt lat="41.15065534173733" lon="16.748811873557763"><ele>33.0</ele><time>2026-04-11T13:30:34.999Z</time></trkpt><trkpt lat="41.15072787653792" lon="16.748841385011453"><ele>33.0</ele><time>2026-04-11T13:30:35.999Z</time></trkpt><trkpt lat="41.15082588811567" lon="16.748910026179363"><ele>33.0</ele><time>2026-04-11T13:30:36.999Z</time></trkpt><trkpt lat="41.15094216514532" lon="16.74900313340592"><ele>33.0</ele><time>2026-04-11T13:30:37.999Z</time></trkpt><trkpt lat="41.15103124162673" lon="16.749082297721205"><ele>33.0</ele><time>2026-04-11T13:30:38.999Z</time></trkpt><trkpt lat="41.15113609913945" lon="16.749040528710857"><ele>33.0</ele><time>2026-04-11T13:30:40.999Z</time></trkpt><trkpt lat="41.151253717638" lon="16.748978712707608"><ele>33.0</ele><time>2026-04-11T13:30:41.999Z</time></trkpt><trkpt lat="41.15135127406961" lon="16.748959765580647"><ele>33.0</ele><time>2026-04-11T13:30:42.999Z</time></trkpt><trkpt lat="41.15141879555588" lon="16.748960966509678"><ele>33.0</ele><time>2026-04-11T13:30:44Z</time></trkpt><trkpt lat="41.15146768498738" lon="16.74888527459217"><ele>33.0</ele><time>2026-04-11T13:30:46Z</time></trkpt><trkpt lat="41.15137771785642" lon="16.748808203439676"><ele>33.0</ele><time>2026-04-11T13:30:48Z</time></trkpt><trkpt lat="41.15128254729976" lon="16.748765499927988"><ele>33.0</ele><time>2026-04-11T13:30:49Z</time></trkpt><trkpt lat="41.15115924216317" lon="16.748717848028846"><ele>33.0</ele><time>2026-04-11T13:30:50Z</time></trkpt><trkpt lat="41.15103384498706" lon="16.748661659141927"><ele>33.0</ele><time>2026-04-11T13:30:51Z</time></trkpt><trkpt lat="41.15090498832286" lon="16.74859347361047"><ele>33.0</ele><time>2026-04-11T13:30:52Z</time></trkpt><trkpt lat="41.15076685550452" lon="16.748533266846824"><ele>33.0</ele><time>2026-04-11T13:30:53Z</time></trkpt><trkpt lat="41.15065354299452" lon="16.748499496794658"><ele>33.0</ele><time>2026-04-11T13:30:54Z</time></trkpt><trkpt lat="41.150570033839884" lon="16.748464214943642"><ele>33.6</ele><time>2026-04-11T13:30:55Z</time></trkpt><trkpt lat="41.1504907633162" lon="16.74846039865656"><ele>34.199999999999996</ele><time>2026-04-11T13:30:56Z</time></trkpt><trkpt lat="41.15042412286018" lon="16.748450588461292"><ele>34.8</ele><time>2026-04-11T13:30:57Z</time></trkpt><trkpt lat="41.1503434844862" lon="16.748432873575425"><ele>35.4</ele><time>2026-04-11T13:30:58Z</time></trkpt><trkpt lat="41.15023808781788" lon="16.74837630321238"><ele>36.0</ele><time>2026-04-11T13:30:59Z</time></trkpt><trkpt lat="41.15013093424471" lon="16.748312920532623"><ele>36.0</ele><time>2026-04-11T13:31:00Z</time></trkpt><trkpt lat="41.15003078968255" lon="16.748284991216366"><ele>36.0</ele><time>2026-04-11T13:31:01Z</time></trkpt><trkpt lat="41.1499437550492" lon="16.748285273812435"><ele>36.0</ele><time>2026-04-11T13:31:02Z</time></trkpt><trkpt lat="41.14985145092843" lon="16.74833085980269"><ele>36.0</ele><time>2026-04-11T13:31:03Z</time></trkpt><trkpt lat="41.14977172720423" lon="16.748431433243045"><ele>36.0</ele><time>2026-04-11T13:31:04Z</time></trkpt><trkpt lat="41.14969730880293" lon="16.748559566202957"><ele>36.6</ele><time>2026-04-11T13:31:05Z</time></trkpt><trkpt lat="41.14963488127795" lon="16.748669269540287"><ele>37.2</ele><time>2026-04-11T13:31:06Z</time></trkpt><trkpt lat="41.14958189263992" lon="16.748787161155427"><ele>37.8</ele><time>2026-04-11T13:31:07Z</time></trkpt><trkpt lat="41.14955972486931" lon="16.74889662792549"><ele>38.4</ele><time>2026-04-11T13:31:08Z</time></trkpt><trkpt lat="41.14953277322083" lon="16.748987387549217"><ele>39.0</ele><time>2026-04-11T13:31:09Z</time></trkpt><trkpt lat="41.14958907379718" lon="16.749074441725142"><ele>39.0</ele><time>2026-04-11T13:31:11Z</time></trkpt><trkpt lat="41.149660458915484" lon="16.74903915836212"><ele>39.0</ele><time>2026-04-11T13:31:12Z</time></trkpt><trkpt lat="41.14975838268405" lon="16.748916898238818"><ele>39.0</ele><time>2026-04-11T13:31:13Z</time></trkpt><trkpt lat="41.149858281625235" lon="16.74881683462457"><ele>39.0</ele><time>2026-04-11T13:31:14Z</time></trkpt><trkpt lat="41.1499720030331" lon="16.748736720310013"><ele>38.2</ele><time>2026-04-11T13:31:15Z</time></trkpt><trkpt lat="41.15005216009371" lon="16.74866777692591"><ele>37.4</ele><time>2026-04-11T13:31:16Z</time></trkpt><trkpt lat="41.15013223615754" lon="16.7486749115565"><ele>36.6</ele><time>2026-04-11T13:31:17Z</time></trkpt><trkpt lat="41.15021329979891" lon="16.748780828724755"><ele>35.8</ele><time>2026-04-11T13:31:19Z</time></trkpt><trkpt lat="41.15014502167264" lon="16.74892741516305"><ele>35.0</ele><time>2026-04-11T13:31:21Z</time></trkpt><trkpt lat="41.15004448736387" lon="16.74900180185256"><ele>35.0</ele><time>2026-04-11T13:31:22Z</time></trkpt><trkpt lat="41.14992229866027" lon="16.749041613095223"><ele>35.0</ele><time>2026-04-11T13:31:23Z</time></trkpt><trkpt lat="41.149796366480935" lon="16.749077721506115"><ele>35.0</ele><time>2026-04-11T13:31:24Z</time></trkpt><trkpt lat="41.14969995458683" lon="16.749113628487134"><ele>35.0</ele><time>2026-04-11T13:31:25Z</time></trkpt><trkpt lat="41.149631013981676" lon="16.74913755922218"><ele>35.0</ele><time>2026-04-11T13:31:26Z</time></trkpt><trkpt lat="41.14962468906767" lon="16.749234775136507"><ele>35.0</ele><time>2026-04-11T13:31:28Z</time></trkpt><trkpt lat="41.14968490296607" lon="16.749279126929057"><ele>35.0</ele><time>2026-04-11T13:31:29Z</time></trkpt><trkpt lat="41.149874567720566" lon="16.74928704777285"><ele>35.0</ele><time>2026-04-11T13:31:31Z</time></trkpt><trkpt lat="41.14997028310883" lon="16.749285243116944"><ele>35.0</ele><time>2026-04-11T13:31:32Z</time></trkpt><trkpt lat="41.150075911236655" lon="16.749260514997566"><ele>35.0</ele><time>2026-04-11T13:31:33Z</time></trkpt><trkpt lat="41.15019104493235" lon="16.74923132130544"><ele>35.0</ele><time>2026-04-11T13:31:34Z</time></trkpt><trkpt lat="41.15026851827094" lon="16.749199031471854"><ele>35.0</ele><time>2026-04-11T13:31:35Z</time></trkpt><trkpt lat="41.1503226814967" lon="16.749133090627584"><ele>35.0</ele><time>2026-04-11T13:31:36Z</time></trkpt><trkpt lat="41.15032939392817" lon="16.7489663001987"><ele>35.0</ele><time>2026-04-11T13:31:38Z</time></trkpt><trkpt lat="41.15032961172734" lon="16.748805245079144"><ele>35.0</ele><time>2026-04-11T13:31:39Z</time></trkpt><trkpt lat="41.150325693563005" lon="16.748655984693787"><ele>35.0</ele><time>2026-04-11T13:31:40Z</time></trkpt><trkpt lat="41.150306985825665" lon="16.74853468714732"><ele>35.0</ele><time>2026-04-11T13:31:41Z</time></trkpt><trkpt lat="41.15028998946393" lon="16.748447557887282"><ele>35.0</ele><time>2026-04-11T13:31:42Z</time></trkpt><trkpt lat="41.15033011247541" lon="16.748535463416488"><ele>35.0</ele><time>2026-04-11T13:31:44Z</time></trkpt><trkpt lat="41.15035413393574" lon="16.74864088196926"><ele>35.0</ele><time>2026-04-11T13:31:45Z</time></trkpt><trkpt lat="41.15038305658277" lon="16.748787561371003"><ele>35.0</ele><time>2026-04-11T13:31:46Z</time></trkpt><trkpt lat="41.150411106028024" lon="16.748928075276122"><ele>35.0</ele><time>2026-04-11T13:31:47Z</time></trkpt><trkpt lat="41.15046014466283" lon="16.749122835772994"><ele>35.0</ele><time>2026-04-11T13:31:48Z</time></trkpt><trkpt lat="41.15050229279822" lon="16.749263183983494"><ele>35.0</ele><time>2026-04-11T13:31:49Z</time></trkpt><trkpt lat="41.1505300781017" lon="16.74934927253934"><ele>35.0</ele><time>2026-04-11T13:31:50Z</time></trkpt><trkpt lat="41.150573715340144" lon="16.749427716728388"><ele>34.75</ele><time>2026-04-11T13:31:51Z</time></trkpt><trkpt lat="41.15071753860311" lon="16.749542338837195"><ele>34.5</ele><time>2026-04-11T13:31:53Z</time></trkpt><trkpt lat="41.15085101546421" lon="16.74954233883812"><ele>34.25</ele><time>2026-04-11T13:31:53.999Z</time></trkpt><trkpt lat="41.15097534667378" lon="16.74954233883944"><ele>34.0</ele><time>2026-04-11T13:31:54.999Z</time></trkpt><trkpt lat="41.15108151974761" lon="16.749542338841906"><ele>34.0</ele><time>2026-04-11T13:31:55.999Z</time></trkpt><trkpt lat="41.15118624498835" lon="16.74954233883869"><ele>34.0</ele><time>2026-04-11T13:31:56.999Z</time></trkpt><trkpt lat="41.15127670456458" lon="16.74954233883693"><ele>34.0</ele><time>2026-04-11T13:31:57.999Z</time></trkpt><trkpt lat="41.15130046453036" lon="16.749123777267673"><ele>33.8</ele><time>2026-04-11T13:32:01.999Z</time></trkpt><trkpt lat="41.15120743377203" lon="16.74907192508597"><ele>33.599999999999994</ele><time>2026-04-11T13:32:03.999Z</time></trkpt><trkpt lat="41.15113237121418" lon="16.749102367295084"><ele>33.4</ele><time>2026-04-11T13:32:04.999Z</time></trkpt><trkpt lat="41.15102351043078" lon="16.74914568483939"><ele>33.199999999999996</ele><time>2026-04-11T13:32:05.999Z</time></trkpt><trkpt lat="41.150888031659406" lon="16.749149156002524"><ele>33.0</ele><time>2026-04-11T13:32:06.999Z</time></trkpt><trkpt lat="41.15076955314194" lon="16.74914026083256"><ele>33.4</ele><time>2026-04-11T13:32:07.999Z</time></trkpt><trkpt lat="41.150657218155374" lon="16.74917439985287"><ele>33.8</ele><time>2026-04-11T13:32:08.999Z</time></trkpt><trkpt lat="41.15058061127622" lon="16.74919862478746"><ele>34.2</ele><time>2026-04-11T13:32:09.999Z</time></trkpt><trkpt lat="41.15055079149346" lon="16.749068811327593"><ele>34.6</ele><time>2026-04-11T13:32:11.999Z</time></trkpt><trkpt lat="41.15054034196992" lon="16.748954026351218"><ele>35.0</ele><time>2026-04-11T13:32:12.999Z</time></trkpt><trkpt lat="41.15058614659261" lon="16.748831693946457"><ele>35.0</ele><time>2026-04-11T13:32:14.999Z</time></trkpt><trkpt lat="41.15069968016584" lon="16.748833922635363"><ele>35.0</ele><time>2026-04-11T13:32:16.999Z</time></trkpt><trkpt lat="41.150769006505584" lon="16.74886919176057"><ele>35.0</ele><time>2026-04-11T13:32:17.999Z</time></trkpt><trkpt lat="41.15084907377986" lon="16.748910657610256"><ele>35.0</ele><time>2026-04-11T13:32:18.999Z</time></trkpt><trkpt lat="41.15093308468678" lon="16.74899223119283"><ele>35.0</ele><time>2026-04-11T13:32:19.999Z</time></trkpt><trkpt lat="41.15101002255549" lon="16.74906840313148"><ele>34.6</ele><time>2026-04-11T13:32:20.999Z</time></trkpt><trkpt lat="41.15111066218819" lon="16.74905815165579"><ele>34.2</ele><time>2026-04-11T13:32:22.999Z</time></trkpt><trkpt lat="41.15118978174087" lon="16.748992866727164"><ele>33.8</ele><time>2026-04-11T13:32:23.999Z</time></trkpt><trkpt lat="41.15129417081104" lon="16.7489569883167"><ele>33.4</ele><time>2026-04-11T13:32:24.999Z</time></trkpt><trkpt lat="41.15139207914124" lon="16.748953330132757"><ele>33.0</ele><time>2026-04-11T13:32:25.999Z</time></trkpt><trkpt lat="41.151471692251036" lon="16.748922841443818"><ele>33.0</ele><time>2026-04-11T13:32:27.999Z</time></trkpt><trkpt lat="41.15144285678653" lon="16.748824534662326"><ele>33.0</ele><time>2026-04-11T13:32:29.999Z</time></trkpt><trkpt lat="41.151373057284516" lon="16.74878283588069"><ele>33.0</ele><time>2026-04-11T13:32:30.999Z</time></trkpt><trkpt lat="41.15127423684986" lon="16.74875242583324"><ele>33.0</ele><time>2026-04-11T13:32:31.999Z</time></trkpt><trkpt lat="41.15114730144114" lon="16.748718390850698"><ele>33.0</ele><time>2026-04-11T13:32:32.999Z</time></trkpt><trkpt lat="41.15101613940433" lon="16.748651881168808"><ele>33.0</ele><time>2026-04-11T13:32:33.999Z</time></trkpt><trkpt lat="41.15089087263533" lon="16.748578759996278"><ele>33.0</ele><time>2026-04-11T13:32:34.999Z</time></trkpt><trkpt lat="41.15076122086422" lon="16.748524035786318"><ele>33.0</ele><time>2026-04-11T13:32:35.999Z</time></trkpt><trkpt lat="41.150650260598795" lon="16.748478419398733"><ele>33.0</ele><time>2026-04-11T13:32:36.999Z</time></trkpt><trkpt lat="41.150552694407224" lon="16.748454033866803"><ele>33.6</ele><time>2026-04-11T13:32:37.999Z</time></trkpt><trkpt lat="41.150476994354726" lon="16.748452745104196"><ele>34.199999999999996</ele><time>2026-04-11T13:32:38.999Z</time></trkpt><trkpt lat="41.150402284370855" lon="16.74844196829691"><ele>34.8</ele><time>2026-04-11T13:32:39.999Z</time></trkpt><trkpt lat="41.15031074253239" lon="16.748411201411034"><ele>35.4</ele><time>2026-04-11T13:32:40.999Z</time></trkpt><trkpt lat="41.15019467110943" lon="16.74835610458686"><ele>36.0</ele><time>2026-04-11T13:32:41.999Z</time></trkpt><trkpt lat="41.15008739916884" lon="16.74830195185705"><ele>36.0</ele><time>2026-04-11T13:32:42.999Z</time></trkpt><trkpt lat="41.149995521086495" lon="16.74827652109509"><ele>36.0</ele><time>2026-04-11T13:32:43.999Z</time></trkpt><trkpt lat="41.14990852140614" lon="16.748284507991617"><ele>36.0</ele><time>2026-04-11T13:32:44.999Z</time></trkpt><trkpt lat="41.149815090651835" lon="16.7483489724606"><ele>36.0</ele><time>2026-04-11T13:32:45.999Z</time></trkpt><trkpt lat="41.14973432893609" lon="16.748462873878257"><ele>36.0</ele><time>2026-04-11T13:32:46.999Z</time></trkpt><trkpt lat="41.14966389084256" lon="16.748600427374136"><ele>36.6</ele><time>2026-04-11T13:32:47.999Z</time></trkpt><trkpt lat="41.149598042132624" lon="16.748708770690786"><ele>37.2</ele><time>2026-04-11T13:32:49Z</time></trkpt><trkpt lat="41.14955533159033" lon="16.748821708562296"><ele>37.8</ele><time>2026-04-11T13:32:50Z</time></trkpt><trkpt lat="41.14952265071132" lon="16.748946813548116"><ele>38.4</ele><time>2026-04-11T13:32:51Z</time></trkpt><trkpt lat="41.14951794216708" lon="16.749031385404887"><ele>39.0</ele><time>2026-04-11T13:32:52Z</time></trkpt><trkpt lat="41.14959585847076" lon="16.749091279261155"><ele>39.0</ele><time>2026-04-11T13:32:54Z</time></trkpt><trkpt lat="41.14967553452558" lon="16.748999865109965"><ele>39.0</ele><time>2026-04-11T13:32:55Z</time></trkpt><trkpt lat="41.1497859351348" lon="16.748880795150132"><ele>39.0</ele><time>2026-04-11T13:32:56Z</time></trkpt><trkpt lat="41.149902665869185" lon="16.74877214771484"><ele>39.0</ele><time>2026-04-11T13:32:57Z</time></trkpt><trkpt lat="41.14999417122927" lon="16.748708744076232"><ele>38.333333333333336</ele><time>2026-04-11T13:32:58Z</time></trkpt><trkpt lat="41.150081203928835" lon="16.74870469247831"><ele>37.666666666666664</ele><time>2026-04-11T13:32:59Z</time></trkpt><trkpt lat="41.15015029669588" lon="16.748736493921264"><ele>37.0</ele><time>2026-04-11T13:33:00Z</time></trkpt><trkpt lat="41.15016548570394" lon="16.74884773496707"><ele>36.33333333333333</ele><time>2026-04-11T13:33:02Z</time></trkpt><trkpt lat="41.15012575428225" lon="16.748917119005895"><ele>35.666666666666664</ele><time>2026-04-11T13:33:03Z</time></trkpt><trkpt lat="41.150042333599515" lon="16.748986584555833"><ele>35.0</ele><time>2026-04-11T13:33:04Z</time></trkpt><trkpt lat="41.14993326166665" lon="16.749043452920407"><ele>35.8</ele><time>2026-04-11T13:33:05Z</time></trkpt><trkpt lat="41.1498104923156" lon="16.749087214333738"><ele>36.6</ele><time>2026-04-11T13:33:06Z</time></trkpt><trkpt lat="41.14970479967106" lon="16.749125606413394"><ele>37.4</ele><time>2026-04-11T13:33:07Z</time></trkpt><trkpt lat="41.14963285407069" lon="16.749159855774455"><ele>38.2</ele><time>2026-04-11T13:33:09Z</time></trkpt><trkpt lat="41.14968699402758" lon="16.74922415473547"><ele>39.0</ele><time>2026-04-11T13:33:11Z</time></trkpt><trkpt lat="41.14986956423318" lon="16.749297332361273"><ele>38.4</ele><time>2026-04-11T13:33:13Z</time></trkpt><trkpt lat="41.14975513092151" lon="16.749387072373185"><ele>37.8</ele><time>2026-04-11T13:33:14Z</time></trkpt><trkpt lat="41.14986644599944" lon="16.749396505777057"><ele>37.2</ele><time>2026-04-11T13:33:16Z</time></trkpt><trkpt lat="41.14994506947797" lon="16.74935388383198"><ele>36.6</ele><time>2026-04-11T13:33:17Z</time></trkpt><trkpt lat="41.15004410150357" lon="16.749300058363627"><ele>36.0</ele><time>2026-04-11T13:33:18Z</time></trkpt><trkpt lat="41.1501329116888" lon="16.749242032812518"><ele>35.8</ele><time>2026-04-11T13:33:19Z</time></trkpt><trkpt lat="41.15018859329791" lon="16.74918794011959"><ele>35.6</ele><time>2026-04-11T13:33:20Z</time></trkpt><trkpt lat="41.150255366129684" lon="16.749124818426026"><ele>35.4</ele><time>2026-04-11T13:33:21Z</time></trkpt><trkpt lat="41.150276324021846" lon="16.748981933284256"><ele>35.2</ele><time>2026-04-11T13:33:22Z</time></trkpt><trkpt lat="41.15026384031497" lon="16.74884192223891"><ele>35.0</ele><time>2026-04-11T13:33:23Z</time></trkpt><trkpt lat="41.150280665821874" lon="16.748719829675245"><ele>35.0</ele><time>2026-04-11T13:33:25Z</time></trkpt><trkpt lat="41.15038360618762" lon="16.74856939409294"><ele>35.0</ele><time>2026-04-11T13:33:27Z</time></trkpt><trkpt lat="41.150454051276526" lon="16.748652871799777"><ele>35.0</ele><time>2026-04-11T13:33:31Z</time></trkpt><trkpt lat="41.15047583621408" lon="16.74876080154403"><ele>35.0</ele><time>2026-04-11T13:33:32Z</time></trkpt><trkpt lat="41.1505184163752" lon="16.748978916044635"><ele>35.0</ele><time>2026-04-11T13:33:33Z</time></trkpt><trkpt lat="41.15055866414696" lon="16.749079249311688"><ele>35.0</ele><time>2026-04-11T13:33:34Z</time></trkpt><trkpt lat="41.15065086809562" lon="16.74938125821458"><ele>35.0</ele><time>2026-04-11T13:33:36Z</time></trkpt><trkpt lat="41.15075887100295" lon="16.749324161024386"><ele>35.0</ele><time>2026-04-11T13:33:37Z</time></trkpt><trkpt lat="41.15088229455088" lon="16.74926439173743"><ele>34.6</ele><time>2026-04-11T13:33:38Z</time></trkpt><trkpt lat="41.151014060955774" lon="16.74925394586762"><ele>34.2</ele><time>2026-04-11T13:33:39Z</time></trkpt><trkpt lat="41.15113548956858" lon="16.749261356932458"><ele>33.8</ele><time>2026-04-11T13:33:40Z</time></trkpt><trkpt lat="41.15118865447294" lon="16.749314325252367"><ele>33.4</ele><time>2026-04-11T13:33:41Z</time></trkpt><trkpt lat="41.151265776712854" lon="16.74931064048641"><ele>33.0</ele><time>2026-04-11T13:33:43Z</time></trkpt><trkpt lat="41.15126793666848" lon="16.749154867326236"><ele>33.0</ele><time>2026-04-11T13:33:45Z</time></trkpt><trkpt lat="41.15120835323617" lon="16.749074123142318"><ele>33.0</ele><time>2026-04-11T13:33:47Z</time></trkpt><trkpt lat="41.15114301162741" lon="16.749088893387224"><ele>33.0</ele><time>2026-04-11T13:33:48Z</time></trkpt><trkpt lat="41.15106428798882" lon="16.74910827987404"><ele>33.0</ele><time>2026-04-11T13:33:49Z</time></trkpt><trkpt lat="41.15095579332966" lon="16.749122047876885"><ele>33.0</ele><time>2026-04-11T13:33:50Z</time></trkpt><trkpt lat="41.150827762090465" lon="16.749112617942327"><ele>33.0</ele><time>2026-04-11T13:33:50.999Z</time></trkpt><trkpt lat="41.150714643287145" lon="16.749126505432468"><ele>33.0</ele><time>2026-04-11T13:33:51.999Z</time></trkpt><trkpt lat="41.150625558040126" lon="16.749160519696154"><ele>33.0</ele><time>2026-04-11T13:33:52.999Z</time></trkpt><trkpt lat="41.15054455948943" lon="16.74911264151497"><ele>33.0</ele><time>2026-04-11T13:33:54.999Z</time></trkpt><trkpt lat="41.15053890131884" lon="16.749018902516344"><ele>33.0</ele><time>2026-04-11T13:33:55.999Z</time></trkpt><trkpt lat="41.15051747630315" lon="16.748914823037634"><ele>33.0</ele><time>2026-04-11T13:33:56.999Z</time></trkpt><trkpt lat="41.15060579357767" lon="16.748813616524444"><ele>33.0</ele><time>2026-04-11T13:33:58.999Z</time></trkpt><trkpt lat="41.15072818990152" lon="16.748854683676207"><ele>33.0</ele><time>2026-04-11T13:34:00.999Z</time></trkpt><trkpt lat="41.150813259334306" lon="16.74889071970818"><ele>33.0</ele><time>2026-04-11T13:34:01.999Z</time></trkpt><trkpt lat="41.1509021725227" lon="16.748933691483288"><ele>33.0</ele><time>2026-04-11T13:34:02.999Z</time></trkpt><trkpt lat="41.150983456648646" lon="16.74902110362021"><ele>33.0</ele><time>2026-04-11T13:34:03.999Z</time></trkpt><trkpt lat="41.15105259875055" lon="16.749067866324197"><ele>33.0</ele><time>2026-04-11T13:34:04.999Z</time></trkpt><trkpt lat="41.15115724483878" lon="16.749020276195278"><ele>33.0</ele><time>2026-04-11T13:34:06.999Z</time></trkpt><trkpt lat="41.15125734649424" lon="16.748986003261642"><ele>33.0</ele><time>2026-04-11T13:34:07.999Z</time></trkpt><trkpt lat="41.151368480717274" lon="16.748952803904952"><ele>33.0</ele><time>2026-04-11T13:34:08.999Z</time></trkpt><trkpt lat="41.151439084745775" lon="16.74895594642957"><ele>33.0</ele><time>2026-04-11T13:34:09.999Z</time></trkpt><trkpt lat="41.15145762680059" lon="16.748872481588073"><ele>33.0</ele><time>2026-04-11T13:34:11.999Z</time></trkpt><trkpt lat="41.151382302264665" lon="16.748808995466522"><ele>33.0</ele><time>2026-04-11T13:34:13.999Z</time></trkpt><trkpt lat="41.15128346755475" lon="16.74875636782349"><ele>33.0</ele><time>2026-04-11T13:34:14.999Z</time></trkpt><trkpt lat="41.15116371515292" lon="16.748717377657606"><ele>33.0</ele><time>2026-04-11T13:34:15.999Z</time></trkpt><trkpt lat="41.15102626517838" lon="16.74864841144549"><ele>33.0</ele><time>2026-04-11T13:34:16.999Z</time></trkpt><trkpt lat="41.150892032413616" lon="16.748582291744288"><ele>33.0</ele><time>2026-04-11T13:34:17.999Z</time></trkpt><trkpt lat="41.15075737258598" lon="16.74851668763413"><ele>33.0</ele><time>2026-04-11T13:34:18.999Z</time></trkpt><trkpt lat="41.15064652736047" lon="16.748476032696693"><ele>33.0</ele><time>2026-04-11T13:34:19.999Z</time></trkpt><trkpt lat="41.15055489504641" lon="16.74844411055143"><ele>33.5</ele><time>2026-04-11T13:34:20.999Z</time></trkpt><trkpt lat="41.150480812532244" lon="16.74844009758336"><ele>34.0</ele><time>2026-04-11T13:34:21.999Z</time></trkpt><trkpt lat="41.15041020141574" lon="16.74842910342544"><ele>34.5</ele><time>2026-04-11T13:34:22.999Z</time></trkpt><trkpt lat="41.15034343611337" lon="16.74842664231435"><ele>35.0</ele><time>2026-04-11T13:34:23.999Z</time></trkpt><trkpt lat="41.15025810139072" lon="16.748390032357477"><ele>35.5</ele><time>2026-04-11T13:34:24.999Z</time></trkpt><trkpt lat="41.150154451904974" lon="16.748334089326477"><ele>36.0</ele><time>2026-04-11T13:34:25.999Z</time></trkpt><trkpt lat="41.15004582623671" lon="16.74828126960106"><ele>36.0</ele><time>2026-04-11T13:34:26.999Z</time></trkpt><trkpt lat="41.149953046474565" lon="16.74827898198274"><ele>36.0</ele><time>2026-04-11T13:34:27.999Z</time></trkpt><trkpt lat="41.14986050514883" lon="16.74830623605911"><ele>36.0</ele><time>2026-04-11T13:34:28.999Z</time></trkpt><trkpt lat="41.14977163921773" lon="16.748375276774755"><ele>36.0</ele><time>2026-04-11T13:34:29.999Z</time></trkpt><trkpt lat="41.14969627969124" lon="16.74851750174107"><ele>36.0</ele><time>2026-04-11T13:34:30.999Z</time></trkpt><trkpt lat="41.14964129631044" lon="16.748645560576517"><ele>36.5</ele><time>2026-04-11T13:34:31.999Z</time></trkpt><trkpt lat="41.14958572130913" lon="16.748758861883065"><ele>37.0</ele><time>2026-04-11T13:34:32.999Z</time></trkpt><trkpt lat="41.14953978223113" lon="16.748875570105554"><ele>37.5</ele><time>2026-04-11T13:34:33.999Z</time></trkpt><trkpt lat="41.14951367419668" lon="16.748962267001215"><ele>38.0</ele><time>2026-04-11T13:34:34.999Z</time></trkpt><trkpt lat="41.14957624254168" lon="16.749045330227137"><ele>38.5</ele><time>2026-04-11T13:34:36.999Z</time></trkpt><trkpt lat="41.14965829258399" lon="16.749021136459167"><ele>39.0</ele><time>2026-04-11T13:34:37.999Z</time></trkpt><trkpt lat="41.14974867038154" lon="16.74893196408689"><ele>39.0</ele><time>2026-04-11T13:34:38.999Z</time></trkpt><trkpt lat="41.14985857327907" lon="16.74878833381587"><ele>39.0</ele><time>2026-04-11T13:34:39.999Z</time></trkpt><trkpt lat="41.1499639038504" lon="16.74870226984533"><ele>39.0</ele><time>2026-04-11T13:34:40.999Z</time></trkpt><trkpt lat="41.15005823529648" lon="16.74865782021219"><ele>39.0</ele><time>2026-04-11T13:34:41.999Z</time></trkpt><trkpt lat="41.15013612302482" lon="16.74868011633928"><ele>38.2</ele><time>2026-04-11T13:34:42.999Z</time></trkpt><trkpt lat="41.1501950161523" lon="16.748716871622513"><ele>37.4</ele><time>2026-04-11T13:34:43.999Z</time></trkpt><trkpt lat="41.15018436247408" lon="16.748846157195995"><ele>36.6</ele><time>2026-04-11T13:34:45.999Z</time></trkpt><trkpt lat="41.150096975122715" lon="16.74892832054885"><ele>35.8</ele><time>2026-04-11T13:34:46.999Z</time></trkpt><trkpt lat="41.15000149068097" lon="16.74898477841784"><ele>35.0</ele><time>2026-04-11T13:34:47.999Z</time></trkpt><trkpt lat="41.14988904471813" lon="16.74905342078603"><ele>35.0</ele><time>2026-04-11T13:34:48.999Z</time></trkpt><trkpt lat="41.149783858080575" lon="16.74910532020353"><ele>35.0</ele><time>2026-04-11T13:34:49.999Z</time></trkpt><trkpt lat="41.149685324760036" lon="16.749126791792776"><ele>35.0</ele><time>2026-04-11T13:34:50.999Z</time></trkpt><trkpt lat="41.14964667754197" lon="16.74919544731678"><ele>35.0</ele><time>2026-04-11T13:34:52.999Z</time></trkpt><trkpt lat="41.14977592671724" lon="16.74928901665647"><ele>35.0</ele><time>2026-04-11T13:34:55Z</time></trkpt><trkpt lat="41.149898076664094" lon="16.74930725709483"><ele>35.0</ele><time>2026-04-11T13:34:56Z</time></trkpt><trkpt lat="41.15001421739035" lon="16.749305660556637"><ele>35.0</ele><time>2026-04-11T13:34:57Z</time></trkpt><trkpt lat="41.15012908052733" lon="16.74927055301172"><ele>35.0</ele><time>2026-04-11T13:34:58Z</time></trkpt><trkpt lat="41.15021005445236" lon="16.749242511679505"><ele>35.0</ele><time>2026-04-11T13:34:59Z</time></trkpt><trkpt lat="41.15027715779443" lon="16.749226724864855"><ele>35.0</ele><time>2026-04-11T13:35:00Z</time></trkpt><trkpt lat="41.150334014664104" lon="16.749063243258018"><ele>35.0</ele><time>2026-04-11T13:35:02Z</time></trkpt><trkpt lat="41.15032657424072" lon="16.74894252554367"><ele>35.0</ele><time>2026-04-11T13:35:03Z</time></trkpt><trkpt lat="41.15031307881327" lon="16.748803879306774"><ele>35.0</ele><time>2026-04-11T13:35:04Z</time></trkpt><trkpt lat="41.15032509577377" lon="16.748703936603803"><ele>35.0</ele><time>2026-04-11T13:35:05Z</time></trkpt><trkpt lat="41.15031366134772" lon="16.748546187944672"><ele>35.0</ele><time>2026-04-11T13:35:07Z</time></trkpt><trkpt lat="41.15040656719317" lon="16.74863599828416"><ele>35.0</ele><time>2026-04-11T13:35:10Z</time></trkpt><trkpt lat="41.15042512186067" lon="16.748745169642614"><ele>35.0</ele><time>2026-04-11T13:35:11Z</time></trkpt><trkpt lat="41.15044307665185" lon="16.748910426443985"><ele>35.0</ele><time>2026-04-11T13:35:12Z</time></trkpt><trkpt lat="41.15046576658874" lon="16.749081289300868"><ele>35.0</ele><time>2026-04-11T13:35:13Z</time></trkpt><trkpt lat="41.15051227611598" lon="16.749210061458353"><ele>35.0</ele><time>2026-04-11T13:35:14Z</time></trkpt><trkpt lat="41.150534066953036" lon="16.749293779632985"><ele>35.0</ele><time>2026-04-11T13:35:15Z</time></trkpt><trkpt lat="41.15059498346005" lon="16.749358422425374"><ele>35.0</ele><time>2026-04-11T13:35:17Z</time></trkpt><trkpt lat="41.15067025364656" lon="16.749328820247726"><ele>35.0</ele><time>2026-04-11T13:35:18Z</time></trkpt><trkpt lat="41.15077849228009" lon="16.749293901009178"><ele>35.0</ele><time>2026-04-11T13:35:19Z</time></trkpt><trkpt lat="41.15090095669622" lon="16.74925385475649"><ele>35.0</ele><time>2026-04-11T13:35:20Z</time></trkpt><trkpt lat="41.15102780228539" lon="16.74924996675674"><ele>34.6</ele><time>2026-04-11T13:35:21Z</time></trkpt><trkpt lat="41.15111736818395" lon="16.749277107346842"><ele>34.2</ele><time>2026-04-11T13:35:22Z</time></trkpt><trkpt lat="41.15120138598739" lon="16.749327920507536"><ele>33.8</ele><time>2026-04-11T13:35:24Z</time></trkpt><trkpt lat="41.151249876891356" lon="16.7492429536134"><ele>33.4</ele><time>2026-04-11T13:35:26Z</time></trkpt><trkpt lat="41.15121980437633" lon="16.749099872712026"><ele>33.0</ele><time>2026-04-11T13:35:28Z</time></trkpt><trkpt lat="41.151121208844074" lon="16.74910892135243"><ele>33.0</ele><time>2026-04-11T13:35:30Z</time></trkpt><trkpt lat="41.15106572782792" lon="16.74915362459551"><ele>33.0</ele><time>2026-04-11T13:35:31Z</time></trkpt><trkpt lat="41.1509667607786" lon="16.74916364358648"><ele>33.0</ele><time>2026-04-11T13:35:32Z</time></trkpt><trkpt lat="41.15082300811276" lon="16.749138085653975"><ele>33.0</ele><time>2026-04-11T13:35:33Z</time></trkpt><trkpt lat="41.15068900599996" lon="16.749129446335473"><ele>33.0</ele><time>2026-04-11T13:35:34Z</time></trkpt><trkpt lat="41.15060863689061" lon="16.749170199175033"><ele>33.0</ele><time>2026-04-11T13:35:35Z</time></trkpt><trkpt lat="41.15054461756077" lon="16.749060073169346"><ele>33.0</ele><time>2026-04-11T13:35:38Z</time></trkpt><trkpt lat="41.15053866476426" lon="16.74894543392383"><ele>33.0</ele><time>2026-04-11T13:35:39Z</time></trkpt><trkpt lat="41.150588080193685" lon="16.748839569638392"><ele>33.0</ele><time>2026-04-11T13:35:41Z</time></trkpt><trkpt lat="41.15064355103332" lon="16.748797100263516"><ele>33.0</ele><time>2026-04-11T13:35:42Z</time></trkpt><trkpt lat="41.15079694308272" lon="16.748874236435643"><ele>33.0</ele><time>2026-04-11T13:35:44Z</time></trkpt><trkpt lat="41.150891072098894" lon="16.748936733569977"><ele>33.0</ele><time>2026-04-11T13:35:45Z</time></trkpt><trkpt lat="41.15098987986056" lon="16.749028858295198"><ele>33.0</ele><time>2026-04-11T13:35:46Z</time></trkpt><trkpt lat="41.15105681213577" lon="16.74908931663465"><ele>33.0</ele><time>2026-04-11T13:35:47Z</time></trkpt><trkpt lat="41.15113836604681" lon="16.749053481432814"><ele>33.0</ele><time>2026-04-11T13:35:49Z</time></trkpt><trkpt lat="41.151224314213046" lon="16.749000439137667"><ele>33.0</ele><time>2026-04-11T13:35:50Z</time></trkpt><trkpt lat="41.15131966308349" lon="16.748970701214837"><ele>33.0</ele><time>2026-04-11T13:35:51Z</time></trkpt><trkpt lat="41.15139403318232" lon="16.748969527821068"><ele>33.0</ele><time>2026-04-11T13:35:52Z</time></trkpt><trkpt lat="41.15143934897544" lon="16.748899583683194"><ele>33.0</ele><time>2026-04-11T13:35:54Z</time></trkpt><trkpt lat="41.15134561299619" lon="16.74879552650699"><ele>33.0</ele><time>2026-04-11T13:35:57Z</time></trkpt><trkpt lat="41.15124820008684" lon="16.748760387094663"><ele>33.0</ele><time>2026-04-11T13:35:58Z</time></trkpt><trkpt lat="41.151127134794656" lon="16.748708317253968"><ele>33.0</ele><time>2026-04-11T13:35:59Z</time></trkpt><trkpt lat="41.15099697940355" lon="16.748637929441863"><ele>33.0</ele><time>2026-04-11T13:36:00Z</time></trkpt><trkpt lat="41.15085801812146" lon="16.748572322131647"><ele>33.0</ele><time>2026-04-11T13:36:01Z</time></trkpt><trkpt lat="41.15072648231856" lon="16.74851865803263"><ele>33.6</ele><time>2026-04-11T13:36:02Z</time></trkpt><trkpt lat="41.15060996762851" lon="16.74847684488011"><ele>34.199999999999996</ele><time>2026-04-11T13:36:03Z</time></trkpt><trkpt lat="41.150509430922206" lon="16.748451232078153"><ele>34.8</ele><time>2026-04-11T13:36:03.999Z</time></trkpt><trkpt lat="41.15044050074158" lon="16.748447159056884"><ele>35.4</ele><time>2026-04-11T13:36:04.999Z</time></trkpt><trkpt lat="41.1503514541094" lon="16.748432360027152"><ele>36.0</ele><time>2026-04-11T13:36:05.999Z</time></trkpt><trkpt lat="41.15025766374934" lon="16.748398201419636"><ele>36.0</ele><time>2026-04-11T13:36:06.999Z</time></trkpt><trkpt lat="41.15015773817363" lon="16.748342645657274"><ele>36.0</ele><time>2026-04-11T13:36:07.999Z</time></trkpt><trkpt lat="41.150055920430034" lon="16.748289666200616"><ele>36.0</ele><time>2026-04-11T13:36:08.999Z</time></trkpt><trkpt lat="41.14995983550969" lon="16.748280689464487"><ele>36.0</ele><time>2026-04-11T13:36:09.999Z</time></trkpt><trkpt lat="41.14986957058684" lon="16.748321551394234"><ele>36.0</ele><time>2026-04-11T13:36:10.999Z</time></trkpt><trkpt lat="41.149786027354445" lon="16.748379403945144"><ele>36.75</ele><time>2026-04-11T13:36:11.999Z</time></trkpt><trkpt lat="41.14971044176142" lon="16.748527614418034"><ele>37.5</ele><time>2026-04-11T13:36:12.999Z</time></trkpt><trkpt lat="41.14965285891973" lon="16.748672936160297"><ele>38.25</ele><time>2026-04-11T13:36:13.999Z</time></trkpt><trkpt lat="41.14959345624863" lon="16.748795401206905"><ele>39.0</ele><time>2026-04-11T13:36:14.999Z</time></trkpt><trkpt lat="41.14955233824262" lon="16.74890706503665"><ele>39.0</ele><time>2026-04-11T13:36:15.999Z</time></trkpt><trkpt lat="41.1495241312055" lon="16.749008381059088"><ele>39.0</ele><time>2026-04-11T13:36:16.999Z</time></trkpt><trkpt lat="41.14959026725481" lon="16.749094199139904"><ele>39.0</ele><time>2026-04-11T13:36:18.999Z</time></trkpt><trkpt lat="41.149659042430144" lon="16.749039248364586"><ele>39.0</ele><time>2026-04-11T13:36:19.999Z</time></trkpt><trkpt lat="41.149759992669956" lon="16.748926655275234"><ele>39.0</ele><time>2026-04-11T13:36:20.999Z</time></trkpt><trkpt lat="41.14987602006424" lon="16.748805738372884"><ele>38.2</ele><time>2026-04-11T13:36:21.999Z</time></trkpt><trkpt lat="41.14999796379057" lon="16.748730493517666"><ele>37.4</ele><time>2026-04-11T13:36:22.999Z</time></trkpt><trkpt lat="41.15009744115989" lon="16.748669156123277"><ele>36.6</ele><time>2026-04-11T13:36:23.999Z</time></trkpt><trkpt lat="41.15018343993392" lon="16.74867909282044"><ele>35.8</ele><time>2026-04-11T13:36:24.999Z</time></trkpt><trkpt lat="41.15025080915363" lon="16.74873145766734"><ele>35.0</ele><time>2026-04-11T13:36:25.999Z</time></trkpt><trkpt lat="41.15021480239702" lon="16.748870807715264"><ele>35.0</ele><time>2026-04-11T13:36:27.999Z</time></trkpt><trkpt lat="41.150121172218476" lon="16.748938073518097"><ele>35.0</ele><time>2026-04-11T13:36:28.999Z</time></trkpt><trkpt lat="41.150019962388846" lon="16.74900103772105"><ele>35.0</ele><time>2026-04-11T13:36:29.999Z</time></trkpt><trkpt lat="41.149883165165164" lon="16.749052044288177"><ele>35.0</ele><time>2026-04-11T13:36:30.999Z</time></trkpt><trkpt lat="41.1497394808738" lon="16.749088569046034"><ele>35.0</ele><time>2026-04-11T13:36:31.999Z</time></trkpt><trkpt lat="41.14967266375662" lon="16.74913023488635"><ele>35.0</ele><time>2026-04-11T13:36:32.999Z</time></trkpt><trkpt lat="41.14963698422898" lon="16.749206182899325"><ele>35.0</ele><time>2026-04-11T13:36:34.999Z</time></trkpt><trkpt lat="41.149769049070265" lon="16.74929355432516"><ele>35.0</ele><time>2026-04-11T13:36:36.999Z</time></trkpt><trkpt lat="41.14988092507356" lon="16.749315613672938"><ele>35.0</ele><time>2026-04-11T13:36:37.999Z</time></trkpt><trkpt lat="41.14999782025684" lon="16.749311551705837"><ele>35.0</ele><time>2026-04-11T13:36:38.999Z</time></trkpt><trkpt lat="41.15009920830372" lon="16.7492843459439"><ele>35.0</ele><time>2026-04-11T13:36:39.999Z</time></trkpt><trkpt lat="41.150192844925385" lon="16.749250597543778"><ele>35.0</ele><time>2026-04-11T13:36:40.999Z</time></trkpt><trkpt lat="41.15025663838567" lon="16.749219019830193"><ele>35.0</ele><time>2026-04-11T13:36:41.999Z</time></trkpt><trkpt lat="41.15027982049132" lon="16.749117439809353"><ele>35.0</ele><time>2026-04-11T13:36:43.999Z</time></trkpt><trkpt lat="41.150291517502495" lon="16.749022510015305"><ele>35.0</ele><time>2026-04-11T13:36:45.999Z</time></trkpt><trkpt lat="41.15029628931047" lon="16.748898213450126"><ele>35.0</ele><time>2026-04-11T13:36:46.999Z</time></trkpt><trkpt lat="41.150304216087115" lon="16.748764202785235"><ele>35.0</ele><time>2026-04-11T13:36:47.999Z</time></trkpt><trkpt lat="41.15031231545475" lon="16.748631108256383"><ele>35.0</ele><time>2026-04-11T13:36:48.999Z</time></trkpt><trkpt lat="41.150288849457546" lon="16.74854714230693"><ele>35.0</ele><time>2026-04-11T13:36:49.999Z</time></trkpt><trkpt lat="41.150376542834465" lon="16.74861186199703"><ele>35.0</ele><time>2026-04-11T13:36:52.999Z</time></trkpt><trkpt lat="41.15039379641718" lon="16.748696227721307"><ele>35.0</ele><time>2026-04-11T13:36:53.999Z</time></trkpt><trkpt lat="41.150412468778555" lon="16.74882440128201"><ele>35.0</ele><time>2026-04-11T13:36:54.999Z</time></trkpt><trkpt lat="41.15043924804156" lon="16.748997268071506"><ele>35.0</ele><time>2026-04-11T13:36:55.999Z</time></trkpt><trkpt lat="41.150475553049205" lon="16.74917146230913"><ele>35.0</ele><time>2026-04-11T13:36:56.999Z</time></trkpt><trkpt lat="41.15051143737146" lon="16.74927622070085"><ele>35.0</ele><time>2026-04-11T13:36:57.999Z</time></trkpt><trkpt lat="41.15057006691423" lon="16.749360844322684"><ele>35.0</ele><time>2026-04-11T13:36:59.999Z</time></trkpt><trkpt lat="41.15066676929329" lon="16.74932861604912"><ele>34.6</ele><time>2026-04-11T13:37:02Z</time></trkpt><trkpt lat="41.15074033429519" lon="16.749305171778044"><ele>34.2</ele><time>2026-04-11T13:37:03Z</time></trkpt><trkpt lat="41.150849461516394" lon="16.749274974510836"><ele>33.8</ele><time>2026-04-11T13:37:04Z</time></trkpt><trkpt lat="41.150967046952644" lon="16.74925814496528"><ele>33.4</ele><time>2026-04-11T13:37:05Z</time></trkpt><trkpt lat="41.15106276163371" lon="16.749255470003263"><ele>33.0</ele><time>2026-04-11T13:37:06Z</time></trkpt><trkpt lat="41.15114374293925" lon="16.749278019730482"><ele>33.0</ele><time>2026-04-11T13:37:07Z</time></trkpt><trkpt lat="41.151217364104454" lon="16.749306045088762"><ele>33.0</ele><time>2026-04-11T13:37:08Z</time></trkpt><trkpt lat="41.15126877380158" lon="16.749210433451633"><ele>33.0</ele><time>2026-04-11T13:37:11Z</time></trkpt><trkpt lat="41.15124123319853" lon="16.749088150200794"><ele>33.0</ele><time>2026-04-11T13:37:13Z</time></trkpt><trkpt lat="41.15113847546937" lon="16.74910274901843"><ele>33.0</ele><time>2026-04-11T13:37:15Z</time></trkpt><trkpt lat="41.15106695769254" lon="16.749139733420954"><ele>33.0</ele><time>2026-04-11T13:37:16Z</time></trkpt><trkpt lat="41.15097137471341" lon="16.749155064519073"><ele>33.0</ele><time>2026-04-11T13:37:17Z</time></trkpt><trkpt lat="41.15083327555224" lon="16.74914290295536"><ele>33.0</ele><time>2026-04-11T13:37:18Z</time></trkpt><trkpt lat="41.150699700751495" lon="16.74914012511324"><ele>33.0</ele><time>2026-04-11T13:37:19Z</time></trkpt><trkpt lat="41.15061328459661" lon="16.749164634048324"><ele>33.0</ele><time>2026-04-11T13:37:20Z</time></trkpt><trkpt lat="41.150543756669" lon="16.74916134969418"><ele>33.0</ele><time>2026-04-11T13:37:22Z</time></trkpt><trkpt lat="41.15054670418474" lon="16.74907767592458"><ele>33.0</ele><time>2026-04-11T13:37:23Z</time></trkpt><trkpt lat="41.15052199614824" lon="16.748963020445498"><ele>33.0</ele><time>2026-04-11T13:37:24Z</time></trkpt><trkpt lat="41.15051598656205" lon="16.748876406205422"><ele>33.0</ele><time>2026-04-11T13:37:25Z</time></trkpt><trkpt lat="41.1505772406817" lon="16.74881789496802"><ele>33.0</ele><time>2026-04-11T13:37:28Z</time></trkpt><trkpt lat="41.150657942454906" lon="16.748825854860474"><ele>33.0</ele><time>2026-04-11T13:37:30Z</time></trkpt><trkpt lat="41.150763239177564" lon="16.748867457105842"><ele>33.0</ele><time>2026-04-11T13:37:32Z</time></trkpt><trkpt lat="41.15083489831899" lon="16.748908320911823"><ele>33.0</ele><time>2026-04-11T13:37:33Z</time></trkpt><trkpt lat="41.1509179643679" lon="16.748972817761732"><ele>33.0</ele><time>2026-04-11T13:37:34Z</time></trkpt><trkpt lat="41.15097674144292" lon="16.74903721056318"><ele>33.0</ele><time>2026-04-11T13:37:35Z</time></trkpt><trkpt lat="41.151070529126144" lon="16.74906629766105"><ele>33.0</ele><time>2026-04-11T13:37:37Z</time></trkpt><trkpt lat="41.15118382926811" lon="16.74899339696461"><ele>33.0</ele><time>2026-04-11T13:37:39Z</time></trkpt><trkpt lat="41.151272774258466" lon="16.748967216367507"><ele>33.0</ele><time>2026-04-11T13:37:40Z</time></trkpt><trkpt lat="41.151365268040344" lon="16.748954696254195"><ele>33.0</ele><time>2026-04-11T13:37:41Z</time></trkpt><trkpt lat="41.151430086085576" lon="16.74895319053139"><ele>33.0</ele><time>2026-04-11T13:37:42Z</time></trkpt><trkpt lat="41.15146024458087" lon="16.74886111347805"><ele>33.0</ele><time>2026-04-11T13:37:44Z</time></trkpt><trkpt lat="41.15134530998613" lon="16.748774698493477"><ele>33.0</ele><time>2026-04-11T13:37:46Z</time></trkpt><trkpt lat="41.151235692375984" lon="16.748742194498657"><ele>33.0</ele><time>2026-04-11T13:37:47Z</time></trkpt><trkpt lat="41.151109643501236" lon="16.748695030243574"><ele>33.0</ele><time>2026-04-11T13:37:48Z</time></trkpt><trkpt lat="41.15097799394803" lon="16.7486331700673"><ele>33.0</ele><time>2026-04-11T13:37:49Z</time></trkpt><trkpt lat="41.15085120744638" lon="16.748563873519828"><ele>33.0</ele><time>2026-04-11T13:37:50Z</time></trkpt><trkpt lat="41.15073073658502" lon="16.748517019783574"><ele>33.5</ele><time>2026-04-11T13:37:51Z</time></trkpt><trkpt lat="41.15062398261922" lon="16.748477527780164"><ele>34.0</ele><time>2026-04-11T13:37:52Z</time></trkpt><trkpt lat="41.15053520360325" lon="16.74845624468355"><ele>34.5</ele><time>2026-04-11T13:37:53Z</time></trkpt><trkpt lat="41.150468885165076" lon="16.748450879120075"><ele>35.0</ele><time>2026-04-11T13:37:54Z</time></trkpt><trkpt lat="41.15038261373605" lon="16.748438985061384"><ele>35.5</ele><time>2026-04-11T13:37:55Z</time></trkpt><trkpt lat="41.15029188942717" lon="16.748402204501424"><ele>36.0</ele><time>2026-04-11T13:37:56Z</time></trkpt><trkpt lat="41.15018609196627" lon="16.748352529760645"><ele>36.0</ele><time>2026-04-11T13:37:57Z</time></trkpt><trkpt lat="41.15008372932614" lon="16.748296574439507"><ele>36.0</ele><time>2026-04-11T13:37:58Z</time></trkpt><trkpt lat="41.149991176227296" lon="16.748286867860802"><ele>36.0</ele><time>2026-04-11T13:37:59Z</time></trkpt><trkpt lat="41.14990547431035" lon="16.748302773166117"><ele>36.0</ele><time>2026-04-11T13:38:00Z</time></trkpt><trkpt lat="41.14982355659324" lon="16.748361714352402"><ele>36.0</ele><time>2026-04-11T13:38:01Z</time></trkpt><trkpt lat="41.14975270738189" lon="16.748457164427485"><ele>36.6</ele><time>2026-04-11T13:38:02Z</time></trkpt><trkpt lat="41.149689535946166" lon="16.748571820935023"><ele>37.2</ele><time>2026-04-11T13:38:03Z</time></trkpt><trkpt lat="41.14963109737343" lon="16.748676911668195"><ele>37.8</ele><time>2026-04-11T13:38:04Z</time></trkpt><trkpt lat="41.14957997202069" lon="16.748794116102122"><ele>38.4</ele><time>2026-04-11T13:38:05Z</time></trkpt><trkpt lat="41.14954465312447" lon="16.748901946300887"><ele>39.0</ele><time>2026-04-11T13:38:06Z</time></trkpt><trkpt lat="41.149536490940484" lon="16.749041158867477"><ele>39.0</ele><time>2026-04-11T13:38:08Z</time></trkpt><trkpt lat="41.149647332601845" lon="16.7490374264387"><ele>39.0</ele><time>2026-04-11T13:38:10Z</time></trkpt><trkpt lat="41.1497539161136" lon="16.748935377728973"><ele>39.0</ele><time>2026-04-11T13:38:10.999Z</time></trkpt><trkpt lat="41.14985745603116" lon="16.74881334785219"><ele>39.0</ele><time>2026-04-11T13:38:11.999Z</time></trkpt><trkpt lat="41.14996317596994" lon="16.748699522376423"><ele>38.2</ele><time>2026-04-11T13:38:12.999Z</time></trkpt><trkpt lat="41.150065608323644" lon="16.748659206705877"><ele>37.4</ele><time>2026-04-11T13:38:13.999Z</time></trkpt><trkpt lat="41.15015717437998" lon="16.74867032250337"><ele>36.6</ele><time>2026-04-11T13:38:14.999Z</time></trkpt><trkpt lat="41.15021038496767" lon="16.748717796797184"><ele>35.8</ele><time>2026-04-11T13:38:15.999Z</time></trkpt><trkpt lat="41.15019726282327" lon="16.748853261235222"><ele>35.0</ele><time>2026-04-11T13:38:17.999Z</time></trkpt><trkpt lat="41.15012446982685" lon="16.748918252908187"><ele>35.0</ele><time>2026-04-11T13:38:18.999Z</time></trkpt><trkpt lat="41.15002853919882" lon="16.748963621232335"><ele>35.0</ele><time>2026-04-11T13:38:19.999Z</time></trkpt><trkpt lat="41.14990961898654" lon="16.74901495412878"><ele>35.0</ele><time>2026-04-11T13:38:20.999Z</time></trkpt><trkpt lat="41.14978194817568" lon="16.749050284695226"><ele>35.0</ele><time>2026-04-11T13:38:21.999Z</time></trkpt><trkpt lat="41.14968507910369" lon="16.749066235815196"><ele>35.0</ele><time>2026-04-11T13:38:22.999Z</time></trkpt><trkpt lat="41.14965520358613" lon="16.749148645397586"><ele>35.0</ele><time>2026-04-11T13:38:24.999Z</time></trkpt><trkpt lat="41.14978203211282" lon="16.74924769453457"><ele>35.0</ele><time>2026-04-11T13:38:26.999Z</time></trkpt><trkpt lat="41.14988913250915" lon="16.749260453102366"><ele>35.0</ele><time>2026-04-11T13:38:27.999Z</time></trkpt><trkpt lat="41.15000310746681" lon="16.74927008888889"><ele>35.0</ele><time>2026-04-11T13:38:28.999Z</time></trkpt><trkpt lat="41.150100198026024" lon="16.749269453276856"><ele>35.0</ele><time>2026-04-11T13:38:29.999Z</time></trkpt><trkpt lat="41.150183777218984" lon="16.74923324157888"><ele>35.0</ele><time>2026-04-11T13:38:30.999Z</time></trkpt><trkpt lat="41.150248680059754" lon="16.749202306018667"><ele>35.0</ele><time>2026-04-11T13:38:31.999Z</time></trkpt><trkpt lat="41.150301485071566" lon="16.74908024493449"><ele>35.0</ele><time>2026-04-11T13:38:33.999Z</time></trkpt><trkpt lat="41.150308114394825" lon="16.748963219069463"><ele>35.0</ele><time>2026-04-11T13:38:34.999Z</time></trkpt><trkpt lat="41.15031546895894" lon="16.74881471272457"><ele>35.0</ele><time>2026-04-11T13:38:35.999Z</time></trkpt><trkpt lat="41.15031164977186" lon="16.748693502858217"><ele>35.0</ele><time>2026-04-11T13:38:36.999Z</time></trkpt><trkpt lat="41.15030438265681" lon="16.748598990055218"><ele>35.0</ele><time>2026-04-11T13:38:37.999Z</time></trkpt><trkpt lat="41.150282065767165" lon="16.748514395257242"><ele>35.0</ele><time>2026-04-11T13:38:38.999Z</time></trkpt><trkpt lat="41.150359483099194" lon="16.748543080242516"><ele>35.0</ele><time>2026-04-11T13:38:40.999Z</time></trkpt><trkpt lat="41.15038856237663" lon="16.748643648804197"><ele>35.0</ele><time>2026-04-11T13:38:41.999Z</time></trkpt><trkpt lat="41.15041007123748" lon="16.74878120064678"><ele>35.0</ele><time>2026-04-11T13:38:42.999Z</time></trkpt><trkpt lat="41.15043106778885" lon="16.74897611690994"><ele>35.0</ele><time>2026-04-11T13:38:43.999Z</time></trkpt><trkpt lat="41.15045759347406" lon="16.749143292859067"><ele>35.0</ele><time>2026-04-11T13:38:44.999Z</time></trkpt><trkpt lat="41.15049045443891" lon="16.749263049914564"><ele>35.0</ele><time>2026-04-11T13:38:45.999Z</time></trkpt><trkpt lat="41.150528071020375" lon="16.749336454052308"><ele>35.0</ele><time>2026-04-11T13:38:46.999Z</time></trkpt><trkpt lat="41.15063114415691" lon="16.74934183756381"><ele>34.6</ele><time>2026-04-11T13:38:48.999Z</time></trkpt><trkpt lat="41.150722179135734" lon="16.74931212505031"><ele>34.2</ele><time>2026-04-11T13:38:49.999Z</time></trkpt><trkpt lat="41.150823530936066" lon="16.7492835787179"><ele>33.8</ele><time>2026-04-11T13:38:50.999Z</time></trkpt><trkpt lat="41.15093693697436" lon="16.749260701893384"><ele>33.4</ele><time>2026-04-11T13:38:51.999Z</time></trkpt><trkpt lat="41.15105770280143" lon="16.74926425157255"><ele>33.0</ele><time>2026-04-11T13:38:52.999Z</time></trkpt><trkpt lat="41.15115748698327" lon="16.74929361379294"><ele>33.0</ele><time>2026-04-11T13:38:53.999Z</time></trkpt><trkpt lat="41.151217744109246" lon="16.74933212846794"><ele>33.0</ele><time>2026-04-11T13:38:54.999Z</time></trkpt><trkpt lat="41.15124582051687" lon="16.749246763488078"><ele>33.0</ele><time>2026-04-11T13:38:56.999Z</time></trkpt><trkpt lat="41.15122464815685" lon="16.74910016675808"><ele>33.0</ele><time>2026-04-11T13:38:58.999Z</time></trkpt><trkpt lat="41.15116205391921" lon="16.749080435986528"><ele>33.0</ele><time>2026-04-11T13:39:00.999Z</time></trkpt><trkpt lat="41.151097211634905" lon="16.7491072938742"><ele>33.0</ele><time>2026-04-11T13:39:02.999Z</time></trkpt><trkpt lat="41.15100922230244" lon="16.74910033094572"><ele>33.0</ele><time>2026-04-11T13:39:03.999Z</time></trkpt><trkpt lat="41.15092077132938" lon="16.749057996790267"><ele>33.0</ele><time>2026-04-11T13:39:04.999Z</time></trkpt><trkpt lat="41.150802631365096" lon="16.74907103744233"><ele>33.0</ele><time>2026-04-11T13:39:05.999Z</time></trkpt><trkpt lat="41.1507047718208" lon="16.74909483125628"><ele>33.0</ele><time>2026-04-11T13:39:07Z</time></trkpt><trkpt lat="41.15064316708386" lon="16.74913237233519"><ele>33.0</ele><time>2026-04-11T13:39:08Z</time></trkpt><trkpt lat="41.1505770879323" lon="16.749121626695512"><ele>33.0</ele><time>2026-04-11T13:39:11Z</time></trkpt><trkpt lat="41.15055045062709" lon="16.749028605382545"><ele>33.0</ele><time>2026-04-11T13:39:13Z</time></trkpt><trkpt lat="41.15054083368174" lon="16.74891444634558"><ele>33.0</ele><time>2026-04-11T13:39:16Z</time></trkpt><trkpt lat="41.150612926192736" lon="16.74882271922534"><ele>33.0</ele><time>2026-04-11T13:39:18Z</time></trkpt><trkpt lat="41.15067658033356" lon="16.748809902634356"><ele>33.0</ele><time>2026-04-11T13:39:19Z</time></trkpt><trkpt lat="41.150783951851444" lon="16.748873282350853"><ele>33.0</ele><time>2026-04-11T13:39:21Z</time></trkpt><trkpt lat="41.15086857391068" lon="16.74892156688997"><ele>33.0</ele><time>2026-04-11T13:39:22Z</time></trkpt><trkpt lat="41.15094533081275" lon="16.74898794160072"><ele>33.0</ele><time>2026-04-11T13:39:23Z</time></trkpt><trkpt lat="41.15100369676359" lon="16.74905241963192"><ele>33.0</ele><time>2026-04-11T13:39:24Z</time></trkpt><trkpt lat="41.1510644740236" lon="16.749077293631284"><ele>33.0</ele><time>2026-04-11T13:39:25Z</time></trkpt><trkpt lat="41.15120792362213" lon="16.748994592734935"><ele>33.0</ele><time>2026-04-11T13:39:27Z</time></trkpt><trkpt lat="41.15129531811346" lon="16.748953638101476"><ele>33.0</ele><time>2026-04-11T13:39:28Z</time></trkpt><trkpt lat="41.15136442485111" lon="16.748954042735978"><ele>33.0</ele><time>2026-04-11T13:39:29Z</time></trkpt><trkpt lat="41.15144587734328" lon="16.748917166654024"><ele>33.0</ele><time>2026-04-11T13:39:31Z</time></trkpt><trkpt lat="41.15140500952314" lon="16.74881601462429"><ele>33.0</ele><time>2026-04-11T13:39:33Z</time></trkpt><trkpt lat="41.15128167239656" lon="16.748754364621632"><ele>33.0</ele><time>2026-04-11T13:39:35Z</time></trkpt><trkpt lat="41.151074905034406" lon="16.748672202086667"><ele>33.0</ele><time>2026-04-11T13:39:37Z</time></trkpt><trkpt lat="41.150925011707145" lon="16.74860896240929"><ele>33.0</ele><time>2026-04-11T13:39:38Z</time></trkpt><trkpt lat="41.15078266044095" lon="16.748544674029986"><ele>33.0</ele><time>2026-04-11T13:39:39Z</time></trkpt><trkpt lat="41.15064762643237" lon="16.748482303687915"><ele>33.6</ele><time>2026-04-11T13:39:40Z</time></trkpt><trkpt lat="41.15053054133587" lon="16.74844596675075"><ele>34.199999999999996</ele><time>2026-04-11T13:39:41Z</time></trkpt><trkpt lat="41.15044178745661" lon="16.748450634662838"><ele>34.8</ele><time>2026-04-11T13:39:42Z</time></trkpt><trkpt lat="41.15036410108353" lon="16.748436764658447"><ele>35.4</ele><time>2026-04-11T13:39:43Z</time></trkpt><trkpt lat="41.150260001465185" lon="16.748401059031757"><ele>36.0</ele><time>2026-04-11T13:39:44Z</time></trkpt><trkpt lat="41.150171347373984" lon="16.74834643393105"><ele>36.0</ele><time>2026-04-11T13:39:45Z</time></trkpt><trkpt lat="41.15008702869163" lon="16.74830473420074"><ele>36.0</ele><time>2026-04-11T13:39:46Z</time></trkpt><trkpt lat="41.14999675056384" lon="16.74829596525765"><ele>36.0</ele><time>2026-04-11T13:39:47Z</time></trkpt><trkpt lat="41.14992047612533" lon="16.748291648366337"><ele>36.0</ele><time>2026-04-11T13:39:48Z</time></trkpt><trkpt lat="41.14983028943427" lon="16.748329064936442"><ele>36.0</ele><time>2026-04-11T13:39:49Z</time></trkpt><trkpt lat="41.14974764448457" lon="16.74838752863156"><ele>36.0</ele><time>2026-04-11T13:39:50Z</time></trkpt><trkpt lat="41.149693571070806" lon="16.748486401180767"><ele>36.6</ele><time>2026-04-11T13:39:51Z</time></trkpt><trkpt lat="41.149627399681755" lon="16.74861756435604"><ele>37.2</ele><time>2026-04-11T13:39:52Z</time></trkpt><trkpt lat="41.14958170847174" lon="16.748739351011466"><ele>37.8</ele><time>2026-04-11T13:39:53Z</time></trkpt><trkpt lat="41.14954567576177" lon="16.748864108879406"><ele>38.4</ele><time>2026-04-11T13:39:54Z</time></trkpt><trkpt lat="41.14951447866332" lon="16.748940673154042"><ele>39.0</ele><time>2026-04-11T13:39:55Z</time></trkpt><trkpt lat="41.14954731458357" lon="16.74906792029267"><ele>39.0</ele><time>2026-04-11T13:39:57Z</time></trkpt><trkpt lat="41.14961458840206" lon="16.749062795113097"><ele>39.0</ele><time>2026-04-11T13:39:58Z</time></trkpt><trkpt lat="41.14970194759452" lon="16.74896769964097"><ele>39.0</ele><time>2026-04-11T13:39:59Z</time></trkpt><trkpt lat="41.14978506290899" lon="16.74887334748743"><ele>39.0</ele><time>2026-04-11T13:40:00Z</time></trkpt><trkpt lat="41.149889424961394" lon="16.74876972501777"><ele>39.0</ele><time>2026-04-11T13:40:01Z</time></trkpt><trkpt lat="41.150000354892875" lon="16.748674547645177"><ele>38.2</ele><time>2026-04-11T13:40:02Z</time></trkpt><trkpt lat="41.15007870507118" lon="16.748667985829"><ele>37.4</ele><time>2026-04-11T13:40:03Z</time></trkpt><trkpt lat="41.15017323736318" lon="16.74866819398289"><ele>36.6</ele><time>2026-04-11T13:40:04Z</time></trkpt><trkpt lat="41.15023471095984" lon="16.748718007725262"><ele>35.8</ele><time>2026-04-11T13:40:05Z</time></trkpt><trkpt lat="41.15016664809085" lon="16.74886510545657"><ele>35.0</ele><time>2026-04-11T13:40:07Z</time></trkpt><trkpt lat="41.150084772251645" lon="16.74894227406669"><ele>35.0</ele><time>2026-04-11T13:40:08Z</time></trkpt><trkpt lat="41.14999640262082" lon="16.748996935339882"><ele>35.0</ele><time>2026-04-11T13:40:09Z</time></trkpt><trkpt lat="41.14988335058647" lon="16.749044870376828"><ele>35.0</ele><time>2026-04-11T13:40:09.999Z</time></trkpt><trkpt lat="41.149763794465706" lon="16.749094232550817"><ele>35.0</ele><time>2026-04-11T13:40:10.999Z</time></trkpt><trkpt lat="41.149695451444295" lon="16.749123815536166"><ele>35.0</ele><time>2026-04-11T13:40:11.999Z</time></trkpt><trkpt lat="41.14960922455051" lon="16.749165095260285"><ele>35.0</ele><time>2026-04-11T13:40:13.999Z</time></trkpt><trkpt lat="41.149698068734" lon="16.74927973175462"><ele>35.0</ele><time>2026-04-11T13:40:15.999Z</time></trkpt><trkpt lat="41.149781139741464" lon="16.749286042497804"><ele>35.0</ele><time>2026-04-11T13:40:16.999Z</time></trkpt><trkpt lat="41.14989348617739" lon="16.74931223831503"><ele>35.0</ele><time>2026-04-11T13:40:17.999Z</time></trkpt><trkpt lat="41.15000417671469" lon="16.749305605316287"><ele>35.0</ele><time>2026-04-11T13:40:18.999Z</time></trkpt><trkpt lat="41.15011979924175" lon="16.74926880396836"><ele>35.0</ele><time>2026-04-11T13:40:19.999Z</time></trkpt><trkpt lat="41.15021189202635" lon="16.74923578751658"><ele>35.0</ele><time>2026-04-11T13:40:20.999Z</time></trkpt><trkpt lat="41.150272826901336" lon="16.749181806828087"><ele>35.0</ele><time>2026-04-11T13:40:21.999Z</time></trkpt><trkpt lat="41.150314084445164" lon="16.74903344683981"><ele>35.0</ele><time>2026-04-11T13:40:23.999Z</time></trkpt><trkpt lat="41.15031332352861" lon="16.748895634620126"><ele>35.0</ele><time>2026-04-11T13:40:24.999Z</time></trkpt><trkpt lat="41.15031166711492" lon="16.748760324683854"><ele>35.0</ele><time>2026-04-11T13:40:25.999Z</time></trkpt><trkpt lat="41.15032589213001" lon="16.748655176988375"><ele>35.0</ele><time>2026-04-11T13:40:26.999Z</time></trkpt><trkpt lat="41.150308428724095" lon="16.74856861019325"><ele>35.0</ele><time>2026-04-11T13:40:27.999Z</time></trkpt><trkpt lat="41.15037636942924" lon="16.74861187857305"><ele>35.0</ele><time>2026-04-11T13:40:30.999Z</time></trkpt><trkpt lat="41.15040789690479" lon="16.74870123178506"><ele>35.0</ele><time>2026-04-11T13:40:31.999Z</time></trkpt><trkpt lat="41.15042058498389" lon="16.748836322922948"><ele>35.0</ele><time>2026-04-11T13:40:32.999Z</time></trkpt><trkpt lat="41.15043514342415" lon="16.748995831376785"><ele>35.0</ele><time>2026-04-11T13:40:33.999Z</time></trkpt><trkpt lat="41.150469576973364" lon="16.749134666389786"><ele>35.0</ele><time>2026-04-11T13:40:34.999Z</time></trkpt><trkpt lat="41.15050258076145" lon="16.74924294796081"><ele>35.0</ele><time>2026-04-11T13:40:35.999Z</time></trkpt><trkpt lat="41.1505363185894" lon="16.74933043444133"><ele>35.0</ele><time>2026-04-11T13:40:36.999Z</time></trkpt><trkpt lat="41.15063010393236" lon="16.74934708693532"><ele>35.0</ele><time>2026-04-11T13:40:38.999Z</time></trkpt><trkpt lat="41.150731471890026" lon="16.749311053436607"><ele>34.6</ele><time>2026-04-11T13:40:39.999Z</time></trkpt><trkpt lat="41.150839934382105" lon="16.74926465102474"><ele>34.2</ele><time>2026-04-11T13:40:40.999Z</time></trkpt><trkpt lat="41.15095420098774" lon="16.749231816025848"><ele>33.8</ele><time>2026-04-11T13:40:41.999Z</time></trkpt><trkpt lat="41.15105866494738" lon="16.74922175349942"><ele>33.4</ele><time>2026-04-11T13:40:42.999Z</time></trkpt><trkpt lat="41.15114833570847" lon="16.749248402103802"><ele>33.0</ele><time>2026-04-11T13:40:43.999Z</time></trkpt><trkpt lat="41.151232391495775" lon="16.749293302957273"><ele>33.0</ele><time>2026-04-11T13:40:44.999Z</time></trkpt><trkpt lat="41.15129578317421" lon="16.749194841277408"><ele>33.0</ele><time>2026-04-11T13:40:47.999Z</time></trkpt><trkpt lat="41.151281617039295" lon="16.74905352667135"><ele>33.0</ele><time>2026-04-11T13:40:49.999Z</time></trkpt><trkpt lat="41.15115649378301" lon="16.749078796777173"><ele>33.0</ele><time>2026-04-11T13:40:51.999Z</time></trkpt><trkpt lat="41.15108206642044" lon="16.749108733307267"><ele>33.0</ele><time>2026-04-11T13:40:52.999Z</time></trkpt><trkpt lat="41.15099437596406" lon="16.749128644050014"><ele>33.0</ele><time>2026-04-11T13:40:53.999Z</time></trkpt><trkpt lat="41.1508834800422" lon="16.74912828124587"><ele>33.0</ele><time>2026-04-11T13:40:54.999Z</time></trkpt><trkpt lat="41.15075651941895" lon="16.749121112073468"><ele>33.0</ele><time>2026-04-11T13:40:55.999Z</time></trkpt><trkpt lat="41.150658832227904" lon="16.749163654394316"><ele>33.0</ele><time>2026-04-11T13:40:56.999Z</time></trkpt><trkpt lat="41.15059768730378" lon="16.749196234074166"><ele>33.0</ele><time>2026-04-11T13:40:57.999Z</time></trkpt><trkpt lat="41.15057269521547" lon="16.74911215021626"><ele>33.0</ele><time>2026-04-11T13:40:59.999Z</time></trkpt><trkpt lat="41.15056236968518" lon="16.749015210479016"><ele>33.0</ele><time>2026-04-11T13:41:00.999Z</time></trkpt><trkpt lat="41.150556803086566" lon="16.74892778950369"><ele>33.0</ele><time>2026-04-11T13:41:01.999Z</time></trkpt><trkpt lat="41.15059874752437" lon="16.748800667067435"><ele>33.0</ele><time>2026-04-11T13:41:03.999Z</time></trkpt><trkpt lat="41.150709681212994" lon="16.748825559566487"><ele>33.0</ele><time>2026-04-11T13:41:05.999Z</time></trkpt><trkpt lat="41.15077763455876" lon="16.74887246171178"><ele>33.0</ele><time>2026-04-11T13:41:06.999Z</time></trkpt><trkpt lat="41.150853076827104" lon="16.748922277575286"><ele>33.0</ele><time>2026-04-11T13:41:07.999Z</time></trkpt><trkpt lat="41.150947959836536" lon="16.749010671168044"><ele>33.0</ele><time>2026-04-11T13:41:08.999Z</time></trkpt><trkpt lat="41.15103406094762" lon="16.749059379346782"><ele>33.0</ele><time>2026-04-11T13:41:09.999Z</time></trkpt><trkpt lat="41.151142642018854" lon="16.749024546951826"><ele>33.0</ele><time>2026-04-11T13:41:11.999Z</time></trkpt><trkpt lat="41.151216712750994" lon="16.748968775904554"><ele>33.0</ele><time>2026-04-11T13:41:13Z</time></trkpt><trkpt lat="41.15129487293225" lon="16.748955535177902"><ele>33.0</ele><time>2026-04-11T13:41:14Z</time></trkpt><trkpt lat="41.15136805895766" lon="16.748963163213713"><ele>33.0</ele><time>2026-04-11T13:41:15Z</time></trkpt><trkpt lat="41.15144403348228" lon="16.748912127997208"><ele>33.0</ele><time>2026-04-11T13:41:17Z</time></trkpt><trkpt lat="41.15138690158137" lon="16.748788023084273"><ele>33.0</ele><time>2026-04-11T13:41:19Z</time></trkpt><trkpt lat="41.15131567185594" lon="16.748760050254063"><ele>33.0</ele><time>2026-04-11T13:41:20Z</time></trkpt><trkpt lat="41.15122005674957" lon="16.748732193312634"><ele>33.0</ele><time>2026-04-11T13:41:21Z</time></trkpt><trkpt lat="41.151086376247804" lon="16.748677756115594"><ele>33.0</ele><time>2026-04-11T13:41:22Z</time></trkpt><trkpt lat="41.15093855208875" lon="16.748600604342027"><ele>33.0</ele><time>2026-04-11T13:41:23Z</time></trkpt><trkpt lat="41.15079625194393" lon="16.74852109750346"><ele>33.0</ele><time>2026-04-11T13:41:24Z</time></trkpt><trkpt lat="41.150671485831396" lon="16.74847570055539"><ele>33.0</ele><time>2026-04-11T13:41:25Z</time></trkpt><trkpt lat="41.15057059953692" lon="16.74843849576097"><ele>33.6</ele><time>2026-04-11T13:41:26Z</time></trkpt><trkpt lat="41.15046994725175" lon="16.748435785634513"><ele>34.199999999999996</ele><time>2026-04-11T13:41:27Z</time></trkpt><trkpt lat="41.15038382199292" lon="16.748433933843568"><ele>34.8</ele><time>2026-04-11T13:41:28Z</time></trkpt><trkpt lat="41.15031337238815" lon="16.748407988256815"><ele>35.4</ele><time>2026-04-11T13:41:29Z</time></trkpt><trkpt lat="41.15021753375402" lon="16.748368526869008"><ele>36.0</ele><time>2026-04-11T13:41:30Z</time></trkpt><trkpt lat="41.15013147937407" lon="16.74832213449162"><ele>36.0</ele><time>2026-04-11T13:41:31Z</time></trkpt><trkpt lat="41.15005180787617" lon="16.74828459034531"><ele>36.0</ele><time>2026-04-11T13:41:32Z</time></trkpt><trkpt lat="41.149988503666044" lon="16.748281065249877"><ele>36.0</ele><time>2026-04-11T13:41:33Z</time></trkpt><trkpt lat="41.14988180404998" lon="16.74832546106132"><ele>36.0</ele><time>2026-04-11T13:41:35Z</time></trkpt><trkpt lat="41.14978069824215" lon="16.748434636785227"><ele>36.0</ele><time>2026-04-11T13:41:37Z</time></trkpt><trkpt lat="41.14972582710351" lon="16.748507943749807"><ele>36.5</ele><time>2026-04-11T13:41:38Z</time></trkpt><trkpt lat="41.14967787983953" lon="16.74859228743834"><ele>37.0</ele><time>2026-04-11T13:41:39Z</time></trkpt><trkpt lat="41.14963522010014" lon="16.748684418207603"><ele>37.5</ele><time>2026-04-11T13:41:40Z</time></trkpt><trkpt lat="41.14960540278667" lon="16.748776380833476"><ele>38.0</ele><time>2026-04-11T13:41:41Z</time></trkpt><trkpt lat="41.149589508391" lon="16.748865030954445"><ele>38.5</ele><time>2026-04-11T13:41:42Z</time></trkpt><trkpt lat="41.149557556423225" lon="16.74895198652004"><ele>39.0</ele><time>2026-04-11T13:41:45Z</time></trkpt><trkpt lat="41.149476222095124" lon="16.74898216649443"><ele>39.0</ele><time>2026-04-11T13:51:55Z</time></trkpt><trkpt lat="41.14954211810083" lon="16.74902993715026"><ele>39.0</ele><time>2026-04-11T13:52:01Z</time></trkpt><trkpt lat="41.14961995208468" lon="16.749029570016134"><ele>39.0</ele><time>2026-04-11T13:52:04Z</time></trkpt><trkpt lat="41.14968362201621" lon="16.748958066111616"><ele>39.0</ele><time>2026-04-11T13:52:06Z</time></trkpt><trkpt lat="41.14975499601759" lon="16.748898627508627"><ele>39.0</ele><time>2026-04-11T13:52:08Z</time></trkpt><trkpt lat="41.14983668685924" lon="16.74882230537957"><ele>39.0</ele><time>2026-04-11T13:52:10Z</time></trkpt><trkpt lat="41.14990462826802" lon="16.748764864122045"><ele>38.333333333333336</ele><time>2026-04-11T13:52:12Z</time></trkpt><trkpt lat="41.14998762899789" lon="16.748722844984375"><ele>37.666666666666664</ele><time>2026-04-11T13:52:14Z</time></trkpt><trkpt lat="41.15007462832709" lon="16.74870226108729"><ele>37.0</ele><time>2026-04-11T13:52:16Z</time></trkpt><trkpt lat="41.150164933013876" lon="16.74871407422905"><ele>36.33333333333333</ele><time>2026-04-11T13:52:18Z</time></trkpt><trkpt lat="41.15022098146894" lon="16.74875814052214"><ele>35.666666666666664</ele><time>2026-04-11T13:52:20Z</time></trkpt><trkpt lat="41.15028513757913" lon="16.74876639733803"><ele>35.0</ele><time>2026-04-11T13:52:24Z</time></trkpt><trkpt lat="41.15036684543757" lon="16.748806601969722"><ele>35.0</ele><time>2026-04-11T13:52:26Z</time></trkpt><trkpt lat="41.15041628470578" lon="16.748866212343913"><ele>35.0</ele><time>2026-04-11T13:52:28Z</time></trkpt><trkpt lat="41.15043196588313" lon="16.748961989040314"><ele>35.0</ele><time>2026-04-11T13:52:30Z</time></trkpt><trkpt lat="41.150451249414175" lon="16.749057296399023"><ele>35.0</ele><time>2026-04-11T13:52:32Z</time></trkpt><trkpt lat="41.150482073961" lon="16.749158172710402"><ele>35.0</ele><time>2026-04-11T13:52:34Z</time></trkpt><trkpt lat="41.15050613116976" lon="16.749246731766778"><ele>35.0</ele><time>2026-04-11T13:52:36Z</time></trkpt><trkpt lat="41.15054251979116" lon="16.749319308390838"><ele>35.0</ele><time>2026-04-11T13:52:38Z</time></trkpt><trkpt lat="41.15062218594789" lon="16.749359758363692"><ele>35.166666666666664</ele><time>2026-04-11T13:52:41Z</time></trkpt><trkpt lat="41.15068300268333" lon="16.749415054089905"><ele>35.33333333333333</ele><time>2026-04-11T13:52:44Z</time></trkpt><trkpt lat="41.15071699335362" lon="16.749507899820603"><ele>35.5</ele><time>2026-04-11T13:52:46Z</time></trkpt><trkpt lat="41.150671082605804" lon="16.749584159932837"><ele>35.666666666666664</ele><time>2026-04-11T13:52:48Z</time></trkpt><trkpt lat="41.1506052385223" lon="16.749683597389836"><ele>35.833333333333336</ele><time>2026-04-11T13:52:51Z</time></trkpt><trkpt lat="41.15061737601241" lon="16.749809391100143"><ele>36.0</ele><time>2026-04-11T13:52:53Z</time></trkpt><trkpt lat="41.15063970398826" lon="16.749948172166455"><ele>36.0</ele><time>2026-04-11T13:52:55Z</time></trkpt><trkpt lat="41.15064951847632" lon="16.750072482726868"><ele>36.0</ele><time>2026-04-11T13:52:56.999Z</time></trkpt><trkpt lat="41.15064866830734" lon="16.750182221390197"><ele>36.0</ele><time>2026-04-11T13:52:58.999Z</time></trkpt><trkpt lat="41.15065360663906" lon="16.7502978950722"><ele>36.0</ele><time>2026-04-11T13:53:01.999Z</time></trkpt><trkpt lat="41.150642036038555" lon="16.7504059307379"><ele>36.0</ele><time>2026-04-11T13:53:31.999Z</time></trkpt><trkpt lat="41.150598961673936" lon="16.75052373144224"><ele>36.0</ele><time>2026-04-11T13:53:34.999Z</time></trkpt><trkpt lat="41.150589307004175" lon="16.750650584226854"><ele>35.666666666666664</ele><time>2026-04-11T13:53:36.999Z</time></trkpt><trkpt lat="41.15058735924026" lon="16.750801112786487"><ele>35.333333333333336</ele><time>2026-04-11T13:53:38.999Z</time></trkpt><trkpt lat="41.15058072676821" lon="16.750887629063847"><ele>35.0</ele><time>2026-04-11T13:53:39.999Z</time></trkpt><trkpt lat="41.150575542179446" lon="16.750976933259153"><ele>34.66666666666667</ele><time>2026-04-11T13:53:40.999Z</time></trkpt><trkpt lat="41.15057385518903" lon="16.75107162136845"><ele>34.333333333333336</ele><time>2026-04-11T13:53:41.999Z</time></trkpt><trkpt lat="41.15057262838802" lon="16.751171449646634"><ele>34.0</ele><time>2026-04-11T13:53:42.999Z</time></trkpt><trkpt lat="41.15057147521469" lon="16.751276926237058"><ele>33.5</ele><time>2026-04-11T13:53:43.999Z</time></trkpt><trkpt lat="41.15057173444547" lon="16.751384513577047"><ele>33.0</ele><time>2026-04-11T13:53:44.999Z</time></trkpt><trkpt lat="41.15057078135162" lon="16.751494525417723"><ele>32.5</ele><time>2026-04-11T13:53:45.999Z</time></trkpt><trkpt lat="41.1505704628604" lon="16.7516051041235"><ele>32.0</ele><time>2026-04-11T13:53:47Z</time></trkpt><trkpt lat="41.15056989567536" lon="16.75171605269673"><ele>31.500000000000004</ele><time>2026-04-11T13:53:48Z</time></trkpt><trkpt lat="41.1505710756939" lon="16.751828051681922"><ele>31.0</ele><time>2026-04-11T13:53:49Z</time></trkpt><trkpt lat="41.15057167902434" lon="16.75194278982197"><ele>30.833333333333336</ele><time>2026-04-11T13:53:50Z</time></trkpt><trkpt lat="41.15057214390962" lon="16.75205810731751"><ele>30.666666666666668</ele><time>2026-04-11T13:53:51Z</time></trkpt><trkpt lat="41.15057052238128" lon="16.752176228372566"><ele>30.5</ele><time>2026-04-11T13:53:52Z</time></trkpt><trkpt lat="41.15057035609525" lon="16.752294656886196"><ele>30.333333333333336</ele><time>2026-04-11T13:53:53Z</time></trkpt><trkpt lat="41.15056825059648" lon="16.75241111949504"><ele>30.166666666666668</ele><time>2026-04-11T13:53:54Z</time></trkpt><trkpt lat="41.15056824600178" lon="16.75252657418079"><ele>30.0</ele><time>2026-04-11T13:53:55Z</time></trkpt><trkpt lat="41.150569148669945" lon="16.752638837987543"><ele>30.0</ele><time>2026-04-11T13:53:56Z</time></trkpt><trkpt lat="41.150570220177194" lon="16.752750394798557"><ele>30.0</ele><time>2026-04-11T13:53:57Z</time></trkpt><trkpt lat="41.15057336678257" lon="16.752864447754337"><ele>30.0</ele><time>2026-04-11T13:53:58Z</time></trkpt><trkpt lat="41.15057414593384" lon="16.75297616992732"><ele>30.0</ele><time>2026-04-11T13:53:59Z</time></trkpt><trkpt lat="41.150576963598844" lon="16.75308470325421"><ele>30.0</ele><time>2026-04-11T13:54:00Z</time></trkpt><trkpt lat="41.15058285189267" lon="16.75318481191226"><ele>30.0</ele><time>2026-04-11T13:54:01Z</time></trkpt><trkpt lat="41.15059705830554" lon="16.753275629528144"><ele>30.0</ele><time>2026-04-11T13:54:02Z</time></trkpt><trkpt lat="41.15062708646533" lon="16.75336389489841"><ele>30.0</ele><time>2026-04-11T13:54:03Z</time></trkpt><trkpt lat="41.15067766866864" lon="16.753424633235227"><ele>30.0</ele><time>2026-04-11T13:54:04Z</time></trkpt><trkpt lat="41.15068743304918" lon="16.753537389280766"><ele>30.0</ele><time>2026-04-11T13:54:05Z</time></trkpt><trkpt lat="41.15069650146301" lon="16.753630556629357"><ele>30.0</ele><time>2026-04-11T13:54:06Z</time></trkpt><trkpt lat="41.15069043971949" lon="16.753729307663626"><ele>30.0</ele><time>2026-04-11T13:54:07Z</time></trkpt><trkpt lat="41.15068470024362" lon="16.75382151341899"><ele>30.0</ele><time>2026-04-11T13:54:08Z</time></trkpt><trkpt lat="41.15068671581816" lon="16.753916871692176"><ele>30.333333333333332</ele><time>2026-04-11T13:54:09Z</time></trkpt><trkpt lat="41.150690520323536" lon="16.754020569351233"><ele>30.666666666666664</ele><time>2026-04-11T13:54:10Z</time></trkpt><trkpt lat="41.15069390310163" lon="16.75413218616539"><ele>31.0</ele><time>2026-04-11T13:54:11Z</time></trkpt><trkpt lat="41.15069842013697" lon="16.754246935631535"><ele>31.333333333333332</ele><time>2026-04-11T13:54:12Z</time></trkpt><trkpt lat="41.1507000404847" lon="16.754368830688037"><ele>31.666666666666664</ele><time>2026-04-11T13:54:13Z</time></trkpt><trkpt lat="41.15069575611019" lon="16.75449376054199"><ele>32.0</ele><time>2026-04-11T13:54:14Z</time></trkpt><trkpt lat="41.15069222527611" lon="16.75462311207849"><ele>32.0</ele><time>2026-04-11T13:54:15Z</time></trkpt><trkpt lat="41.15069528191912" lon="16.75475497704741"><ele>32.0</ele><time>2026-04-11T13:54:16Z</time></trkpt><trkpt lat="41.15069667372452" lon="16.754883348285375"><ele>32.0</ele><time>2026-04-11T13:54:17Z</time></trkpt><trkpt lat="41.15069825170224" lon="16.75501329975034"><ele>32.0</ele><time>2026-04-11T13:54:18Z</time></trkpt><trkpt lat="41.15070158469336" lon="16.755140499065433"><ele>32.0</ele><time>2026-04-11T13:54:19Z</time></trkpt><trkpt lat="41.15070133156966" lon="16.75526461990469"><ele>31.999999999999996</ele><time>2026-04-11T13:54:20Z</time></trkpt><trkpt lat="41.150706852694036" lon="16.755384013029488"><ele>32.0</ele><time>2026-04-11T13:54:21Z</time></trkpt><trkpt lat="41.150704831444145" lon="16.75550546063404"><ele>32.0</ele><time>2026-04-11T13:54:22Z</time></trkpt><trkpt lat="41.15070687016508" lon="16.75562334109939"><ele>32.0</ele><time>2026-04-11T13:54:23Z</time></trkpt><trkpt lat="41.15070882061741" lon="16.75573842455859"><ele>31.999999999999996</ele><time>2026-04-11T13:54:24Z</time></trkpt><trkpt lat="41.15071191896156" lon="16.755852643623363"><ele>32.0</ele><time>2026-04-11T13:54:25Z</time></trkpt><trkpt lat="41.15071659696795" lon="16.755964217090344"><ele>31.833333333333332</ele><time>2026-04-11T13:54:26Z</time></trkpt><trkpt lat="41.15071693938096" lon="16.756078132060473"><ele>31.666666666666664</ele><time>2026-04-11T13:54:27Z</time></trkpt><trkpt lat="41.150718353679125" lon="16.756186201568767"><ele>31.5</ele><time>2026-04-11T13:54:28Z</time></trkpt><trkpt lat="41.150716748655896" lon="16.75628619348394"><ele>31.333333333333336</ele><time>2026-04-11T13:54:29Z</time></trkpt><trkpt lat="41.15071597642027" lon="16.756382773531197"><ele>31.166666666666668</ele><time>2026-04-11T13:54:30Z</time></trkpt><trkpt lat="41.150716055635" lon="16.756469477163638"><ele>31.0</ele><time>2026-04-11T13:54:31Z</time></trkpt><trkpt lat="41.15071266781007" lon="16.75658762813123"><ele>31.0</ele><time>2026-04-11T13:54:33Z</time></trkpt><trkpt lat="41.15072908919624" lon="16.75668485290359"><ele>31.0</ele><time>2026-04-11T13:54:48Z</time></trkpt><trkpt lat="41.15073840128031" lon="16.756868936813497"><ele>31.0</ele><time>2026-04-11T13:54:50Z</time></trkpt><trkpt lat="41.15074911180763" lon="16.756979814687067"><ele>31.0</ele><time>2026-04-11T13:54:51Z</time></trkpt><trkpt lat="41.150772870822706" lon="16.757089266911375"><ele>31.0</ele><time>2026-04-11T13:54:52Z</time></trkpt><trkpt lat="41.150804467688396" lon="16.757191107768225"><ele>31.000000000000004</ele><time>2026-04-11T13:54:53Z</time></trkpt><trkpt lat="41.150876598607105" lon="16.757271333948875"><ele>31.0</ele><time>2026-04-11T13:54:54Z</time></trkpt><trkpt lat="41.150954964532225" lon="16.757306926015918"><ele>31.0</ele><time>2026-04-11T13:54:55Z</time></trkpt><trkpt lat="41.15103347478361" lon="16.757329527098644"><ele>31.0</ele><time>2026-04-11T13:54:56Z</time></trkpt><trkpt lat="41.15111610322651" lon="16.757357853956268"><ele>31.000000000000004</ele><time>2026-04-11T13:54:57Z</time></trkpt><trkpt lat="41.15119002064693" lon="16.757388096461465"><ele>31.0</ele><time>2026-04-11T13:54:58Z</time></trkpt><trkpt lat="41.15126026075962" lon="16.757420711255595"><ele>31.0</ele><time>2026-04-11T13:54:59Z</time></trkpt><trkpt lat="41.15132530078507" lon="16.757451607041986"><ele>31.0</ele><time>2026-04-11T13:55:00Z</time></trkpt><trkpt lat="41.151387491178525" lon="16.75748014966222"><ele>31.0</ele><time>2026-04-11T13:55:01Z</time></trkpt><trkpt lat="41.151492880385824" lon="16.7575341304897"><ele>31.0</ele><time>2026-04-11T13:55:03Z</time></trkpt><trkpt lat="41.15156590224794" lon="16.757573252843898"><ele>31.0</ele><time>2026-04-11T13:55:05Z</time></trkpt><trkpt lat="41.15152503614037" lon="16.757747645742118"><ele>31.0</ele><time>2026-04-11T13:55:07Z</time></trkpt><trkpt lat="41.15150942356739" lon="16.757846746292106"><ele>31.0</ele><time>2026-04-11T13:55:08Z</time></trkpt><trkpt lat="41.151490952945835" lon="16.75796404269592"><ele>31.0</ele><time>2026-04-11T13:55:08.999Z</time></trkpt><trkpt lat="41.15147232867819" lon="16.75809098766981"><ele>31.0</ele><time>2026-04-11T13:55:09.999Z</time></trkpt><trkpt lat="41.151452621755155" lon="16.75822531202186"><ele>31.0</ele><time>2026-04-11T13:55:10.999Z</time></trkpt><trkpt lat="41.15143169152503" lon="16.758367974753195"><ele>31.000000000000004</ele><time>2026-04-11T13:55:11.999Z</time></trkpt><trkpt lat="41.1514122593444" lon="16.75850042647064"><ele>31.0</ele><time>2026-04-11T13:55:12.999Z</time></trkpt><trkpt lat="41.1513953914131" lon="16.758615976909905"><ele>31.0</ele><time>2026-04-11T13:55:13.999Z</time></trkpt><trkpt lat="41.151380880352875" lon="16.758717118607944"><ele>31.0</ele><time>2026-04-11T13:55:14.999Z</time></trkpt><trkpt lat="41.15136795139378" lon="16.758807233005427"><ele>31.000000000000004</ele><time>2026-04-11T13:55:15.999Z</time></trkpt><trkpt lat="41.15136374006784" lon="16.75889068058295"><ele>31.0</ele><time>2026-04-11T13:55:16.999Z</time></trkpt><trkpt lat="41.15132348945898" lon="16.758983469668078"><ele>30.833333333333336</ele><time>2026-04-11T13:55:18.999Z</time></trkpt><trkpt lat="41.15122883877924" lon="16.75891417681089"><ele>30.666666666666668</ele><time>2026-04-11T13:55:19.999Z</time></trkpt><trkpt lat="41.15116579885861" lon="16.758900893410434"><ele>30.5</ele><time>2026-04-11T13:55:20.999Z</time></trkpt><trkpt lat="41.15109610862345" lon="16.75885960596996"><ele>30.333333333333336</ele><time>2026-04-11T13:55:21.999Z</time></trkpt><trkpt lat="41.151016054012445" lon="16.75881710933127"><ele>30.166666666666668</ele><time>2026-04-11T13:55:22.999Z</time></trkpt><trkpt lat="41.150924556208125" lon="16.758767980908846"><ele>30.0</ele><time>2026-04-11T13:55:23.999Z</time></trkpt><trkpt lat="41.15082268218352" lon="16.75871428226945"><ele>30.0</ele><time>2026-04-11T13:55:24.999Z</time></trkpt><trkpt lat="41.150712008201374" lon="16.758659798761567"><ele>30.0</ele><time>2026-04-11T13:55:25.999Z</time></trkpt><trkpt lat="41.15060179282697" lon="16.758576800772808"><ele>30.0</ele><time>2026-04-11T13:55:26.999Z</time></trkpt><trkpt lat="41.15046888461605" lon="16.75853324450908"><ele>30.0</ele><time>2026-04-11T13:55:27.999Z</time></trkpt><trkpt lat="41.15033136199128" lon="16.758440027002575"><ele>30.0</ele><time>2026-04-11T13:55:28.999Z</time></trkpt><trkpt lat="41.1501860936749" lon="16.75832084324116"><ele>30.0</ele><time>2026-04-11T13:55:29.999Z</time></trkpt><trkpt lat="41.1500373255866" lon="16.758184367704455"><ele>30.0</ele><time>2026-04-11T13:55:30.999Z</time></trkpt><trkpt lat="41.149869097866734" lon="16.758049185541424"><ele>30.0</ele><time>2026-04-11T13:55:31.999Z</time></trkpt><trkpt lat="41.14967342443453" lon="16.75790619769856"><ele>30.0</ele><time>2026-04-11T13:55:32.999Z</time></trkpt><trkpt lat="41.1494488288207" lon="16.757761197545094"><ele>30.5</ele><time>2026-04-11T13:55:33.999Z</time></trkpt><trkpt lat="41.1492277966561" lon="16.757578057368136"><ele>31.0</ele><time>2026-04-11T13:55:34.999Z</time></trkpt><trkpt lat="41.14899497587701" lon="16.757398561001633"><ele>31.5</ele><time>2026-04-11T13:55:35.999Z</time></trkpt><trkpt lat="41.1487508870972" lon="16.757212760169583"><ele>32.0</ele><time>2026-04-11T13:55:36.999Z</time></trkpt><trkpt lat="41.14852615450527" lon="16.75707080879928"><ele>32.0</ele><time>2026-04-11T13:55:37.999Z</time></trkpt><trkpt lat="41.14833379864882" lon="16.756930525965437"><ele>32.0</ele><time>2026-04-11T13:55:38.999Z</time></trkpt><trkpt lat="41.148167098928425" lon="16.756783748458993"><ele>32.0</ele><time>2026-04-11T13:55:39.999Z</time></trkpt><trkpt lat="41.148003495583865" lon="16.756665570712645"><ele>32.33333333333333</ele><time>2026-04-11T13:55:40.999Z</time></trkpt><trkpt lat="41.147848356843724" lon="16.75655366736505"><ele>32.666666666666664</ele><time>2026-04-11T13:55:41.999Z</time></trkpt><trkpt lat="41.147691793266745" lon="16.75647150037828"><ele>33.0</ele><time>2026-04-11T13:55:42.999Z</time></trkpt><trkpt lat="41.147560198578994" lon="16.756366854457678"><ele>33.0</ele><time>2026-04-11T13:55:43.999Z</time></trkpt><trkpt lat="41.14743870604578" lon="16.756266779102905"><ele>33.0</ele><time>2026-04-11T13:55:44.999Z</time></trkpt><trkpt lat="41.14732793192401" lon="16.756175298815783"><ele>33.0</ele><time>2026-04-11T13:55:45.999Z</time></trkpt><trkpt lat="41.14724105910966" lon="16.756067994035035"><ele>33.0</ele><time>2026-04-11T13:55:46.999Z</time></trkpt><trkpt lat="41.147143565397315" lon="16.756010917024025"><ele>33.6</ele><time>2026-04-11T13:55:47.999Z</time></trkpt><trkpt lat="41.1470674419236" lon="16.755946993924518"><ele>34.199999999999996</ele><time>2026-04-11T13:55:48.999Z</time></trkpt><trkpt lat="41.14700017558553" lon="16.755895759860042"><ele>34.8</ele><time>2026-04-11T13:55:49.999Z</time></trkpt><trkpt lat="41.146923676574" lon="16.75582500367308"><ele>35.4</ele><time>2026-04-11T13:55:51.999Z</time></trkpt><trkpt lat="41.14685645388917" lon="16.756009052843012"><ele>36.0</ele><time>2026-04-11T13:55:54Z</time></trkpt><trkpt lat="41.14685212146575" lon="16.756132005891597"><ele>36.0</ele><time>2026-04-11T13:55:55Z</time></trkpt><trkpt lat="41.146830274905305" lon="16.756293874591307"><ele>36.0</ele><time>2026-04-11T13:55:56Z</time></trkpt><trkpt lat="41.14676528361106" lon="16.756496819845577"><ele>36.0</ele><time>2026-04-11T13:55:57Z</time></trkpt><trkpt lat="41.146679974042314" lon="16.756734521012042"><ele>35.5</ele><time>2026-04-11T13:55:58Z</time></trkpt><trkpt lat="41.146590117243015" lon="16.75700734913203"><ele>35.0</ele><time>2026-04-11T13:55:59Z</time></trkpt><trkpt lat="41.14650004381069" lon="16.757317844683236"><ele>35.5</ele><time>2026-04-11T13:56:00Z</time></trkpt><trkpt lat="41.14638249650153" lon="16.75763261204059"><ele>36.0</ele><time>2026-04-11T13:56:01Z</time></trkpt><trkpt lat="41.14625482995349" lon="16.757951888549336"><ele>36.0</ele><time>2026-04-11T13:56:02Z</time></trkpt><trkpt lat="41.146131876409676" lon="16.758285726011707"><ele>36.0</ele><time>2026-04-11T13:56:03Z</time></trkpt><trkpt lat="41.145988892824384" lon="16.758617870308207"><ele>36.0</ele><time>2026-04-11T13:56:04Z</time></trkpt><trkpt lat="41.14585823278332" lon="16.75895936917543"><ele>36.0</ele><time>2026-04-11T13:56:05Z</time></trkpt><trkpt lat="41.14574412630041" lon="16.75927161303222"><ele>37.0</ele><time>2026-04-11T13:56:06Z</time></trkpt><trkpt lat="41.145648823436815" lon="16.75957760874481"><ele>38.0</ele><time>2026-04-11T13:56:07Z</time></trkpt><trkpt lat="41.1455639310954" lon="16.75985187698456"><ele>38.0</ele><time>2026-04-11T13:56:08Z</time></trkpt><trkpt lat="41.14547932612977" lon="16.760111726967562"><ele>38.0</ele><time>2026-04-11T13:56:09Z</time></trkpt><trkpt lat="41.145399390598214" lon="16.7603617484586"><ele>38.0</ele><time>2026-04-11T13:56:10Z</time></trkpt><trkpt lat="41.14531936039009" lon="16.760606283574187"><ele>38.0</ele><time>2026-04-11T13:56:11Z</time></trkpt><trkpt lat="41.14523990406215" lon="16.76084198252256"><ele>38.0</ele><time>2026-04-11T13:56:12Z</time></trkpt><trkpt lat="41.14516756785432" lon="16.761064103036134"><ele>38.0</ele><time>2026-04-11T13:56:13Z</time></trkpt><trkpt lat="41.14510371645543" lon="16.761265585109413"><ele>38.0</ele><time>2026-04-11T13:56:14Z</time></trkpt><trkpt lat="41.14505265394009" lon="16.76145256749531"><ele>38.0</ele><time>2026-04-11T13:56:15Z</time></trkpt><trkpt lat="41.145013748960345" lon="16.76162696664264"><ele>38.0</ele><time>2026-04-11T13:56:16Z</time></trkpt><trkpt lat="41.144978942690805" lon="16.76179381218107"><ele>38.0</ele><time>2026-04-11T13:56:17Z</time></trkpt><trkpt lat="41.14495155585896" lon="16.761952695778383"><ele>38.0</ele><time>2026-04-11T13:56:18Z</time></trkpt><trkpt lat="41.144938419230776" lon="16.762100811336385"><ele>38.0</ele><time>2026-04-11T13:56:19Z</time></trkpt><trkpt lat="41.14493964143053" lon="16.762234360196686"><ele>38.0</ele><time>2026-04-11T13:56:20Z</time></trkpt><trkpt lat="41.144942616309834" lon="16.76234533770497"><ele>38.0</ele><time>2026-04-11T13:56:21Z</time></trkpt><trkpt lat="41.14492161709501" lon="16.76248796108663"><ele>38.0</ele><time>2026-04-11T13:56:23Z</time></trkpt><trkpt lat="41.144872740424766" lon="16.762563658084673"><ele>38.0</ele><time>2026-04-11T13:56:27Z</time></trkpt><trkpt lat="41.144950013793654" lon="16.762680557088984"><ele>38.0</ele><time>2026-04-11T13:56:29Z</time></trkpt><trkpt lat="41.145023658271306" lon="16.762741652724028"><ele>38.0</ele><time>2026-04-11T13:56:30Z</time></trkpt><trkpt lat="41.14510035192262" lon="16.762818627331374"><ele>38.0</ele><time>2026-04-11T13:56:31Z</time></trkpt><trkpt lat="41.14518947951146" lon="16.762899303015768"><ele>38.0</ele><time>2026-04-11T13:56:32Z</time></trkpt><trkpt lat="41.14528922140462" lon="16.762967811898967"><ele>38.0</ele><time>2026-04-11T13:56:33Z</time></trkpt><trkpt lat="41.145380613676394" lon="16.763056098505206"><ele>38.0</ele><time>2026-04-11T13:56:34Z</time></trkpt><trkpt lat="41.145467528061815" lon="16.76314399086212"><ele>38.0</ele><time>2026-04-11T13:56:35Z</time></trkpt><trkpt lat="41.1455557811129" lon="16.763219688879737"><ele>38.0</ele><time>2026-04-11T13:56:36Z</time></trkpt><trkpt lat="41.14565436288293" lon="16.76328176417902"><ele>38.0</ele><time>2026-04-11T13:56:37Z</time></trkpt><trkpt lat="41.14577413972888" lon="16.763358496248568"><ele>38.0</ele><time>2026-04-11T13:56:38Z</time></trkpt><trkpt lat="41.145914148733766" lon="16.763475700381292"><ele>38.0</ele><time>2026-04-11T13:56:39Z</time></trkpt><trkpt lat="41.14604202442743" lon="16.763593892206238"><ele>38.0</ele><time>2026-04-11T13:56:40Z</time></trkpt><trkpt lat="41.14614596336078" lon="16.763694676951058"><ele>37.666666666666664</ele><time>2026-04-11T13:56:41Z</time></trkpt><trkpt lat="41.14622873780996" lon="16.76378900128893"><ele>37.33333333333333</ele><time>2026-04-11T13:56:42Z</time></trkpt><trkpt lat="41.14629959770898" lon="16.76386369803076"><ele>37.0</ele><time>2026-04-11T13:56:43Z</time></trkpt><trkpt lat="41.146354792484104" lon="16.763917773232432"><ele>36.666666666666664</ele><time>2026-04-11T13:56:44Z</time></trkpt><trkpt lat="41.14644466027209" lon="16.76398260612653"><ele>36.333333333333336</ele><time>2026-04-11T13:56:46Z</time></trkpt><trkpt lat="41.1465089918411" lon="16.764040185832915"><ele>36.0</ele><time>2026-04-11T13:56:47Z</time></trkpt><trkpt lat="41.14659420415855" lon="16.76412568571054"><ele>35.5</ele><time>2026-04-11T13:56:48Z</time></trkpt><trkpt lat="41.14670336283854" lon="16.764222690568175"><ele>35.0</ele><time>2026-04-11T13:56:49Z</time></trkpt><trkpt lat="41.1468451746982" lon="16.764328585709496"><ele>34.5</ele><time>2026-04-11T13:56:50Z</time></trkpt><trkpt lat="41.14697532690744" lon="16.764432981105536"><ele>34.0</ele><time>2026-04-11T13:56:51Z</time></trkpt><trkpt lat="41.147094018697" lon="16.764533784351023"><ele>33.75</ele><time>2026-04-11T13:56:52Z</time></trkpt><trkpt lat="41.14720197059758" lon="16.764629100127564"><ele>33.5</ele><time>2026-04-11T13:56:53Z</time></trkpt><trkpt lat="41.14730658677699" lon="16.764716099813956"><ele>33.25</ele><time>2026-04-11T13:56:54Z</time></trkpt><trkpt lat="41.147398143002114" lon="16.76479668722566"><ele>33.0</ele><time>2026-04-11T13:56:55Z</time></trkpt><trkpt lat="41.14749111622075" lon="16.76487673425856"><ele>32.8</ele><time>2026-04-11T13:56:56Z</time></trkpt><trkpt lat="41.14757414202341" lon="16.76495718657977"><ele>32.599999999999994</ele><time>2026-04-11T13:56:57Z</time></trkpt><trkpt lat="41.147649504090104" lon="16.765037909750433"><ele>32.400000000000006</ele><time>2026-04-11T13:56:58Z</time></trkpt><trkpt lat="41.14773793343158" lon="16.765110951315638"><ele>32.2</ele><time>2026-04-11T13:56:59Z</time></trkpt><trkpt lat="41.14782990475481" lon="16.765184148934022"><ele>32.0</ele><time>2026-04-11T13:57:00Z</time></trkpt><trkpt lat="41.14791781454316" lon="16.76524288760524"><ele>31.8</ele><time>2026-04-11T13:57:01Z</time></trkpt><trkpt lat="41.14800093610509" lon="16.765297299387285"><ele>31.6</ele><time>2026-04-11T13:57:02Z</time></trkpt><trkpt lat="41.148057339770936" lon="16.765367424872586"><ele>31.400000000000002</ele><time>2026-04-11T13:57:03Z</time></trkpt><trkpt lat="41.14812478002402" lon="16.765400375847403"><ele>31.200000000000003</ele><time>2026-04-11T13:57:03.999Z</time></trkpt><trkpt lat="41.1480965453004" lon="16.76555995891853"><ele>31.0</ele><time>2026-04-11T13:57:05.999Z</time></trkpt><trkpt lat="41.14807629094479" lon="16.765707578512256"><ele>31.0</ele><time>2026-04-11T13:57:06.999Z</time></trkpt><trkpt lat="41.14805446892071" lon="16.76588000551108"><ele>31.0</ele><time>2026-04-11T13:57:07.999Z</time></trkpt><trkpt lat="41.14803646060698" lon="16.766050712112733"><ele>31.0</ele><time>2026-04-11T13:57:08.999Z</time></trkpt><trkpt lat="41.14800083965635" lon="16.766270365036146"><ele>31.0</ele><time>2026-04-11T13:57:09.999Z</time></trkpt><trkpt lat="41.1479711211897" lon="16.76650079950246"><ele>31.0</ele><time>2026-04-11T13:57:10.999Z</time></trkpt><trkpt lat="41.14794561782302" lon="16.766753066344787"><ele>31.0</ele><time>2026-04-11T13:57:11.999Z</time></trkpt><trkpt lat="41.147920867444725" lon="16.766974617415784"><ele>31.0</ele><time>2026-04-11T13:57:12.999Z</time></trkpt><trkpt lat="41.147904552097536" lon="16.76718248251912"><ele>31.200000000000003</ele><time>2026-04-11T13:57:13.999Z</time></trkpt><trkpt lat="41.14786869676877" lon="16.76734596629076"><ele>31.400000000000002</ele><time>2026-04-11T13:57:14.999Z</time></trkpt><trkpt lat="41.14784790596783" lon="16.76750509525385"><ele>31.6</ele><time>2026-04-11T13:57:15.999Z</time></trkpt><trkpt lat="41.147836219389845" lon="16.767636121625024"><ele>31.8</ele><time>2026-04-11T13:57:16.999Z</time></trkpt><trkpt lat="41.147826593824114" lon="16.767735169519742"><ele>32.0</ele><time>2026-04-11T13:57:17.999Z</time></trkpt><trkpt lat="41.1478894846828" lon="16.767827555689877"><ele>32.0</ele><time>2026-04-11T13:57:20.999Z</time></trkpt><trkpt lat="41.147977087691395" lon="16.767839101598135"><ele>32.0</ele><time>2026-04-11T13:57:21.999Z</time></trkpt><trkpt lat="41.148102512021076" lon="16.767878826621477"><ele>32.0</ele><time>2026-04-11T13:57:22.999Z</time></trkpt><trkpt lat="41.14822989825835" lon="16.767961065592"><ele>32.0</ele><time>2026-04-11T13:57:23.999Z</time></trkpt><trkpt lat="41.148407989799516" lon="16.768009833166406"><ele>31.5</ele><time>2026-04-11T13:57:24.999Z</time></trkpt><trkpt lat="41.14855550740933" lon="16.768045824287075"><ele>31.0</ele><time>2026-04-11T13:57:25.999Z</time></trkpt><trkpt lat="41.148662423144394" lon="16.768084925657597"><ele>30.5</ele><time>2026-04-11T13:57:26.999Z</time></trkpt><trkpt lat="41.14876394311943" lon="16.768118325159694"><ele>30.0</ele><time>2026-04-11T13:57:27.999Z</time></trkpt><trkpt lat="41.14889929459378" lon="16.768137947281332"><ele>30.0</ele><time>2026-04-11T13:57:28.999Z</time></trkpt><trkpt lat="41.14900119167225" lon="16.76816861451595"><ele>30.0</ele><time>2026-04-11T13:57:29.999Z</time></trkpt><trkpt lat="41.14908716156622" lon="16.768192555029625"><ele>30.0</ele><time>2026-04-11T13:57:30.999Z</time></trkpt><trkpt lat="41.1491727075054" lon="16.768215361202206"><ele>30.0</ele><time>2026-04-11T13:57:31.999Z</time></trkpt><trkpt lat="41.14924904764322" lon="16.768232713665665"><ele>30.0</ele><time>2026-04-11T13:57:32.999Z</time></trkpt><trkpt lat="41.149319856728184" lon="16.768253559493544"><ele>30.0</ele><time>2026-04-11T13:57:33.999Z</time></trkpt><trkpt lat="41.14942017365683" lon="16.76830271427873"><ele>29.8</ele><time>2026-04-11T13:57:35.999Z</time></trkpt><trkpt lat="41.149407418466005" lon="16.76843381928805"><ele>29.6</ele><time>2026-04-11T13:57:38.999Z</time></trkpt><trkpt lat="41.14929735969926" lon="16.76855621996386"><ele>29.4</ele><time>2026-04-11T13:57:40.999Z</time></trkpt><trkpt lat="41.14921887193066" lon="16.76860975536839"><ele>29.2</ele><time>2026-04-11T13:57:41.999Z</time></trkpt><trkpt lat="41.14914839833433" lon="16.7686316855718"><ele>29.0</ele><time>2026-04-11T13:57:42.999Z</time></trkpt><trkpt lat="41.14908220663811" lon="16.76865233288862"><ele>28.999999999999996</ele><time>2026-04-11T13:57:43.999Z</time></trkpt><trkpt lat="41.14903143250992" lon="16.768702794466545"><ele>29.0</ele><time>2026-04-11T13:57:44.999Z</time></trkpt><trkpt lat="41.14900903279542" lon="16.768810669972574"><ele>29.0</ele><time>2026-04-11T13:57:45.999Z</time></trkpt><trkpt lat="41.14902212471683" lon="16.768930218253914"><ele>29.0</ele><time>2026-04-11T13:57:46.999Z</time></trkpt><trkpt lat="41.1490376638231" lon="16.769058187077917"><ele>28.999999999999996</ele><time>2026-04-11T13:57:47.999Z</time></trkpt><trkpt lat="41.149046798698926" lon="16.769171765668435"><ele>29.0</ele><time>2026-04-11T13:57:48.999Z</time></trkpt><trkpt lat="41.1489911611319" lon="16.769269923215482"><ele>28.999999999999996</ele><time>2026-04-11T13:57:49.999Z</time></trkpt><trkpt lat="41.148944249616726" lon="16.769357645735127"><ele>29.0</ele><time>2026-04-11T13:57:50.999Z</time></trkpt><trkpt lat="41.14888920922458" lon="16.7694530061265"><ele>29.0</ele><time>2026-04-11T13:57:51.999Z</time></trkpt><trkpt lat="41.14884659492342" lon="16.769555688490865"><ele>29.0</ele><time>2026-04-11T13:57:52.999Z</time></trkpt><trkpt lat="41.1487920942513" lon="16.76965291780821"><ele>28.999999999999996</ele><time>2026-04-11T13:57:53.999Z</time></trkpt><trkpt lat="41.14874272735881" lon="16.769752314622945"><ele>29.0</ele><time>2026-04-11T13:57:54.999Z</time></trkpt><trkpt lat="41.14868281788272" lon="16.769846653473017"><ele>28.999999999999996</ele><time>2026-04-11T13:57:55.999Z</time></trkpt><trkpt lat="41.14863475586197" lon="16.769958761979122"><ele>29.0</ele><time>2026-04-11T13:57:56.999Z</time></trkpt><trkpt lat="41.14857604448877" lon="16.770063684900528"><ele>29.0</ele><time>2026-04-11T13:57:57.999Z</time></trkpt><trkpt lat="41.14852636968401" lon="16.77016030074826"><ele>29.0</ele><time>2026-04-11T13:57:59Z</time></trkpt><trkpt lat="41.148474460279026" lon="16.770231736001808"><ele>28.999999999999996</ele><time>2026-04-11T13:58:00Z</time></trkpt><trkpt lat="41.14844378679376" lon="16.770325624532692"><ele>29.0</ele><time>2026-04-11T13:58:01Z</time></trkpt><trkpt lat="41.148405186066796" lon="16.77039752710981"><ele>28.999999999999996</ele><time>2026-04-11T13:58:02Z</time></trkpt><trkpt lat="41.148362412917784" lon="16.770469162397955"><ele>29.0</ele><time>2026-04-11T13:58:03Z</time></trkpt><trkpt lat="41.14831430891874" lon="16.770531187669768"><ele>29.0</ele><time>2026-04-11T13:58:05Z</time></trkpt><trkpt lat="41.14824431504118" lon="16.770489915249946"><ele>29.0</ele><time>2026-04-11T13:59:28.999Z</time></trkpt><trkpt lat="41.14823124645931" lon="16.77057775278845"><ele>28.999999999999996</ele><time>2026-04-11T14:00:30Z</time></trkpt><trkpt lat="41.148110329094045" lon="16.770568011645317"><ele>29.0</ele><time>2026-04-11T14:00:32Z</time></trkpt><trkpt lat="41.1479993547257" lon="16.77050902436806"><ele>28.999999999999996</ele><time>2026-04-11T14:00:33Z</time></trkpt><trkpt lat="41.147934147090936" lon="16.770480483759425"><ele>29.0</ele><time>2026-04-11T14:00:34Z</time></trkpt><trkpt lat="41.14786329397972" lon="16.770505845641054"><ele>29.0</ele><time>2026-04-11T14:00:35Z</time></trkpt><trkpt lat="41.14776333483205" lon="16.77049481540896"><ele>29.0</ele><time>2026-04-11T14:00:37Z</time></trkpt><trkpt lat="41.14769039606986" lon="16.77050149335872"><ele>28.999999999999996</ele><time>2026-04-11T14:00:39Z</time></trkpt><trkpt lat="41.147612226367535" lon="16.770506250476046"><ele>29.0</ele><time>2026-04-11T14:00:41Z</time></trkpt><trkpt lat="41.14743869929623" lon="16.770590683334582"><ele>29.0</ele><time>2026-04-11T14:00:44Z</time></trkpt><trkpt lat="41.147571819096505" lon="16.770608352311633"><ele>29.0</ele><time>2026-04-11T14:01:05Z</time></trkpt></trkseg></trk></gpx>